Darstellungsparameter: Aktuell verwendete Einstellungen:
Skalierung der Graphiken ... ?
xyx+y,   Skalierungsfaktor:      Skalierung: Modus: x, Faktor: 1
Darstellungszeitraum ... ?
Vom - - bis: - -   Zeitraum: 26.10.2020 - 01.11.2020
Min/Max/Avg-Anzeige ... ?
Zeige MMA aktuell
Zeige MMA Monat
Zeige MMA alles
Zeige --A aktuell
Zeige --A Monat
Zeige --A alles
Keine MMA-Anzeige
MMA:
Minimum Maximum Average (ber die Originaldaten)
MMA-Basis: 14.04.2020 - 16.05.2020
Quicknavigation für Darstellung... ?
Tage:      1T, 2T, 3T, 5T -1T -2T -3T -5T +1T +2T +3T +5T
Wochen: 1W, 2W, 3W -1W -2W -3W +1W +2W +3W
Monate: 1M, 3M, 6M -1M -3M -6M +1M +3M +6M
Jahre:    1J, 3J, 5J, 10J -1J -3J -5J -10J +1J +3J +5J +10J
Nutze für die Darstellung ... ?
Originaldaten oder Mittelwerte auf ...
Stundenbasis Tagesbasis Wochenbasis
Monatsbasis Jahresbasis      Datenbasis: Original-Daten
Darstellen als:
Statistik (Auto) Statistik J:M      Darstellung:
Zur Graphik,    zurück zur Übersicht aller Sensoren.
 
Tabellarische Datenbersicht: ?
 
Sensor: Nr:Datum:Temp:Abs-Feuchte:Windchill:Wind:
Aussen-T/F 1 26-10-2020 00:00:00 10.7 C 9.43 g/m*3 10.7 C 0 km/h
2 26-10-2020 00:05:00 10.7 C 9.43 g/m*3 10.7 C 1.6 km/h
3 26-10-2020 00:10:00 10.7 C 9.43 g/m*3 10.7 C 0 km/h
4 26-10-2020 00:15:00 10.7 C 9.43 g/m*3 10.7 C 0 km/h
5 26-10-2020 00:20:00 10.7 C 9.43 g/m*3 10.7 C 0 km/h
6 26-10-2020 00:25:00 10.7 C 9.43 g/m*3 10.7 C 1.6 km/h
7 26-10-2020 00:30:00 10.7 C 9.43 g/m*3 10.7 C 0 km/h
8 26-10-2020 00:35:00 10.7 C 9.43 g/m*3 10.7 C 0 km/h
9 26-10-2020 00:40:00 10.7 C 9.43 g/m*3 10.7 C 0 km/h
10 26-10-2020 00:45:00 10.7 C 9.43 g/m*3 10.7 C 4.8 km/h
11 26-10-2020 00:50:00 10.7 C 9.43 g/m*3 10.7 C 4.8 km/h
12 26-10-2020 00:55:00 10.7 C 9.43 g/m*3 10.7 C 1.6 km/h
13 26-10-2020 01:00:00 10.7 C 9.43 g/m*3 10.7 C 0 km/h
14 26-10-2020 01:05:00 10.7 C 9.43 g/m*3 10.7 C 0 km/h
15 26-10-2020 01:10:00 10.7 C 9.43 g/m*3 10.7 C 0 km/h
16 26-10-2020 01:15:00 10.7 C 9.43 g/m*3 10.7 C 0 km/h
17 26-10-2020 01:20:00 10.7 C 9.43 g/m*3 10.7 C 0 km/h
18 26-10-2020 01:25:00 10.7 C 9.43 g/m*3 10.7 C 0 km/h
19 26-10-2020 01:30:00 10.7 C 9.43 g/m*3 10.7 C 0 km/h
20 26-10-2020 01:35:00 10.7 C 9.43 g/m*3 10.7 C 1.6 km/h
21 26-10-2020 01:40:00 10.6 C 9.37 g/m*3 10.6 C 0 km/h
22 26-10-2020 01:45:00 10.6 C 9.37 g/m*3 10.6 C 0 km/h
23 26-10-2020 01:50:00 10.6 C 9.37 g/m*3 10.6 C 0 km/h
24 26-10-2020 01:55:00 10.6 C 9.37 g/m*3 10.6 C 1.6 km/h
25 26-10-2020 02:00:00 10.6 C 9.37 g/m*3 10.6 C 0 km/h
Sensor: Nr:Datum:Temp:Abs-Feuchte:Windchill:Wind:
Aussen-T/F 26 26-10-2020 02:05:00 10.7 C 9.43 g/m*3 10.7 C 0 km/h
27 26-10-2020 02:10:00 10.7 C 9.43 g/m*3 10.7 C 1.6 km/h
28 26-10-2020 02:15:00 10.7 C 9.43 g/m*3 10.7 C 4.8 km/h
29 26-10-2020 02:20:00 10.7 C 9.33 g/m*3 10.7 C 3.2 km/h
30 26-10-2020 02:25:00 10.7 C 9.33 g/m*3 10.7 C 1.6 km/h
31 26-10-2020 02:30:00 10.7 C 9.33 g/m*3 10.7 C 0 km/h
32 26-10-2020 02:35:00 10.7 C 9.33 g/m*3 10.7 C 0 km/h
33 26-10-2020 02:40:00 10.6 C 9.27 g/m*3 10.6 C 3.2 km/h
34 26-10-2020 02:45:00 10.6 C 9.27 g/m*3 10.6 C 0 km/h
35 26-10-2020 02:50:00 10.6 C 9.27 g/m*3 10.6 C 0 km/h
36 26-10-2020 02:55:00 10.6 C 9.27 g/m*3 10.6 C 1.6 km/h
37 26-10-2020 03:00:00 10.6 C 9.27 g/m*3 10.6 C 0 km/h
38 26-10-2020 03:05:00 10.6 C 9.27 g/m*3 10.6 C 0 km/h
39 26-10-2020 03:10:00 10.6 C 9.27 g/m*3 10.6 C 1.6 km/h
40 26-10-2020 03:15:00 10.6 C 9.27 g/m*3 10.6 C 1.6 km/h
41 26-10-2020 03:20:00 10.6 C 9.27 g/m*3 10.6 C 0 km/h
42 26-10-2020 03:25:00 10.7 C 9.33 g/m*3 10.7 C 3.2 km/h
43 26-10-2020 03:30:00 10.7 C 9.33 g/m*3 10.7 C 3.2 km/h
44 26-10-2020 03:35:00 10.7 C 9.33 g/m*3 10.7 C 0 km/h
45 26-10-2020 03:40:00 10.7 C 9.33 g/m*3 10.7 C 0 km/h
46 26-10-2020 03:45:00 10.7 C 9.33 g/m*3 10.7 C 0 km/h
47 26-10-2020 03:50:00 10.7 C 9.33 g/m*3 10.7 C 0 km/h
48 26-10-2020 03:55:00 10.7 C 9.33 g/m*3 10.7 C 0 km/h
49 26-10-2020 04:00:00 10.7 C 9.33 g/m*3 10.7 C 0 km/h
50 26-10-2020 04:05:00 10.6 C 9.27 g/m*3 10.6 C 0 km/h
Sensor: Nr:Datum:Temp:Abs-Feuchte:Windchill:Wind:
Aussen-T/F 51 26-10-2020 04:10:00 10.6 C 9.27 g/m*3 10.6 C 0 km/h
52 26-10-2020 04:15:00 10.6 C 9.27 g/m*3 10.6 C 0 km/h
53 26-10-2020 04:20:00 10.6 C 9.27 g/m*3 10.6 C 0 km/h
54 26-10-2020 04:25:00 10.6 C 9.37 g/m*3 10.6 C 0 km/h
55 26-10-2020 04:30:00 10.6 C 9.37 g/m*3 10.6 C 0 km/h
56 26-10-2020 04:35:00 10.6 C 9.37 g/m*3 10.6 C 0 km/h
57 26-10-2020 04:40:00 10.6 C 9.37 g/m*3 10.6 C 1.6 km/h
58 26-10-2020 04:45:00 10.7 C 9.43 g/m*3 10.7 C 1.6 km/h
59 26-10-2020 04:50:00 10.7 C 9.43 g/m*3 10.7 C 0 km/h
60 26-10-2020 04:55:00 10.7 C 9.43 g/m*3 10.7 C 0 km/h
61 26-10-2020 05:00:00 10.7 C 9.43 g/m*3 10.7 C 0 km/h
62 26-10-2020 05:05:00 10.7 C 9.43 g/m*3 10.7 C 0 km/h
63 26-10-2020 05:10:00 10.7 C 9.43 g/m*3 10.7 C 0 km/h
64 26-10-2020 05:15:00 10.7 C 9.43 g/m*3 10.7 C 0 km/h
65 26-10-2020 05:20:00 10.7 C 9.43 g/m*3 10.7 C 0 km/h
66 26-10-2020 05:25:00 10.7 C 9.43 g/m*3 10.7 C 0 km/h
67 26-10-2020 05:30:00 10.7 C 9.43 g/m*3 10.7 C 0 km/h
68 26-10-2020 05:35:00 10.7 C 9.43 g/m*3 10.7 C 3.2 km/h
69 26-10-2020 05:40:00 10.7 C 9.43 g/m*3 10.7 C 1.6 km/h
70 26-10-2020 05:45:00 10.6 C 9.37 g/m*3 10.6 C 0 km/h
71 26-10-2020 05:50:00 10.6 C 9.37 g/m*3 10.6 C 1.6 km/h
72 26-10-2020 05:55:00 10.6 C 9.37 g/m*3 10.6 C 0 km/h
73 26-10-2020 06:00:00 10.6 C 9.37 g/m*3 10.6 C 3.2 km/h
74 26-10-2020 06:05:00 10.5 C 9.31 g/m*3 10.5 C 0 km/h
75 26-10-2020 06:10:00 10.5 C 9.31 g/m*3 10.5 C 1.6 km/h
Sensor: Nr:Datum:Temp:Abs-Feuchte:Windchill:Wind:
Aussen-T/F 76 26-10-2020 06:15:00 10.5 C 9.31 g/m*3 10.5 C 0 km/h
77 26-10-2020 06:20:00 10.4 C 9.25 g/m*3 10.4 C 0 km/h
78 26-10-2020 06:25:00 10.4 C 9.25 g/m*3 10.4 C 0 km/h
79 26-10-2020 06:30:00 10.4 C 9.25 g/m*3 10.4 C 0 km/h
80 26-10-2020 06:35:00 10.4 C 9.25 g/m*3 10.4 C 0 km/h
81 26-10-2020 06:40:00 10.4 C 9.25 g/m*3 10.4 C 0 km/h
82 26-10-2020 06:45:00 10.3 C 9.19 g/m*3 10.3 C 0 km/h
83 26-10-2020 06:50:00 10.3 C 9.19 g/m*3 10.3 C 4.8 km/h
84 26-10-2020 06:55:00 10.3 C 9.19 g/m*3 10.3 C 1.6 km/h
85 26-10-2020 07:00:00 10.3 C 9.19 g/m*3 10.3 C 1.6 km/h
86 26-10-2020 07:05:00 10.2 C 9.14 g/m*3 10.2 C 4.8 km/h
87 26-10-2020 07:10:00 10.2 C 9.14 g/m*3 10.2 C 0 km/h
88 26-10-2020 07:15:00 10.1 C 9.08 g/m*3 10.1 C 3.2 km/h
89 26-10-2020 07:20:00 10 C 9.02 g/m*3 9.37 C 6.4 km/h
90 26-10-2020 07:25:00 9.9 C 8.96 g/m*3 9.9 C 3.2 km/h
91 26-10-2020 07:30:00 9.9 C 8.96 g/m*3 9.9 C 1.6 km/h
92 26-10-2020 07:35:00 9.9 C 8.96 g/m*3 9.25 C 6.4 km/h
93 26-10-2020 07:40:00 9.9 C 8.96 g/m*3 9.25 C 6.4 km/h
94 26-10-2020 07:45:00 9.9 C 8.96 g/m*3 9.9 C 4.8 km/h
95 26-10-2020 07:50:00 9.8 C 8.91 g/m*3 8.75 C 8.1 km/h
96 26-10-2020 07:55:00 9.8 C 8.91 g/m*3 8.75 C 8.1 km/h
97 26-10-2020 08:00:00 9.8 C 8.91 g/m*3 8.75 C 8.1 km/h
98 26-10-2020 08:05:00 9.8 C 8.91 g/m*3 9.8 C 4.8 km/h
99 26-10-2020 08:10:00 9.8 C 8.91 g/m*3 9.8 C 3.2 km/h
100 26-10-2020 08:15:00 9.8 C 8.91 g/m*3 9.8 C 1.6 km/h
Sensor: Nr:Datum:Temp:Abs-Feuchte:Windchill:Wind:
Aussen-T/F 101 26-10-2020 08:20:00 9.8 C 8.91 g/m*3 9.8 C 1.6 km/h
102 26-10-2020 08:25:00 9.8 C 8.91 g/m*3 9.8 C 3.2 km/h
103 26-10-2020 08:30:00 9.8 C 8.91 g/m*3 9.14 C 6.4 km/h
104 26-10-2020 08:35:00 9.8 C 8.91 g/m*3 9.8 C 3.2 km/h
105 26-10-2020 08:40:00 9.8 C 8.91 g/m*3 9.14 C 6.4 km/h
106 26-10-2020 08:45:00 9.8 C 8.91 g/m*3 9.8 C 4.8 km/h
107 26-10-2020 08:50:00 9.8 C 8.81 g/m*3 9.8 C 3.2 km/h
108 26-10-2020 08:55:00 9.8 C 8.81 g/m*3 9.14 C 6.4 km/h
109 26-10-2020 09:00:00 9.8 C 8.81 g/m*3 9.8 C 3.2 km/h
110 26-10-2020 09:05:00 9.8 C 8.81 g/m*3 9.8 C 0 km/h
111 26-10-2020 09:10:00 9.8 C 8.81 g/m*3 9.8 C 1.6 km/h
112 26-10-2020 09:15:00 9.9 C 8.87 g/m*3 9.9 C 3.2 km/h
113 26-10-2020 09:20:00 9.9 C 8.87 g/m*3 9.9 C 0 km/h
114 26-10-2020 09:25:00 10 C 8.93 g/m*3 8.68 C 9.7 km/h
115 26-10-2020 09:30:00 10.1 C 8.89 g/m*3 10.1 C 4.8 km/h
116 26-10-2020 09:35:00 10.1 C 8.79 g/m*3 9.1 C 8.1 km/h
117 26-10-2020 09:40:00 10.1 C 8.79 g/m*3 9.1 C 8.1 km/h
118 26-10-2020 09:45:00 10.2 C 8.76 g/m*3 9.6 C 6.4 km/h
119 26-10-2020 09:50:00 10.2 C 8.76 g/m*3 10.2 C 3.2 km/h
120 26-10-2020 09:55:00 10.3 C 8.71 g/m*3 10.3 C 3.2 km/h
121 26-10-2020 10:00:00 10.4 C 8.67 g/m*3 8.9 C 11.3 km/h
122 26-10-2020 10:05:00 10.6 C 8.78 g/m*3 9.4 C 9.7 km/h
123 26-10-2020 10:10:00 10.7 C 8.84 g/m*3 10.18 C 6.4 km/h
124 26-10-2020 10:15:00 10.7 C 8.74 g/m*3 10.7 C 1.6 km/h
125 26-10-2020 10:20:00 10.7 C 8.74 g/m*3 10.7 C 4.8 km/h
Sensor: Nr:Datum:Temp:Abs-Feuchte:Windchill:Wind:
Aussen-T/F 126 26-10-2020 10:25:00 10.7 C 8.55 g/m*3 9.52 C 9.7 km/h
127 26-10-2020 10:30:00 10.8 C 8.7 g/m*3 9.93 C 8.1 km/h
128 26-10-2020 10:35:00 10.9 C 8.85 g/m*3 10.04 C 8.1 km/h
129 26-10-2020 10:40:00 11.1 C 8.76 g/m*3 11.1 C 9.7 km/h
130 26-10-2020 10:45:00 11.2 C 8.82 g/m*3 11.2 C 9.7 km/h
131 26-10-2020 10:50:00 11.3 C 8.87 g/m*3 11.3 C 3.2 km/h
132 26-10-2020 10:55:00 11.3 C 8.77 g/m*3 11.3 C 6.4 km/h
133 26-10-2020 11:00:00 11.4 C 8.72 g/m*3 11.4 C 8.1 km/h
134 26-10-2020 11:05:00 11.5 C 8.78 g/m*3 11.5 C 9.7 km/h
135 26-10-2020 11:10:00 11.6 C 8.83 g/m*3 11.6 C 4.8 km/h
136 26-10-2020 11:15:00 11.6 C 8.73 g/m*3 11.6 C 11.3 km/h
137 26-10-2020 11:20:00 11.6 C 8.73 g/m*3 11.6 C 4.8 km/h
138 26-10-2020 11:25:00 11.6 C 8.73 g/m*3 11.6 C 4.8 km/h
139 26-10-2020 11:30:00 11.7 C 8.79 g/m*3 11.7 C 4.8 km/h
140 26-10-2020 11:35:00 11.7 C 8.68 g/m*3 11.7 C 4.8 km/h
141 26-10-2020 11:40:00 11.7 C 8.68 g/m*3 11.7 C 6.4 km/h
142 26-10-2020 11:45:00 11.7 C 8.58 g/m*3 11.7 C 8.1 km/h
143 26-10-2020 11:50:00 11.6 C 8.52 g/m*3 11.6 C 8.1 km/h
144 26-10-2020 11:55:00 11.6 C 8.63 g/m*3 11.6 C 8.1 km/h
145 26-10-2020 12:00:00 11.6 C 8.63 g/m*3 11.6 C 6.4 km/h
146 26-10-2020 12:05:00 11.6 C 8.63 g/m*3 11.6 C 8.1 km/h
147 26-10-2020 12:10:00 11.7 C 8.47 g/m*3 11.7 C 11.3 km/h
148 26-10-2020 12:15:00 11.7 C 8.47 g/m*3 11.7 C 12.9 km/h
149 26-10-2020 12:20:00 11.7 C 8.37 g/m*3 11.7 C 9.7 km/h
150 26-10-2020 12:25:00 11.8 C 8.53 g/m*3 11.8 C 6.4 km/h
Sensor: Nr:Datum:Temp:Abs-Feuchte:Windchill:Wind:
Aussen-T/F 151 26-10-2020 12:30:00 11.8 C 8.31 g/m*3 11.8 C 14.5 km/h
152 26-10-2020 12:35:00 11.8 C 8.31 g/m*3 11.8 C 11.3 km/h
153 26-10-2020 12:40:00 11.8 C 8.31 g/m*3 11.8 C 12.9 km/h
154 26-10-2020 12:45:00 11.8 C 8.21 g/m*3 11.8 C 12.9 km/h
155 26-10-2020 12:50:00 11.9 C 8.37 g/m*3 11.9 C 8.1 km/h
156 26-10-2020 12:55:00 12 C 8.42 g/m*3 12 C 4.8 km/h
157 26-10-2020 13:00:00 12.1 C 8.47 g/m*3 12.1 C 8.1 km/h
158 26-10-2020 13:05:00 12.1 C 8.26 g/m*3 12.1 C 11.3 km/h
159 26-10-2020 13:10:00 12 C 8.21 g/m*3 12 C 14.5 km/h
160 26-10-2020 13:15:00 12 C 8.1 g/m*3 12 C 11.3 km/h
161 26-10-2020 13:20:00 12 C 8.1 g/m*3 12 C 8.1 km/h
162 26-10-2020 13:25:00 12 C 8.21 g/m*3 12 C 11.3 km/h
163 26-10-2020 13:30:00 11.9 C 8.05 g/m*3 11.9 C 8.1 km/h
164 26-10-2020 13:35:00 11.9 C 8.05 g/m*3 11.9 C 9.7 km/h
165 26-10-2020 13:40:00 11.9 C 8.05 g/m*3 11.9 C 9.7 km/h
166 26-10-2020 13:45:00 12 C 8.1 g/m*3 12 C 11.3 km/h
167 26-10-2020 13:50:00 12.1 C 8.15 g/m*3 12.1 C 4.8 km/h
168 26-10-2020 13:55:00 12.1 C 8.15 g/m*3 12.1 C 3.2 km/h
169 26-10-2020 14:00:00 12.2 C 8.09 g/m*3 12.2 C 9.7 km/h
170 26-10-2020 14:05:00 12.2 C 8.09 g/m*3 12.2 C 9.7 km/h
171 26-10-2020 14:10:00 12.2 C 7.99 g/m*3 12.2 C 8.1 km/h
172 26-10-2020 14:15:00 12.2 C 7.88 g/m*3 12.2 C 8.1 km/h
173 26-10-2020 14:20:00 12.2 C 7.99 g/m*3 12.2 C 8.1 km/h
174 26-10-2020 14:25:00 12.2 C 8.09 g/m*3 12.2 C 3.2 km/h
175 26-10-2020 14:30:00 12.2 C 7.88 g/m*3 12.2 C 9.7 km/h
Sensor: Nr:Datum:Temp:Abs-Feuchte:Windchill:Wind:
Aussen-T/F 176 26-10-2020 14:35:00 12.2 C 7.88 g/m*3 12.2 C 6.4 km/h
177 26-10-2020 14:40:00 12.2 C 7.77 g/m*3 12.2 C 8.1 km/h
178 26-10-2020 14:45:00 12.1 C 7.94 g/m*3 12.1 C 9.7 km/h
179 26-10-2020 14:50:00 12.1 C 7.83 g/m*3 12.1 C 6.4 km/h
180 26-10-2020 14:55:00 12.2 C 8.09 g/m*3 12.2 C 1.6 km/h
181 26-10-2020 15:00:00 12.2 C 7.88 g/m*3 12.2 C 4.8 km/h
182 26-10-2020 15:05:00 12.3 C 8.04 g/m*3 12.3 C 1.6 km/h
183 26-10-2020 15:10:00 12.3 C 7.93 g/m*3 12.3 C 8.1 km/h
184 26-10-2020 15:15:00 12.3 C 7.82 g/m*3 12.3 C 6.4 km/h
185 26-10-2020 15:20:00 12.3 C 7.93 g/m*3 12.3 C 3.2 km/h
186 26-10-2020 15:25:00 12.3 C 7.93 g/m*3 12.3 C 6.4 km/h
187 26-10-2020 15:30:00 12.3 C 7.93 g/m*3 12.3 C 8.1 km/h
188 26-10-2020 15:35:00 12.2 C 7.77 g/m*3 12.2 C 4.8 km/h
189 26-10-2020 15:40:00 12.2 C 7.77 g/m*3 12.2 C 6.4 km/h
190 26-10-2020 15:45:00 12.2 C 7.99 g/m*3 12.2 C 6.4 km/h
191 26-10-2020 15:50:00 12.1 C 7.83 g/m*3 12.1 C 8.1 km/h
192 26-10-2020 15:55:00 12.1 C 7.94 g/m*3 12.1 C 3.2 km/h
193 26-10-2020 16:00:00 12.1 C 8.04 g/m*3 12.1 C 3.2 km/h
194 26-10-2020 16:05:00 12.1 C 7.94 g/m*3 12.1 C 3.2 km/h
195 26-10-2020 16:10:00 12.1 C 7.83 g/m*3 12.1 C 9.7 km/h
196 26-10-2020 16:15:00 12.1 C 8.04 g/m*3 12.1 C 4.8 km/h
197 26-10-2020 16:20:00 12.1 C 8.15 g/m*3 12.1 C 3.2 km/h
198 26-10-2020 16:25:00 12.1 C 8.04 g/m*3 12.1 C 3.2 km/h
199 26-10-2020 16:30:00 12.2 C 8.2 g/m*3 12.2 C 3.2 km/h
200 26-10-2020 16:35:00 12.2 C 8.42 g/m*3 12.2 C 3.2 km/h
Sensor: Nr:Datum:Temp:Abs-Feuchte:Windchill:Wind:
Aussen-T/F 201 26-10-2020 16:40:00 12.2 C 8.2 g/m*3 12.2 C 4.8 km/h
202 26-10-2020 16:45:00 12 C 8.1 g/m*3 12 C 4.8 km/h
203 26-10-2020 16:50:00 11.8 C 8.1 g/m*3 11.8 C 1.6 km/h
204 26-10-2020 16:55:00 11.6 C 8 g/m*3 11.6 C 1.6 km/h
205 26-10-2020 17:00:00 11.4 C 8.01 g/m*3 11.4 C 1.6 km/h
206 26-10-2020 17:05:00 11.2 C 8.01 g/m*3 11.2 C 3.2 km/h
207 26-10-2020 17:10:00 11 C 8.01 g/m*3 11 C 3.2 km/h
208 26-10-2020 17:15:00 10.8 C 8.01 g/m*3 10.8 C 0 km/h
209 26-10-2020 17:20:00 10.7 C 7.96 g/m*3 10.7 C 0 km/h
210 26-10-2020 17:25:00 10.5 C 7.86 g/m*3 10.5 C 0 km/h
211 26-10-2020 17:30:00 10.3 C 7.85 g/m*3 10.3 C 4.8 km/h
212 26-10-2020 17:35:00 10.2 C 7.9 g/m*3 10.2 C 3.2 km/h
213 26-10-2020 17:40:00 10.1 C 7.85 g/m*3 10.1 C 4.8 km/h
214 26-10-2020 17:45:00 9.8 C 7.79 g/m*3 9.8 C 0 km/h
215 26-10-2020 17:50:00 9.7 C 7.74 g/m*3 9.7 C 4.8 km/h
216 26-10-2020 17:55:00 9.6 C 7.79 g/m*3 9.6 C 3.2 km/h
217 26-10-2020 18:00:00 9.4 C 7.69 g/m*3 9.4 C 4.8 km/h
218 26-10-2020 18:05:00 9.2 C 7.68 g/m*3 9.2 C 1.6 km/h
219 26-10-2020 18:10:00 9.1 C 7.63 g/m*3 9.1 C 1.6 km/h
220 26-10-2020 18:15:00 8.9 C 7.53 g/m*3 8.9 C 3.2 km/h
221 26-10-2020 18:20:00 8.8 C 7.49 g/m*3 8.8 C 4.8 km/h
222 26-10-2020 18:25:00 8.6 C 7.39 g/m*3 8.6 C 4.8 km/h
223 26-10-2020 18:30:00 8.6 C 7.48 g/m*3 7.75 C 6.4 km/h
224 26-10-2020 18:35:00 8.4 C 7.38 g/m*3 7.52 C 6.4 km/h
225 26-10-2020 18:40:00 8.3 C 7.33 g/m*3 8.3 C 3.2 km/h
Sensor: Nr:Datum:Temp:Abs-Feuchte:Windchill:Wind:
Aussen-T/F 226 26-10-2020 18:45:00 8.2 C 7.29 g/m*3 8.2 C 4.8 km/h
227 26-10-2020 18:50:00 8.1 C 7.32 g/m*3 8.1 C 3.2 km/h
228 26-10-2020 18:55:00 7.9 C 7.23 g/m*3 7.9 C 4.8 km/h
229 26-10-2020 19:00:00 7.9 C 7.23 g/m*3 7.9 C 3.2 km/h
230 26-10-2020 19:05:00 7.8 C 7.26 g/m*3 7.8 C 3.2 km/h
231 26-10-2020 19:10:00 7.8 C 7.35 g/m*3 7.8 C 0 km/h
232 26-10-2020 19:15:00 7.8 C 7.35 g/m*3 7.8 C 3.2 km/h
233 26-10-2020 19:20:00 7.8 C 7.35 g/m*3 7.8 C 3.2 km/h
234 26-10-2020 19:25:00 7.7 C 7.3 g/m*3 7.7 C 0 km/h
235 26-10-2020 19:30:00 7.7 C 7.3 g/m*3 7.7 C 1.6 km/h
236 26-10-2020 19:35:00 7.6 C 7.25 g/m*3 7.6 C 3.2 km/h
237 26-10-2020 19:40:00 7.6 C 7.25 g/m*3 6.6 C 6.4 km/h
238 26-10-2020 19:45:00 7.6 C 7.33 g/m*3 7.6 C 3.2 km/h
239 26-10-2020 19:50:00 7.5 C 7.28 g/m*3 7.5 C 0 km/h
240 26-10-2020 19:55:00 7.4 C 7.24 g/m*3 7.4 C 0 km/h
241 26-10-2020 20:00:00 7.4 C 7.24 g/m*3 7.4 C 0 km/h
242 26-10-2020 20:05:00 7.4 C 7.24 g/m*3 7.4 C 3.2 km/h
243 26-10-2020 20:10:00 7.5 C 7.28 g/m*3 7.5 C 0 km/h
244 26-10-2020 20:15:00 7.5 C 7.28 g/m*3 7.5 C 1.6 km/h
245 26-10-2020 20:20:00 7.5 C 7.28 g/m*3 7.5 C 0 km/h
246 26-10-2020 20:25:00 7.5 C 7.28 g/m*3 7.5 C 3.2 km/h
247 26-10-2020 20:30:00 7.6 C 7.33 g/m*3 7.6 C 1.6 km/h
248 26-10-2020 20:35:00 7.6 C 7.33 g/m*3 7.6 C 4.8 km/h
249 26-10-2020 20:40:00 7.7 C 7.38 g/m*3 7.7 C 3.2 km/h
250 26-10-2020 20:45:00 7.8 C 7.43 g/m*3 7.8 C 1.6 km/h
Sensor: Nr:Datum:Temp:Abs-Feuchte:Windchill:Wind:
Aussen-T/F 251 26-10-2020 20:50:00 7.9 C 7.39 g/m*3 7.9 C 1.6 km/h
252 26-10-2020 20:55:00 8.1 C 7.49 g/m*3 8.1 C 3.2 km/h
253 26-10-2020 21:00:00 8.1 C 7.49 g/m*3 8.1 C 3.2 km/h
254 26-10-2020 21:05:00 8.2 C 7.54 g/m*3 8.2 C 1.6 km/h
255 26-10-2020 21:10:00 8.3 C 7.5 g/m*3 8.3 C 4.8 km/h
256 26-10-2020 21:15:00 8.3 C 7.5 g/m*3 6.99 C 8.1 km/h
257 26-10-2020 21:20:00 8.4 C 7.47 g/m*3 8.4 C 3.2 km/h
258 26-10-2020 21:25:00 8.3 C 7.42 g/m*3 8.3 C 1.6 km/h
259 26-10-2020 21:30:00 8.3 C 7.42 g/m*3 8.3 C 1.6 km/h
260 26-10-2020 21:35:00 8.2 C 7.37 g/m*3 8.2 C 0 km/h
261 26-10-2020 21:40:00 8 C 7.28 g/m*3 8 C 3.2 km/h
262 26-10-2020 21:45:00 7.9 C 7.31 g/m*3 7.9 C 3.2 km/h
263 26-10-2020 21:50:00 7.8 C 7.26 g/m*3 7.8 C 3.2 km/h
264 26-10-2020 21:55:00 7.7 C 7.22 g/m*3 7.7 C 3.2 km/h
265 26-10-2020 22:00:00 7.7 C 7.22 g/m*3 7.7 C 3.2 km/h
266 26-10-2020 22:05:00 7.7 C 7.3 g/m*3 7.7 C 0 km/h
267 26-10-2020 22:10:00 7.7 C 7.3 g/m*3 7.7 C 3.2 km/h
268 26-10-2020 22:15:00 7.8 C 7.35 g/m*3 7.8 C 0 km/h
269 26-10-2020 22:20:00 7.8 C 7.35 g/m*3 7.8 C 1.6 km/h
270 26-10-2020 22:25:00 7.8 C 7.35 g/m*3 7.8 C 1.6 km/h
271 26-10-2020 22:30:00 7.8 C 7.35 g/m*3 7.8 C 1.6 km/h
272 26-10-2020 22:35:00 7.8 C 7.43 g/m*3 7.8 C 1.6 km/h
273 26-10-2020 22:40:00 7.8 C 7.43 g/m*3 7.8 C 1.6 km/h
274 26-10-2020 22:45:00 7.8 C 7.35 g/m*3 7.8 C 1.6 km/h
275 26-10-2020 22:50:00 7.8 C 7.43 g/m*3 7.8 C 3.2 km/h
Sensor: Nr:Datum:Temp:Abs-Feuchte:Windchill:Wind:
Aussen-T/F 276 26-10-2020 22:55:00 7.8 C 7.43 g/m*3 7.8 C 4.8 km/h
277 26-10-2020 23:00:00 7.8 C 7.43 g/m*3 7.8 C 3.2 km/h
278 26-10-2020 23:05:00 7.7 C 7.38 g/m*3 7.7 C 1.6 km/h
279 26-10-2020 23:10:00 7.7 C 7.38 g/m*3 7.7 C 1.6 km/h
280 26-10-2020 23:15:00 7.7 C 7.38 g/m*3 7.7 C 3.2 km/h
281 26-10-2020 23:20:00 7.7 C 7.38 g/m*3 7.7 C 3.2 km/h
282 26-10-2020 23:25:00 7.7 C 7.38 g/m*3 7.7 C 1.6 km/h
283 26-10-2020 23:30:00 7.7 C 7.38 g/m*3 7.7 C 0 km/h
284 26-10-2020 23:35:00 7.6 C 7.33 g/m*3 7.6 C 4.8 km/h
285 26-10-2020 23:40:00 7.6 C 7.33 g/m*3 7.6 C 0 km/h
286 26-10-2020 23:45:00 7.6 C 7.33 g/m*3 7.6 C 1.6 km/h
287 26-10-2020 23:50:00 7.6 C 7.41 g/m*3 6.16 C 8.1 km/h
288 26-10-2020 23:55:00 7.6 C 7.41 g/m*3 7.6 C 1.6 km/h
289 27-10-2020 00:00:00 7.6 C 7.41 g/m*3 7.6 C 1.6 km/h
290 27-10-2020 00:05:00 7.6 C 7.41 g/m*3 7.6 C 3.2 km/h
291 27-10-2020 00:10:00 7.6 C 7.41 g/m*3 7.6 C 3.2 km/h
292 27-10-2020 00:15:00 7.6 C 7.41 g/m*3 6.6 C 6.4 km/h
293 27-10-2020 00:20:00 7.8 C 7.51 g/m*3 5.77 C 11.3 km/h
294 27-10-2020 00:25:00 8 C 7.61 g/m*3 6.01 C 11.3 km/h
295 27-10-2020 00:30:00 8 C 7.52 g/m*3 8 C 3.2 km/h
296 27-10-2020 00:35:00 8 C 7.52 g/m*3 8 C 1.6 km/h
297 27-10-2020 00:40:00 8 C 7.52 g/m*3 8 C 1.6 km/h
298 27-10-2020 00:45:00 7.9 C 7.47 g/m*3 7.9 C 1.6 km/h
299 27-10-2020 00:50:00 8 C 7.52 g/m*3 8 C 1.6 km/h
300 27-10-2020 00:55:00 7.9 C 7.39 g/m*3 7.9 C 1.6 km/h
Sensor: Nr:Datum:Temp:Abs-Feuchte:Windchill:Wind:
Aussen-T/F 301 27-10-2020 01:00:00 7.8 C 7.35 g/m*3 7.8 C 0 km/h
302 27-10-2020 01:05:00 7.9 C 7.47 g/m*3 7.9 C 3.2 km/h
303 27-10-2020 01:10:00 8 C 7.61 g/m*3 8 C 1.6 km/h
304 27-10-2020 01:15:00 8.1 C 7.66 g/m*3 8.1 C 1.6 km/h
305 27-10-2020 01:20:00 8.2 C 7.7 g/m*3 8.2 C 0 km/h
306 27-10-2020 01:25:00 8.3 C 7.75 g/m*3 8.3 C 0 km/h
307 27-10-2020 01:30:00 8.4 C 7.8 g/m*3 8.4 C 0 km/h
308 27-10-2020 01:35:00 8.5 C 7.85 g/m*3 8.5 C 1.6 km/h
309 27-10-2020 01:40:00 8.6 C 7.82 g/m*3 8.6 C 4.8 km/h
310 27-10-2020 01:45:00 8.8 C 7.92 g/m*3 8.8 C 3.2 km/h
311 27-10-2020 01:50:00 8.9 C 7.88 g/m*3 7.69 C 8.1 km/h
312 27-10-2020 01:55:00 9.2 C 7.95 g/m*3 9.2 C 4.8 km/h
313 27-10-2020 02:00:00 9.3 C 7.91 g/m*3 9.3 C 3.2 km/h
314 27-10-2020 02:05:00 9.3 C 7.91 g/m*3 9.3 C 3.2 km/h
315 27-10-2020 02:10:00 9.4 C 7.96 g/m*3 9.4 C 1.6 km/h
316 27-10-2020 02:15:00 9.4 C 7.87 g/m*3 8.68 C 6.4 km/h
317 27-10-2020 02:20:00 9.5 C 7.92 g/m*3 9.5 C 0 km/h
318 27-10-2020 02:25:00 9.4 C 7.87 g/m*3 9.4 C 4.8 km/h
319 27-10-2020 02:30:00 9.4 C 7.87 g/m*3 9.4 C 4.8 km/h
320 27-10-2020 02:35:00 9.4 C 7.87 g/m*3 9.4 C 3.2 km/h
321 27-10-2020 02:40:00 9.4 C 7.87 g/m*3 8.68 C 6.4 km/h
322 27-10-2020 02:45:00 9.3 C 7.82 g/m*3 9.3 C 3.2 km/h
323 27-10-2020 02:50:00 9.2 C 7.77 g/m*3 9.2 C 1.6 km/h
324 27-10-2020 02:55:00 9 C 7.76 g/m*3 9 C 3.2 km/h
325 27-10-2020 03:00:00 8.9 C 7.71 g/m*3 8.9 C 0 km/h
Sensor: Nr:Datum:Temp:Abs-Feuchte:Windchill:Wind:
Aussen-T/F 326 27-10-2020 03:05:00 8.8 C 7.75 g/m*3 8.8 C 3.2 km/h
327 27-10-2020 03:10:00 8.8 C 7.75 g/m*3 7.58 C 8.1 km/h
328 27-10-2020 03:15:00 8.9 C 7.88 g/m*3 8.9 C 4.8 km/h
329 27-10-2020 03:20:00 9 C 7.93 g/m*3 8.21 C 6.4 km/h
330 27-10-2020 03:25:00 9.1 C 7.9 g/m*3 9.1 C 4.8 km/h
331 27-10-2020 03:30:00 9.1 C 7.9 g/m*3 9.1 C 4.8 km/h
332 27-10-2020 03:35:00 9 C 7.76 g/m*3 9 C 1.6 km/h
333 27-10-2020 03:40:00 8.9 C 7.71 g/m*3 8.9 C 1.6 km/h
334 27-10-2020 03:45:00 8.8 C 7.75 g/m*3 8.8 C 3.2 km/h
335 27-10-2020 03:50:00 8.8 C 7.75 g/m*3 8.8 C 3.2 km/h
336 27-10-2020 03:55:00 8.8 C 7.83 g/m*3 8.8 C 0 km/h
337 27-10-2020 04:00:00 8.8 C 7.83 g/m*3 8.8 C 1.6 km/h
338 27-10-2020 04:05:00 8.8 C 7.83 g/m*3 8.8 C 3.2 km/h
339 27-10-2020 04:10:00 8.9 C 7.88 g/m*3 8.9 C 0 km/h
340 27-10-2020 04:15:00 8.9 C 7.88 g/m*3 8.9 C 3.2 km/h
341 27-10-2020 04:20:00 8.9 C 7.88 g/m*3 8.9 C 1.6 km/h
342 27-10-2020 04:25:00 8.9 C 7.88 g/m*3 8.9 C 1.6 km/h
343 27-10-2020 04:30:00 8.9 C 7.88 g/m*3 8.9 C 1.6 km/h
344 27-10-2020 04:35:00 8.9 C 7.88 g/m*3 8.9 C 3.2 km/h
345 27-10-2020 04:40:00 8.8 C 7.83 g/m*3 8.8 C 3.2 km/h
346 27-10-2020 04:45:00 8.8 C 7.83 g/m*3 8.8 C 3.2 km/h
347 27-10-2020 04:50:00 8.8 C 7.83 g/m*3 8.8 C 3.2 km/h
348 27-10-2020 04:55:00 8.7 C 7.78 g/m*3 8.7 C 3.2 km/h
349 27-10-2020 05:00:00 8.7 C 7.78 g/m*3 8.7 C 1.6 km/h
350 27-10-2020 05:05:00 8.6 C 7.73 g/m*3 8.6 C 0 km/h
Sensor: Nr:Datum:Temp:Abs-Feuchte:Windchill:Wind:
Aussen-T/F 351 27-10-2020 05:10:00 8.6 C 7.73 g/m*3 8.6 C 1.6 km/h
352 27-10-2020 05:15:00 8.6 C 7.82 g/m*3 7.75 C 6.4 km/h
353 27-10-2020 05:20:00 8.7 C 7.87 g/m*3 8.7 C 1.6 km/h
354 27-10-2020 05:25:00 8.8 C 8.01 g/m*3 8.8 C 4.8 km/h
355 27-10-2020 05:30:00 8.8 C 7.92 g/m*3 8.8 C 0 km/h
356 27-10-2020 05:35:00 8.8 C 7.92 g/m*3 8.8 C 0 km/h
357 27-10-2020 05:40:00 8.7 C 7.87 g/m*3 8.7 C 3.2 km/h
358 27-10-2020 05:45:00 8.6 C 7.82 g/m*3 8.6 C 1.6 km/h
359 27-10-2020 05:50:00 8.4 C 7.72 g/m*3 7.52 C 6.4 km/h
360 27-10-2020 05:55:00 8.4 C 7.72 g/m*3 8.4 C 1.6 km/h
361 27-10-2020 06:00:00 8.3 C 7.67 g/m*3 8.3 C 1.6 km/h
362 27-10-2020 06:05:00 8.1 C 7.57 g/m*3 8.1 C 0 km/h
363 27-10-2020 06:10:00 8 C 7.52 g/m*3 8 C 3.2 km/h
364 27-10-2020 06:15:00 7.9 C 7.47 g/m*3 7.9 C 0 km/h
365 27-10-2020 06:20:00 7.8 C 7.43 g/m*3 7.8 C 1.6 km/h
366 27-10-2020 06:25:00 7.8 C 7.51 g/m*3 7.8 C 3.2 km/h
367 27-10-2020 06:30:00 7.7 C 7.46 g/m*3 7.7 C 1.6 km/h
368 27-10-2020 06:35:00 7.6 C 7.41 g/m*3 7.6 C 4.8 km/h
369 27-10-2020 06:40:00 7.6 C 7.49 g/m*3 7.6 C 3.2 km/h
370 27-10-2020 06:45:00 7.7 C 7.54 g/m*3 7.7 C 1.6 km/h
371 27-10-2020 06:50:00 7.7 C 7.54 g/m*3 7.7 C 1.6 km/h
372 27-10-2020 06:55:00 7.6 C 7.49 g/m*3 7.6 C 3.2 km/h
373 27-10-2020 07:00:00 7.6 C 7.49 g/m*3 7.6 C 1.6 km/h
374 27-10-2020 07:05:00 7.6 C 7.49 g/m*3 7.6 C 1.6 km/h
375 27-10-2020 07:10:00 7.4 C 7.4 g/m*3 7.4 C 3.2 km/h
Sensor: Nr:Datum:Temp:Abs-Feuchte:Windchill:Wind:
Aussen-T/F 376 27-10-2020 07:15:00 7.4 C 7.4 g/m*3 7.4 C 0 km/h
377 27-10-2020 07:20:00 7.4 C 7.4 g/m*3 7.4 C 0 km/h
378 27-10-2020 07:25:00 7.6 C 7.57 g/m*3 7.6 C 0 km/h
379 27-10-2020 07:30:00 7.7 C 7.62 g/m*3 7.7 C 0 km/h
380 27-10-2020 07:35:00 7.8 C 7.67 g/m*3 7.8 C 1.6 km/h
381 27-10-2020 07:40:00 7.9 C 7.72 g/m*3 7.9 C 1.6 km/h
382 27-10-2020 07:45:00 8.1 C 7.82 g/m*3 8.1 C 3.2 km/h
383 27-10-2020 07:50:00 8.2 C 7.87 g/m*3 8.2 C 0 km/h
384 27-10-2020 07:55:00 8.3 C 7.92 g/m*3 8.3 C 0 km/h
385 27-10-2020 08:00:00 8.4 C 7.97 g/m*3 8.4 C 0 km/h
386 27-10-2020 08:05:00 8.6 C 8.08 g/m*3 8.6 C 1.6 km/h
387 27-10-2020 08:10:00 8.7 C 8.13 g/m*3 8.7 C 0 km/h
388 27-10-2020 08:15:00 8.7 C 8.13 g/m*3 8.7 C 0 km/h
389 27-10-2020 08:20:00 8.8 C 8.18 g/m*3 8.8 C 4.8 km/h
390 27-10-2020 08:25:00 8.9 C 8.15 g/m*3 8.9 C 1.6 km/h
391 27-10-2020 08:30:00 9.1 C 8.25 g/m*3 9.1 C 4.8 km/h
392 27-10-2020 08:35:00 9.2 C 8.3 g/m*3 9.2 C 3.2 km/h
393 27-10-2020 08:40:00 9.3 C 8.27 g/m*3 9.3 C 1.6 km/h
394 27-10-2020 08:45:00 9.5 C 8.28 g/m*3 9.5 C 1.6 km/h
395 27-10-2020 08:50:00 9.6 C 8.34 g/m*3 9.6 C 0 km/h
396 27-10-2020 08:55:00 9.7 C 8.3 g/m*3 9.7 C 0 km/h
397 27-10-2020 09:00:00 9.8 C 8.35 g/m*3 9.14 C 6.4 km/h
398 27-10-2020 09:05:00 9.9 C 8.31 g/m*3 9.9 C 0 km/h
399 27-10-2020 09:10:00 10 C 8.36 g/m*3 10 C 0 km/h
400 27-10-2020 09:15:00 10.1 C 8.42 g/m*3 10.1 C 0 km/h
Sensor: Nr:Datum:Temp:Abs-Feuchte:Windchill:Wind:
Aussen-T/F 401 27-10-2020 09:20:00 10.2 C 8.37 g/m*3 10.2 C 1.6 km/h
402 27-10-2020 09:25:00 10.3 C 8.43 g/m*3 10.3 C 4.8 km/h
403 27-10-2020 09:30:00 10.4 C 8.38 g/m*3 10.4 C 1.6 km/h
404 27-10-2020 09:35:00 10.6 C 8.49 g/m*3 10.6 C 1.6 km/h
405 27-10-2020 09:40:00 10.7 C 8.45 g/m*3 10.7 C 0 km/h
406 27-10-2020 09:45:00 10.7 C 8.35 g/m*3 10.7 C 4.8 km/h
407 27-10-2020 09:50:00 10.9 C 8.55 g/m*3 10.9 C 1.6 km/h
408 27-10-2020 09:55:00 11 C 8.51 g/m*3 11 C 4.8 km/h
409 27-10-2020 10:00:00 11.1 C 8.56 g/m*3 11.1 C 6.4 km/h
410 27-10-2020 10:05:00 11.2 C 8.51 g/m*3 11.2 C 12.9 km/h
411 27-10-2020 10:10:00 11.3 C 8.57 g/m*3 11.3 C 12.9 km/h
412 27-10-2020 10:15:00 11.3 C 8.57 g/m*3 11.3 C 4.8 km/h
413 27-10-2020 10:20:00 11.3 C 8.57 g/m*3 11.3 C 8.1 km/h
414 27-10-2020 10:25:00 11.4 C 8.52 g/m*3 11.4 C 9.7 km/h
415 27-10-2020 10:30:00 11.4 C 8.52 g/m*3 11.4 C 9.7 km/h
416 27-10-2020 10:35:00 11.5 C 8.57 g/m*3 11.5 C 11.3 km/h
417 27-10-2020 10:40:00 11.6 C 8.63 g/m*3 11.6 C 8.1 km/h
418 27-10-2020 10:45:00 11.6 C 8.52 g/m*3 11.6 C 9.7 km/h
419 27-10-2020 10:50:00 11.5 C 8.57 g/m*3 11.5 C 11.3 km/h
420 27-10-2020 10:55:00 11.5 C 8.57 g/m*3 11.5 C 3.2 km/h
421 27-10-2020 11:00:00 11.6 C 8.52 g/m*3 11.6 C 6.4 km/h
422 27-10-2020 11:05:00 11.6 C 8.52 g/m*3 11.6 C 4.8 km/h
423 27-10-2020 11:10:00 11.6 C 8.52 g/m*3 11.6 C 6.4 km/h
424 27-10-2020 11:15:00 11.7 C 8.58 g/m*3 11.7 C 11.3 km/h
425 27-10-2020 11:20:00 11.8 C 8.53 g/m*3 11.8 C 14.5 km/h
Sensor: Nr:Datum:Temp:Abs-Feuchte:Windchill:Wind:
Aussen-T/F 426 27-10-2020 11:25:00 11.9 C 8.47 g/m*3 11.9 C 14.5 km/h
427 27-10-2020 11:30:00 12 C 8.63 g/m*3 12 C 12.9 km/h
428 27-10-2020 11:35:00 12.1 C 8.58 g/m*3 12.1 C 9.7 km/h
429 27-10-2020 11:40:00 12.1 C 8.47 g/m*3 12.1 C 11.3 km/h
430 27-10-2020 11:45:00 12.1 C 8.36 g/m*3 12.1 C 17.7 km/h
431 27-10-2020 11:50:00 12.1 C 8.36 g/m*3 12.1 C 17.7 km/h
432 27-10-2020 11:55:00 12.1 C 8.36 g/m*3 12.1 C 12.9 km/h
433 27-10-2020 12:00:00 12.1 C 8.36 g/m*3 12.1 C 12.9 km/h
434 27-10-2020 12:05:00 12 C 8.31 g/m*3 12 C 12.9 km/h
435 27-10-2020 12:10:00 12.1 C 8.36 g/m*3 12.1 C 6.4 km/h
436 27-10-2020 12:15:00 12.2 C 8.42 g/m*3 12.2 C 14.5 km/h
437 27-10-2020 12:20:00 12.3 C 8.36 g/m*3 12.3 C 11.3 km/h
438 27-10-2020 12:25:00 12.4 C 8.3 g/m*3 12.4 C 17.7 km/h
439 27-10-2020 12:30:00 12.3 C 8.25 g/m*3 12.3 C 16.1 km/h
440 27-10-2020 12:35:00 12.3 C 8.36 g/m*3 12.3 C 16.1 km/h
441 27-10-2020 12:40:00 12.3 C 8.36 g/m*3 12.3 C 17.7 km/h
442 27-10-2020 12:45:00 12.3 C 8.47 g/m*3 12.3 C 12.9 km/h
443 27-10-2020 12:50:00 12.3 C 8.36 g/m*3 12.3 C 8.1 km/h
444 27-10-2020 12:55:00 12.4 C 8.41 g/m*3 12.4 C 11.3 km/h
445 27-10-2020 13:00:00 12.4 C 8.3 g/m*3 12.4 C 9.7 km/h
446 27-10-2020 13:05:00 12.4 C 8.3 g/m*3 12.4 C 16.1 km/h
447 27-10-2020 13:10:00 12.4 C 8.3 g/m*3 12.4 C 9.7 km/h
448 27-10-2020 13:15:00 12.5 C 8.25 g/m*3 12.5 C 11.3 km/h
449 27-10-2020 13:20:00 12.5 C 8.36 g/m*3 12.5 C 9.7 km/h
450 27-10-2020 13:25:00 12.6 C 8.3 g/m*3 12.6 C 11.3 km/h
Sensor: Nr:Datum:Temp:Abs-Feuchte:Windchill:Wind:
Aussen-T/F 451 27-10-2020 13:30:00 12.6 C 8.3 g/m*3 12.6 C 9.7 km/h
452 27-10-2020 13:35:00 12.7 C 8.46 g/m*3 12.7 C 11.3 km/h
453 27-10-2020 13:40:00 12.7 C 8.24 g/m*3 12.7 C 12.9 km/h
454 27-10-2020 13:45:00 12.8 C 8.18 g/m*3 12.8 C 9.7 km/h
455 27-10-2020 13:50:00 12.9 C 8.23 g/m*3 12.9 C 12.9 km/h
456 27-10-2020 13:55:00 13 C 8.28 g/m*3 13 C 16.1 km/h
457 27-10-2020 14:00:00 13 C 8.17 g/m*3 13 C 14.5 km/h
458 27-10-2020 14:05:00 12.9 C 8.34 g/m*3 12.9 C 11.3 km/h
459 27-10-2020 14:10:00 12.9 C 8.23 g/m*3 12.9 C 12.9 km/h
460 27-10-2020 14:15:00 12.9 C 8.23 g/m*3 12.9 C 6.4 km/h
461 27-10-2020 14:20:00 12.9 C 8.34 g/m*3 12.9 C 11.3 km/h
462 27-10-2020 14:25:00 12.9 C 8.11 g/m*3 12.9 C 8.1 km/h
463 27-10-2020 14:30:00 12.9 C 8.23 g/m*3 12.9 C 6.4 km/h
464 27-10-2020 14:35:00 12.8 C 8.06 g/m*3 12.8 C 6.4 km/h
465 27-10-2020 14:40:00 12.8 C 8.06 g/m*3 12.8 C 9.7 km/h
466 27-10-2020 14:45:00 12.8 C 8.18 g/m*3 12.8 C 8.1 km/h
467 27-10-2020 14:50:00 12.8 C 8.06 g/m*3 12.8 C 9.7 km/h
468 27-10-2020 14:55:00 12.7 C 7.9 g/m*3 12.7 C 11.3 km/h
469 27-10-2020 15:00:00 12.7 C 7.9 g/m*3 12.7 C 11.3 km/h
470 27-10-2020 15:05:00 12.7 C 7.9 g/m*3 12.7 C 8.1 km/h
471 27-10-2020 15:10:00 12.7 C 7.79 g/m*3 12.7 C 12.9 km/h
472 27-10-2020 15:15:00 12.7 C 7.79 g/m*3 12.7 C 9.7 km/h
473 27-10-2020 15:20:00 12.6 C 7.74 g/m*3 12.6 C 11.3 km/h
474 27-10-2020 15:25:00 12.6 C 7.74 g/m*3 12.6 C 11.3 km/h
475 27-10-2020 15:30:00 12.7 C 7.9 g/m*3 12.7 C 9.7 km/h
Sensor: Nr:Datum:Temp:Abs-Feuchte:Windchill:Wind:
Aussen-T/F 476 27-10-2020 15:35:00 12.7 C 7.9 g/m*3 12.7 C 4.8 km/h
477 27-10-2020 15:40:00 12.7 C 7.9 g/m*3 12.7 C 8.1 km/h
478 27-10-2020 15:45:00 12.7 C 7.79 g/m*3 12.7 C 6.4 km/h
479 27-10-2020 15:50:00 12.7 C 7.9 g/m*3 12.7 C 8.1 km/h
480 27-10-2020 15:55:00 12.6 C 7.85 g/m*3 12.6 C 8.1 km/h
481 27-10-2020 16:00:00 12.5 C 7.92 g/m*3 12.5 C 6.4 km/h
482 27-10-2020 16:05:00 12.4 C 7.87 g/m*3 12.4 C 8.1 km/h
483 27-10-2020 16:10:00 12.4 C 7.98 g/m*3 12.4 C 6.4 km/h
484 27-10-2020 16:15:00 12.3 C 7.71 g/m*3 12.3 C 6.4 km/h
485 27-10-2020 16:20:00 12.3 C 7.82 g/m*3 12.3 C 4.8 km/h
486 27-10-2020 16:25:00 12.3 C 7.82 g/m*3 12.3 C 12.9 km/h
487 27-10-2020 16:30:00 12.2 C 7.77 g/m*3 12.2 C 8.1 km/h
488 27-10-2020 16:35:00 12.2 C 7.88 g/m*3 12.2 C 0 km/h
489 27-10-2020 16:40:00 12.1 C 7.83 g/m*3 12.1 C 4.8 km/h
490 27-10-2020 16:45:00 12 C 7.67 g/m*3 12 C 6.4 km/h
491 27-10-2020 16:50:00 12 C 7.89 g/m*3 12 C 1.6 km/h
492 27-10-2020 16:55:00 11.9 C 8.05 g/m*3 11.9 C 0 km/h
493 27-10-2020 17:00:00 11.8 C 8 g/m*3 11.8 C 0 km/h
494 27-10-2020 17:05:00 11.6 C 7.9 g/m*3 11.6 C 3.2 km/h
495 27-10-2020 17:10:00 11.4 C 7.7 g/m*3 11.4 C 6.4 km/h
496 27-10-2020 17:15:00 11.4 C 7.7 g/m*3 11.4 C 1.6 km/h
497 27-10-2020 17:20:00 11.4 C 7.9 g/m*3 11.4 C 0 km/h
498 27-10-2020 17:25:00 11.4 C 8.01 g/m*3 11.4 C 1.6 km/h
499 27-10-2020 17:30:00 11.3 C 7.96 g/m*3 11.3 C 0 km/h
500 27-10-2020 17:35:00 11.1 C 7.96 g/m*3 11.1 C 0 km/h
Sensor: Nr:Datum:Temp:Abs-Feuchte:Windchill:Wind:
Aussen-T/F 501 27-10-2020 17:40:00 10.9 C 7.86 g/m*3 10.9 C 0 km/h
502 27-10-2020 17:45:00 10.8 C 7.71 g/m*3 10.29 C 6.4 km/h
503 27-10-2020 17:50:00 10.8 C 7.81 g/m*3 10.8 C 0 km/h
504 27-10-2020 17:55:00 10.7 C 7.76 g/m*3 10.7 C 0 km/h
505 27-10-2020 18:00:00 10.6 C 7.91 g/m*3 10.6 C 0 km/h
506 27-10-2020 18:05:00 10.5 C 7.86 g/m*3 10.5 C 0 km/h
507 27-10-2020 18:10:00 10.4 C 7.81 g/m*3 10.4 C 0 km/h
508 27-10-2020 18:15:00 10.4 C 7.81 g/m*3 10.4 C 0 km/h
509 27-10-2020 18:20:00 10.4 C 7.9 g/m*3 10.4 C 0 km/h
510 27-10-2020 18:25:00 10.4 C 7.71 g/m*3 9.16 C 9.7 km/h
511 27-10-2020 18:30:00 10.7 C 7.76 g/m*3 10.7 C 3.2 km/h
512 27-10-2020 18:35:00 10.8 C 7.81 g/m*3 10.8 C 1.6 km/h
513 27-10-2020 18:40:00 10.8 C 7.71 g/m*3 10.8 C 3.2 km/h
514 27-10-2020 18:45:00 10.9 C 7.66 g/m*3 10.9 C 4.8 km/h
515 27-10-2020 18:50:00 11 C 7.71 g/m*3 11 C 4.8 km/h
516 27-10-2020 18:55:00 11.1 C 7.76 g/m*3 11.1 C 4.8 km/h
517 27-10-2020 19:00:00 11.2 C 7.8 g/m*3 11.2 C 4.8 km/h
518 27-10-2020 19:05:00 11.2 C 7.8 g/m*3 11.2 C 4.8 km/h
519 27-10-2020 19:10:00 11.2 C 7.7 g/m*3 11.2 C 6.4 km/h
520 27-10-2020 19:15:00 11.3 C 7.75 g/m*3 11.3 C 3.2 km/h
521 27-10-2020 19:20:00 11.3 C 7.75 g/m*3 11.3 C 3.2 km/h
522 27-10-2020 19:25:00 11.3 C 7.75 g/m*3 11.3 C 9.7 km/h
523 27-10-2020 19:30:00 11.3 C 7.75 g/m*3 11.3 C 11.3 km/h
524 27-10-2020 19:35:00 11.3 C 7.75 g/m*3 11.3 C 4.8 km/h
525 27-10-2020 19:40:00 11.3 C 7.85 g/m*3 11.3 C 1.6 km/h
Sensor: Nr:Datum:Temp:Abs-Feuchte:Windchill:Wind:
Aussen-T/F 526 27-10-2020 19:45:00 11.2 C 7.8 g/m*3 11.2 C 4.8 km/h
527 27-10-2020 19:50:00 11.2 C 7.8 g/m*3 11.2 C 4.8 km/h
528 27-10-2020 19:55:00 11.3 C 7.85 g/m*3 11.3 C 8.1 km/h
529 27-10-2020 20:00:00 11.3 C 7.85 g/m*3 11.3 C 8.1 km/h
530 27-10-2020 20:05:00 11.3 C 7.85 g/m*3 11.3 C 6.4 km/h
531 27-10-2020 20:10:00 11.3 C 7.85 g/m*3 11.3 C 3.2 km/h
532 27-10-2020 20:15:00 11.4 C 7.9 g/m*3 11.4 C 1.6 km/h
533 27-10-2020 20:20:00 11.3 C 7.96 g/m*3 11.3 C 1.6 km/h
534 27-10-2020 20:25:00 11.3 C 7.85 g/m*3 11.3 C 4.8 km/h
535 27-10-2020 20:30:00 11.3 C 7.85 g/m*3 11.3 C 3.2 km/h
536 27-10-2020 20:35:00 11.3 C 7.85 g/m*3 11.3 C 9.7 km/h
537 27-10-2020 20:40:00 11.3 C 7.96 g/m*3 11.3 C 3.2 km/h
538 27-10-2020 20:45:00 11.3 C 7.96 g/m*3 11.3 C 8.1 km/h
539 27-10-2020 20:50:00 11.3 C 7.96 g/m*3 11.3 C 8.1 km/h
540 27-10-2020 20:55:00 11.2 C 8.01 g/m*3 11.2 C 6.4 km/h
541 27-10-2020 21:00:00 11.2 C 8.01 g/m*3 11.2 C 0 km/h
542 27-10-2020 21:05:00 11.2 C 8.11 g/m*3 11.2 C 0 km/h
543 27-10-2020 21:10:00 11.1 C 8.06 g/m*3 11.1 C 3.2 km/h
544 27-10-2020 21:15:00 11.1 C 8.16 g/m*3 11.1 C 4.8 km/h
545 27-10-2020 21:20:00 11 C 8.11 g/m*3 11 C 3.2 km/h
546 27-10-2020 21:25:00 10.9 C 7.96 g/m*3 10.9 C 1.6 km/h
547 27-10-2020 21:30:00 11 C 8.01 g/m*3 11 C 1.6 km/h
548 27-10-2020 21:35:00 11 C 8.01 g/m*3 11 C 4.8 km/h
549 27-10-2020 21:40:00 11 C 8.11 g/m*3 11 C 1.6 km/h
550 27-10-2020 21:45:00 11 C 8.11 g/m*3 11 C 0 km/h
Sensor: Nr:Datum:Temp:Abs-Feuchte:Windchill:Wind:
Aussen-T/F 551 27-10-2020 21:50:00 11.1 C 8.16 g/m*3 11.1 C 3.2 km/h
552 27-10-2020 21:55:00 11 C 8.11 g/m*3 11 C 4.8 km/h
553 27-10-2020 22:00:00 11 C 8.11 g/m*3 11 C 0 km/h
554 27-10-2020 22:05:00 11 C 8.11 g/m*3 11 C 1.6 km/h
555 27-10-2020 22:10:00 11 C 8.11 g/m*3 11 C 1.6 km/h
556 27-10-2020 22:15:00 11 C 8.11 g/m*3 11 C 0 km/h
557 27-10-2020 22:20:00 11 C 8.21 g/m*3 10.52 C 6.4 km/h
558 27-10-2020 22:25:00 11.1 C 8.26 g/m*3 11.1 C 0 km/h
559 27-10-2020 22:30:00 11.1 C 8.26 g/m*3 11.1 C 0 km/h
560 27-10-2020 22:35:00 11.1 C 8.36 g/m*3 11.1 C 1.6 km/h
561 27-10-2020 22:40:00 11.1 C 8.26 g/m*3 11.1 C 3.2 km/h
562 27-10-2020 22:45:00 11.1 C 8.36 g/m*3 11.1 C 0 km/h
563 27-10-2020 22:50:00 11.1 C 8.36 g/m*3 11.1 C 0 km/h
564 27-10-2020 22:55:00 11.1 C 8.26 g/m*3 11.1 C 3.2 km/h
565 27-10-2020 23:00:00 11.2 C 8.41 g/m*3 11.2 C 1.6 km/h
566 27-10-2020 23:05:00 11.2 C 8.41 g/m*3 11.2 C 6.4 km/h
567 27-10-2020 23:10:00 11.2 C 8.31 g/m*3 11.2 C 1.6 km/h
568 27-10-2020 23:15:00 11.3 C 8.36 g/m*3 11.3 C 1.6 km/h
569 27-10-2020 23:20:00 11.3 C 8.47 g/m*3 11.3 C 1.6 km/h
570 27-10-2020 23:25:00 11.4 C 8.52 g/m*3 11.4 C 0 km/h
571 27-10-2020 23:30:00 11.3 C 8.47 g/m*3 11.3 C 0 km/h
572 27-10-2020 23:35:00 11.3 C 8.57 g/m*3 11.3 C 0 km/h
573 27-10-2020 23:40:00 11.3 C 8.57 g/m*3 11.3 C 0 km/h
574 27-10-2020 23:45:00 11.3 C 8.57 g/m*3 11.3 C 1.6 km/h
575 27-10-2020 23:50:00 11.3 C 8.57 g/m*3 11.3 C 1.6 km/h
Sensor: Nr:Datum:Temp:Abs-Feuchte:Windchill:Wind:
Aussen-T/F 576 27-10-2020 23:55:00 11.3 C 8.57 g/m*3 11.3 C 3.2 km/h
577 28-10-2020 00:00:00 11.4 C 8.62 g/m*3 11.4 C 3.2 km/h
578 28-10-2020 00:05:00 11.5 C 8.68 g/m*3 11.5 C 4.8 km/h
579 28-10-2020 00:10:00 11.6 C 8.73 g/m*3 11.6 C 3.2 km/h
580 28-10-2020 00:15:00 11.6 C 8.73 g/m*3 11.6 C 1.6 km/h
581 28-10-2020 00:20:00 11.6 C 8.73 g/m*3 11.6 C 1.6 km/h
582 28-10-2020 00:25:00 11.6 C 8.73 g/m*3 11.6 C 0 km/h
583 28-10-2020 00:30:00 11.6 C 8.73 g/m*3 11.6 C 3.2 km/h
584 28-10-2020 00:35:00 11.7 C 8.79 g/m*3 11.7 C 6.4 km/h
585 28-10-2020 00:40:00 11.7 C 8.79 g/m*3 11.7 C 6.4 km/h
586 28-10-2020 00:45:00 11.7 C 8.79 g/m*3 11.7 C 0 km/h
587 28-10-2020 00:50:00 11.7 C 8.79 g/m*3 11.7 C 4.8 km/h
588 28-10-2020 00:55:00 11.7 C 8.79 g/m*3 11.7 C 1.6 km/h
589 28-10-2020 01:00:00 11.7 C 8.79 g/m*3 11.7 C 0 km/h
590 28-10-2020 01:05:00 11.7 C 8.79 g/m*3 11.7 C 3.2 km/h
591 28-10-2020 01:10:00 11.7 C 8.89 g/m*3 11.7 C 3.2 km/h
592 28-10-2020 01:15:00 11.7 C 8.89 g/m*3 11.7 C 1.6 km/h
593 28-10-2020 01:20:00 11.7 C 8.89 g/m*3 11.7 C 3.2 km/h
594 28-10-2020 01:25:00 11.7 C 8.89 g/m*3 11.7 C 1.6 km/h
595 28-10-2020 01:30:00 11.7 C 8.89 g/m*3 11.7 C 3.2 km/h
596 28-10-2020 01:35:00 11.7 C 8.89 g/m*3 11.7 C 6.4 km/h
597 28-10-2020 01:40:00 11.7 C 8.99 g/m*3 11.7 C 1.6 km/h
598 28-10-2020 01:45:00 11.7 C 8.99 g/m*3 11.7 C 4.8 km/h
599 28-10-2020 01:50:00 11.7 C 8.99 g/m*3 11.7 C 0 km/h
600 28-10-2020 01:55:00 11.7 C 8.99 g/m*3 11.7 C 3.2 km/h
Sensor: Nr:Datum:Temp:Abs-Feuchte:Windchill:Wind:
Aussen-T/F 601 28-10-2020 02:00:00 11.7 C 8.99 g/m*3 11.7 C 1.6 km/h
602 28-10-2020 02:05:00 11.7 C 8.99 g/m*3 11.7 C 4.8 km/h
603 28-10-2020 02:10:00 11.8 C 9.05 g/m*3 11.8 C 3.2 km/h
604 28-10-2020 02:15:00 11.8 C 9.05 g/m*3 11.8 C 1.6 km/h
605 28-10-2020 02:20:00 11.8 C 9.05 g/m*3 11.8 C 1.6 km/h
606 28-10-2020 02:25:00 11.8 C 9.05 g/m*3 11.8 C 0 km/h
607 28-10-2020 02:30:00 11.8 C 9.16 g/m*3 11.8 C 0 km/h
608 28-10-2020 02:35:00 11.8 C 9.16 g/m*3 11.8 C 3.2 km/h
609 28-10-2020 02:40:00 11.9 C 9.21 g/m*3 11.9 C 1.6 km/h
610 28-10-2020 02:45:00 11.9 C 9.21 g/m*3 11.9 C 4.8 km/h
611 28-10-2020 02:50:00 11.9 C 9.21 g/m*3 11.9 C 1.6 km/h
612 28-10-2020 02:55:00 11.9 C 9.21 g/m*3 11.9 C 4.8 km/h
613 28-10-2020 03:00:00 11.9 C 9.32 g/m*3 11.9 C 3.2 km/h
614 28-10-2020 03:05:00 11.9 C 9.32 g/m*3 11.9 C 0 km/h
615 28-10-2020 03:10:00 11.9 C 9.32 g/m*3 11.9 C 0 km/h
616 28-10-2020 03:15:00 11.9 C 9.32 g/m*3 11.9 C 0 km/h
617 28-10-2020 03:20:00 11.9 C 9.32 g/m*3 11.9 C 0 km/h
618 28-10-2020 03:25:00 11.8 C 9.26 g/m*3 11.8 C 0 km/h
619 28-10-2020 03:30:00 11.8 C 9.37 g/m*3 11.8 C 3.2 km/h
620 28-10-2020 03:35:00 11.8 C 9.37 g/m*3 11.8 C 0 km/h
621 28-10-2020 03:40:00 11.8 C 9.37 g/m*3 11.8 C 0 km/h
622 28-10-2020 03:45:00 11.8 C 9.37 g/m*3 11.8 C 0 km/h
623 28-10-2020 03:50:00 11.8 C 9.37 g/m*3 11.8 C 0 km/h
624 28-10-2020 03:55:00 11.8 C 9.37 g/m*3 11.8 C 0 km/h
625 28-10-2020 04:00:00 11.8 C 9.37 g/m*3 11.8 C 0 km/h
Sensor: Nr:Datum:Temp:Abs-Feuchte:Windchill:Wind:
Aussen-T/F 626 28-10-2020 04:05:00 11.8 C 9.37 g/m*3 11.8 C 0 km/h
627 28-10-2020 04:10:00 11.7 C 9.41 g/m*3 11.7 C 0 km/h
628 28-10-2020 04:15:00 11.8 C 9.47 g/m*3 11.8 C 0 km/h
629 28-10-2020 04:20:00 11.8 C 9.47 g/m*3 11.8 C 0 km/h
630 28-10-2020 04:25:00 11.8 C 9.58 g/m*3 11.8 C 0 km/h
631 28-10-2020 04:30:00 11.8 C 9.58 g/m*3 11.8 C 0 km/h
632 28-10-2020 04:35:00 11.8 C 9.58 g/m*3 11.8 C 0 km/h
633 28-10-2020 04:40:00 11.7 C 9.52 g/m*3 11.7 C 0 km/h
634 28-10-2020 04:45:00 11.7 C 9.52 g/m*3 11.7 C 0 km/h
635 28-10-2020 04:50:00 11.7 C 9.52 g/m*3 11.7 C 1.6 km/h
636 28-10-2020 04:55:00 11.7 C 9.62 g/m*3 11.7 C 4.8 km/h
637 28-10-2020 05:00:00 11.7 C 9.62 g/m*3 11.7 C 0 km/h
638 28-10-2020 05:05:00 11.7 C 9.62 g/m*3 11.7 C 0 km/h
639 28-10-2020 05:10:00 11.7 C 9.73 g/m*3 11.7 C 0 km/h
640 28-10-2020 05:15:00 11.7 C 9.73 g/m*3 11.7 C 0 km/h
641 28-10-2020 05:20:00 11.7 C 9.73 g/m*3 11.7 C 0 km/h
642 28-10-2020 05:25:00 11.7 C 9.73 g/m*3 11.7 C 0 km/h
643 28-10-2020 05:30:00 11.7 C 9.73 g/m*3 11.7 C 0 km/h
644 28-10-2020 05:35:00 11.7 C 9.73 g/m*3 11.7 C 0 km/h
645 28-10-2020 05:40:00 11.7 C 9.73 g/m*3 11.7 C 0 km/h
646 28-10-2020 05:45:00 11.7 C 9.73 g/m*3 11.7 C 0 km/h
647 28-10-2020 05:50:00 11.7 C 9.73 g/m*3 11.7 C 0 km/h
648 28-10-2020 05:55:00 11.7 C 9.73 g/m*3 11.7 C 0 km/h
649 28-10-2020 06:00:00 11.7 C 9.83 g/m*3 11.7 C 0 km/h
650 28-10-2020 06:05:00 11.7 C 9.83 g/m*3 11.7 C 0 km/h
Sensor: Nr:Datum:Temp:Abs-Feuchte:Windchill:Wind:
Aussen-T/F 651 28-10-2020 06:10:00 11.6 C 9.77 g/m*3 11.6 C 3.2 km/h
652 28-10-2020 06:15:00 11.6 C 9.77 g/m*3 11.6 C 0 km/h
653 28-10-2020 06:20:00 11.6 C 9.77 g/m*3 11.6 C 1.6 km/h
654 28-10-2020 06:25:00 11.6 C 9.77 g/m*3 11.6 C 0 km/h
655 28-10-2020 06:30:00 11.5 C 9.71 g/m*3 11.5 C 0 km/h
656 28-10-2020 06:35:00 11.4 C 9.65 g/m*3 11.4 C 0 km/h
657 28-10-2020 06:40:00 11.4 C 9.65 g/m*3 11.4 C 0 km/h
658 28-10-2020 06:45:00 11.4 C 9.65 g/m*3 11.4 C 1.6 km/h
659 28-10-2020 06:50:00 11.4 C 9.65 g/m*3 11.4 C 1.6 km/h
660 28-10-2020 06:55:00 11.3 C 9.59 g/m*3 11.3 C 1.6 km/h
661 28-10-2020 07:00:00 11.3 C 9.59 g/m*3 11.3 C 3.2 km/h
662 28-10-2020 07:05:00 11.3 C 9.69 g/m*3 11.3 C 1.6 km/h
663 28-10-2020 07:10:00 11.3 C 9.69 g/m*3 11.3 C 1.6 km/h
664 28-10-2020 07:15:00 11.3 C 9.59 g/m*3 11.3 C 1.6 km/h
665 28-10-2020 07:20:00 11.3 C 9.59 g/m*3 11.3 C 0 km/h
666 28-10-2020 07:25:00 11.3 C 9.59 g/m*3 11.3 C 1.6 km/h
667 28-10-2020 07:30:00 11.2 C 9.53 g/m*3 11.2 C 0 km/h
668 28-10-2020 07:35:00 11.2 C 9.63 g/m*3 11.2 C 0 km/h
669 28-10-2020 07:40:00 11.2 C 9.63 g/m*3 11.2 C 3.2 km/h
670 28-10-2020 07:45:00 11.2 C 9.63 g/m*3 11.2 C 3.2 km/h
671 28-10-2020 07:50:00 11.3 C 9.69 g/m*3 11.3 C 0 km/h
672 28-10-2020 07:55:00 11.3 C 9.69 g/m*3 11.3 C 0 km/h
673 28-10-2020 08:00:00 11.3 C 9.69 g/m*3 11.3 C 0 km/h
674 28-10-2020 08:05:00 11.3 C 9.69 g/m*3 11.3 C 0 km/h
675 28-10-2020 08:10:00 11.3 C 9.69 g/m*3 11.3 C 1.6 km/h
Sensor: Nr:Datum:Temp:Abs-Feuchte:Windchill:Wind:
Aussen-T/F 676 28-10-2020 08:15:00 11.4 C 9.75 g/m*3 11.4 C 1.6 km/h
677 28-10-2020 08:20:00 11.4 C 9.75 g/m*3 11.4 C 0 km/h
678 28-10-2020 08:25:00 11.4 C 9.75 g/m*3 11.4 C 0 km/h
679 28-10-2020 08:30:00 11.5 C 9.92 g/m*3 11.5 C 0 km/h
680 28-10-2020 08:35:00 11.6 C 9.98 g/m*3 11.6 C 0 km/h
681 28-10-2020 08:40:00 11.6 C 9.98 g/m*3 11.6 C 0 km/h
682 28-10-2020 08:45:00 11.7 C 10.04 g/m*3 11.7 C 0 km/h
683 28-10-2020 08:50:00 11.8 C 10.1 g/m*3 11.8 C 0 km/h
684 28-10-2020 08:55:00 11.9 C 10.17 g/m*3 11.9 C 0 km/h
685 28-10-2020 09:00:00 12 C 10.23 g/m*3 12 C 0 km/h
686 28-10-2020 09:05:00 12.1 C 10.29 g/m*3 12.1 C 0 km/h
687 28-10-2020 09:10:00 12.2 C 10.36 g/m*3 12.2 C 0 km/h
688 28-10-2020 09:15:00 12.2 C 10.36 g/m*3 12.2 C 0 km/h
689 28-10-2020 09:20:00 12.3 C 10.42 g/m*3 12.3 C 0 km/h
690 28-10-2020 09:25:00 12.3 C 10.42 g/m*3 12.3 C 0 km/h
691 28-10-2020 09:30:00 12.3 C 10.42 g/m*3 12.3 C 0 km/h
692 28-10-2020 09:35:00 12.3 C 10.32 g/m*3 12.3 C 1.6 km/h
693 28-10-2020 09:40:00 12.4 C 10.38 g/m*3 12.4 C 0 km/h
694 28-10-2020 09:45:00 12.5 C 10.44 g/m*3 12.5 C 1.6 km/h
695 28-10-2020 09:50:00 12.5 C 10.44 g/m*3 12.5 C 0 km/h
696 28-10-2020 09:55:00 12.6 C 10.62 g/m*3 12.6 C 0 km/h
697 28-10-2020 10:00:00 12.7 C 10.69 g/m*3 12.7 C 0 km/h
698 28-10-2020 10:05:00 12.7 C 10.58 g/m*3 12.7 C 0 km/h
699 28-10-2020 10:10:00 12.6 C 10.51 g/m*3 12.6 C 4.8 km/h
700 28-10-2020 10:15:00 12.6 C 10.51 g/m*3 12.6 C 4.8 km/h
Sensor: Nr:Datum:Temp:Abs-Feuchte:Windchill:Wind:
Aussen-T/F 701 28-10-2020 10:20:00 12.5 C 10.33 g/m*3 12.5 C 4.8 km/h
702 28-10-2020 10:25:00 12.5 C 10.33 g/m*3 12.5 C 1.6 km/h
703 28-10-2020 10:30:00 12.6 C 10.4 g/m*3 12.6 C 3.2 km/h
704 28-10-2020 10:35:00 12.6 C 10.4 g/m*3 12.6 C 4.8 km/h
705 28-10-2020 10:40:00 12.7 C 10.46 g/m*3 12.7 C 0 km/h
706 28-10-2020 10:45:00 12.7 C 10.46 g/m*3 12.7 C 3.2 km/h
707 28-10-2020 10:50:00 12.7 C 10.46 g/m*3 12.7 C 4.8 km/h
708 28-10-2020 10:55:00 12.8 C 10.53 g/m*3 12.8 C 1.6 km/h
709 28-10-2020 11:00:00 12.8 C 10.53 g/m*3 12.8 C 11.3 km/h
710 28-10-2020 11:05:00 12.8 C 10.53 g/m*3 12.8 C 3.2 km/h
711 28-10-2020 11:10:00 13 C 10.66 g/m*3 13 C 3.2 km/h
712 28-10-2020 11:15:00 13.1 C 10.61 g/m*3 13.1 C 6.4 km/h
713 28-10-2020 11:20:00 13.1 C 10.61 g/m*3 13.1 C 4.8 km/h
714 28-10-2020 11:25:00 13.3 C 10.74 g/m*3 13.3 C 4.8 km/h
715 28-10-2020 11:30:00 13.3 C 10.51 g/m*3 13.3 C 11.3 km/h
716 28-10-2020 11:35:00 13.5 C 10.76 g/m*3 13.5 C 3.2 km/h
717 28-10-2020 11:40:00 13.6 C 10.83 g/m*3 13.6 C 9.7 km/h
718 28-10-2020 11:45:00 13.7 C 10.66 g/m*3 13.7 C 14.5 km/h
719 28-10-2020 11:50:00 13.8 C 10.48 g/m*3 13.8 C 14.5 km/h
720 28-10-2020 11:55:00 13.9 C 10.55 g/m*3 13.9 C 11.3 km/h
721 28-10-2020 12:00:00 14.1 C 10.56 g/m*3 14.1 C 9.7 km/h
722 28-10-2020 12:05:00 14.2 C 10.26 g/m*3 14.2 C 9.7 km/h
723 28-10-2020 12:10:00 14.3 C 10.44 g/m*3 14.3 C 16.1 km/h
724 28-10-2020 12:15:00 14.3 C 10.2 g/m*3 14.3 C 14.5 km/h
725 28-10-2020 12:20:00 14.3 C 10.2 g/m*3 14.3 C 12.9 km/h
Sensor: Nr:Datum:Temp:Abs-Feuchte:Windchill:Wind:
Aussen-T/F 726 28-10-2020 12:25:00 14.2 C 10.01 g/m*3 14.2 C 12.9 km/h
727 28-10-2020 12:30:00 14.3 C 10.07 g/m*3 14.3 C 12.9 km/h
728 28-10-2020 12:35:00 14.3 C 10.07 g/m*3 14.3 C 16.1 km/h
729 28-10-2020 12:40:00 14.3 C 9.95 g/m*3 14.3 C 16.1 km/h
730 28-10-2020 12:45:00 14.3 C 9.95 g/m*3 14.3 C 11.3 km/h
731 28-10-2020 12:50:00 14.2 C 9.65 g/m*3 14.2 C 11.3 km/h
732 28-10-2020 12:55:00 14.3 C 9.58 g/m*3 14.3 C 9.7 km/h
733 28-10-2020 13:00:00 14.2 C 9.28 g/m*3 14.2 C 16.1 km/h
734 28-10-2020 13:05:00 14.2 C 9.16 g/m*3 14.2 C 14.5 km/h
735 28-10-2020 13:10:00 14.2 C 9.04 g/m*3 14.2 C 17.7 km/h
736 28-10-2020 13:15:00 14.2 C 9.16 g/m*3 14.2 C 14.5 km/h
737 28-10-2020 13:20:00 14.2 C 9.28 g/m*3 14.2 C 12.9 km/h
738 28-10-2020 13:25:00 14.2 C 9.04 g/m*3 14.2 C 20.9 km/h
739 28-10-2020 13:30:00 14.2 C 9.04 g/m*3 14.2 C 20.9 km/h
740 28-10-2020 13:35:00 14.1 C 8.74 g/m*3 14.1 C 19.3 km/h
741 28-10-2020 13:40:00 14.1 C 8.74 g/m*3 14.1 C 19.3 km/h
742 28-10-2020 13:45:00 14 C 8.68 g/m*3 14 C 20.9 km/h
743 28-10-2020 13:50:00 13.9 C 8.63 g/m*3 13.9 C 12.9 km/h
744 28-10-2020 13:55:00 13.9 C 8.75 g/m*3 13.9 C 14.5 km/h
745 28-10-2020 14:00:00 13.9 C 8.87 g/m*3 13.9 C 16.1 km/h
746 28-10-2020 14:05:00 14.2 C 8.79 g/m*3 14.2 C 24.1 km/h
747 28-10-2020 14:10:00 14.3 C 8.72 g/m*3 14.3 C 19.3 km/h
748 28-10-2020 14:15:00 14.3 C 8.72 g/m*3 14.3 C 14.5 km/h
749 28-10-2020 14:20:00 14.2 C 8.67 g/m*3 14.2 C 9.7 km/h
750 28-10-2020 14:25:00 14 C 8.68 g/m*3 14 C 16.1 km/h
Sensor: Nr:Datum:Temp:Abs-Feuchte:Windchill:Wind:
Aussen-T/F 751 28-10-2020 14:30:00 14 C 8.56 g/m*3 14 C 20.9 km/h
752 28-10-2020 14:35:00 13.9 C 8.51 g/m*3 13.9 C 19.3 km/h
753 28-10-2020 14:40:00 13.9 C 8.39 g/m*3 13.9 C 16.1 km/h
754 28-10-2020 14:45:00 13.8 C 8.34 g/m*3 13.8 C 12.9 km/h
755 28-10-2020 14:50:00 13.7 C 8.29 g/m*3 13.7 C 17.7 km/h
756 28-10-2020 14:55:00 13.7 C 8.29 g/m*3 13.7 C 14.5 km/h
757 28-10-2020 15:00:00 13.6 C 8.24 g/m*3 13.6 C 11.3 km/h
758 28-10-2020 15:05:00 13.4 C 8.25 g/m*3 13.4 C 16.1 km/h
759 28-10-2020 15:10:00 13.4 C 8.37 g/m*3 13.4 C 11.3 km/h
760 28-10-2020 15:15:00 13.4 C 8.25 g/m*3 13.4 C 14.5 km/h
761 28-10-2020 15:20:00 13.4 C 8.25 g/m*3 13.4 C 12.9 km/h
762 28-10-2020 15:25:00 13.4 C 8.25 g/m*3 13.4 C 14.5 km/h
763 28-10-2020 15:30:00 13.5 C 8.3 g/m*3 13.5 C 11.3 km/h
764 28-10-2020 15:35:00 13.6 C 8.47 g/m*3 13.6 C 4.8 km/h
765 28-10-2020 15:40:00 13.6 C 8.36 g/m*3 13.6 C 8.1 km/h
766 28-10-2020 15:45:00 13.6 C 8.47 g/m*3 13.6 C 6.4 km/h
767 28-10-2020 15:50:00 13.6 C 8.47 g/m*3 13.6 C 9.7 km/h
768 28-10-2020 15:55:00 13.6 C 8.36 g/m*3 13.6 C 16.1 km/h
769 28-10-2020 16:00:00 13.6 C 8.47 g/m*3 13.6 C 14.5 km/h
770 28-10-2020 16:05:00 13.6 C 8.47 g/m*3 13.6 C 12.9 km/h
771 28-10-2020 16:10:00 13.5 C 8.42 g/m*3 13.5 C 17.7 km/h
772 28-10-2020 16:15:00 13.6 C 8.47 g/m*3 13.6 C 16.1 km/h
773 28-10-2020 16:20:00 13.6 C 8.47 g/m*3 13.6 C 12.9 km/h
774 28-10-2020 16:25:00 13.6 C 8.36 g/m*3 13.6 C 16.1 km/h
775 28-10-2020 16:30:00 13.6 C 8.59 g/m*3 13.6 C 11.3 km/h
Sensor: Nr:Datum:Temp:Abs-Feuchte:Windchill:Wind:
Aussen-T/F 776 28-10-2020 16:35:00 13.5 C 8.54 g/m*3 13.5 C 3.2 km/h
777 28-10-2020 16:40:00 13.3 C 8.55 g/m*3 13.3 C 11.3 km/h
778 28-10-2020 16:45:00 13.2 C 8.5 g/m*3 13.2 C 8.1 km/h
779 28-10-2020 16:50:00 13.1 C 8.56 g/m*3 13.1 C 4.8 km/h
780 28-10-2020 16:55:00 13 C 8.39 g/m*3 13 C 9.7 km/h
781 28-10-2020 17:00:00 13 C 8.39 g/m*3 13 C 11.3 km/h
782 28-10-2020 17:05:00 13.1 C 8.56 g/m*3 13.1 C 9.7 km/h
783 28-10-2020 17:10:00 13.1 C 8.56 g/m*3 13.1 C 4.8 km/h
784 28-10-2020 17:15:00 13 C 8.51 g/m*3 13 C 3.2 km/h
785 28-10-2020 17:20:00 12.9 C 8.45 g/m*3 12.9 C 6.4 km/h
786 28-10-2020 17:25:00 12.9 C 8.34 g/m*3 12.9 C 8.1 km/h
787 28-10-2020 17:30:00 13 C 8.51 g/m*3 13 C 6.4 km/h
788 28-10-2020 17:35:00 12.9 C 8.45 g/m*3 12.9 C 8.1 km/h
789 28-10-2020 17:40:00 12.9 C 8.45 g/m*3 12.9 C 4.8 km/h
790 28-10-2020 17:45:00 12.9 C 8.57 g/m*3 12.9 C 4.8 km/h
791 28-10-2020 17:50:00 12.8 C 8.51 g/m*3 12.8 C 6.4 km/h
792 28-10-2020 17:55:00 12.8 C 8.51 g/m*3 12.8 C 4.8 km/h
793 28-10-2020 18:00:00 12.7 C 8.46 g/m*3 12.7 C 3.2 km/h
794 28-10-2020 18:05:00 12.7 C 8.46 g/m*3 12.7 C 4.8 km/h
795 28-10-2020 18:10:00 12.7 C 8.57 g/m*3 12.7 C 8.1 km/h
796 28-10-2020 18:15:00 12.7 C 8.46 g/m*3 12.7 C 6.4 km/h
797 28-10-2020 18:20:00 12.7 C 8.46 g/m*3 12.7 C 4.8 km/h
798 28-10-2020 18:25:00 12.7 C 8.35 g/m*3 12.7 C 6.4 km/h
799 28-10-2020 18:30:00 12.7 C 8.57 g/m*3 12.7 C 4.8 km/h
800 28-10-2020 18:35:00 12.6 C 8.52 g/m*3 12.6 C 3.2 km/h
Sensor: Nr:Datum:Temp:Abs-Feuchte:Windchill:Wind:
Aussen-T/F 801 28-10-2020 18:40:00 12.6 C 8.52 g/m*3 12.6 C 6.4 km/h
802 28-10-2020 18:45:00 12.4 C 8.3 g/m*3 12.4 C 8.1 km/h
803 28-10-2020 18:50:00 12.4 C 8.3 g/m*3 12.4 C 6.4 km/h
804 28-10-2020 18:55:00 12.5 C 8.36 g/m*3 12.5 C 4.8 km/h
805 28-10-2020 19:00:00 12.6 C 8.41 g/m*3 12.6 C 9.7 km/h
806 28-10-2020 19:05:00 12.7 C 8.35 g/m*3 12.7 C 4.8 km/h
807 28-10-2020 19:10:00 12.6 C 8.41 g/m*3 12.6 C 4.8 km/h
808 28-10-2020 19:15:00 12.6 C 8.41 g/m*3 12.6 C 4.8 km/h
809 28-10-2020 19:20:00 12.5 C 8.36 g/m*3 12.5 C 6.4 km/h
810 28-10-2020 19:25:00 12.6 C 8.41 g/m*3 12.6 C 9.7 km/h
811 28-10-2020 19:30:00 12.6 C 8.41 g/m*3 12.6 C 3.2 km/h
812 28-10-2020 19:35:00 12.6 C 8.41 g/m*3 12.6 C 4.8 km/h
813 28-10-2020 19:40:00 12.6 C 8.52 g/m*3 12.6 C 9.7 km/h
814 28-10-2020 19:45:00 12.7 C 8.46 g/m*3 12.7 C 11.3 km/h
815 28-10-2020 19:50:00 12.8 C 8.4 g/m*3 12.8 C 9.7 km/h
816 28-10-2020 19:55:00 12.9 C 8.45 g/m*3 12.9 C 6.4 km/h
817 28-10-2020 20:00:00 12.9 C 8.45 g/m*3 12.9 C 6.4 km/h
818 28-10-2020 20:05:00 12.8 C 8.4 g/m*3 12.8 C 12.9 km/h
819 28-10-2020 20:10:00 12.9 C 8.45 g/m*3 12.9 C 8.1 km/h
820 28-10-2020 20:15:00 13 C 8.39 g/m*3 13 C 12.9 km/h
821 28-10-2020 20:20:00 13.1 C 8.44 g/m*3 13.1 C 12.9 km/h
822 28-10-2020 20:25:00 13.1 C 8.44 g/m*3 13.1 C 9.7 km/h
823 28-10-2020 20:30:00 13.1 C 8.56 g/m*3 13.1 C 12.9 km/h
824 28-10-2020 20:35:00 13.2 C 8.61 g/m*3 13.2 C 17.7 km/h
825 28-10-2020 20:40:00 13.3 C 8.66 g/m*3 13.3 C 16.1 km/h
Sensor: Nr:Datum:Temp:Abs-Feuchte:Windchill:Wind:
Aussen-T/F 826 28-10-2020 20:45:00 13.3 C 8.66 g/m*3 13.3 C 9.7 km/h
827 28-10-2020 20:50:00 13.2 C 8.73 g/m*3 13.2 C 3.2 km/h
828 28-10-2020 20:55:00 13.1 C 8.67 g/m*3 13.1 C 4.8 km/h
829 28-10-2020 21:00:00 13.1 C 8.67 g/m*3 13.1 C 9.7 km/h
830 28-10-2020 21:05:00 13.1 C 8.67 g/m*3 13.1 C 11.3 km/h
831 28-10-2020 21:10:00 13.1 C 8.67 g/m*3 13.1 C 6.4 km/h
832 28-10-2020 21:15:00 13.1 C 8.67 g/m*3 13.1 C 9.7 km/h
833 28-10-2020 21:20:00 13 C 8.73 g/m*3 13 C 6.4 km/h
834 28-10-2020 21:25:00 12.9 C 8.57 g/m*3 12.9 C 14.5 km/h
835 28-10-2020 21:30:00 12.9 C 8.68 g/m*3 12.9 C 9.7 km/h
836 28-10-2020 21:35:00 12.9 C 8.79 g/m*3 12.9 C 6.4 km/h
837 28-10-2020 21:40:00 12.9 C 8.79 g/m*3 12.9 C 4.8 km/h
838 28-10-2020 21:45:00 12.8 C 8.74 g/m*3 12.8 C 1.6 km/h
839 28-10-2020 21:50:00 12.8 C 8.74 g/m*3 12.8 C 8.1 km/h
840 28-10-2020 21:55:00 12.7 C 8.68 g/m*3 12.7 C 8.1 km/h
841 28-10-2020 22:00:00 12.8 C 8.74 g/m*3 12.8 C 6.4 km/h
842 28-10-2020 22:05:00 12.8 C 8.85 g/m*3 12.8 C 4.8 km/h
843 28-10-2020 22:10:00 12.8 C 8.96 g/m*3 12.8 C 6.4 km/h
844 28-10-2020 22:15:00 12.7 C 8.91 g/m*3 12.7 C 3.2 km/h
845 28-10-2020 22:20:00 12.7 C 8.91 g/m*3 12.7 C 4.8 km/h
846 28-10-2020 22:25:00 12.7 C 8.91 g/m*3 12.7 C 12.9 km/h
847 28-10-2020 22:30:00 12.8 C 8.85 g/m*3 12.8 C 6.4 km/h
848 28-10-2020 22:35:00 12.8 C 8.96 g/m*3 12.8 C 4.8 km/h
849 28-10-2020 22:40:00 12.8 C 8.96 g/m*3 12.8 C 11.3 km/h
850 28-10-2020 22:45:00 12.9 C 8.9 g/m*3 12.9 C 12.9 km/h
Sensor: Nr:Datum:Temp:Abs-Feuchte:Windchill:Wind:
Aussen-T/F 851 28-10-2020 22:50:00 13 C 8.96 g/m*3 13 C 12.9 km/h
852 28-10-2020 22:55:00 13.1 C 9.01 g/m*3 13.1 C 17.7 km/h
853 28-10-2020 23:00:00 13.2 C 9.07 g/m*3 13.2 C 12.9 km/h
854 28-10-2020 23:05:00 13.1 C 9.01 g/m*3 13.1 C 14.5 km/h
855 28-10-2020 23:10:00 13.1 C 9.13 g/m*3 13.1 C 16.1 km/h
856 28-10-2020 23:15:00 13.1 C 9.13 g/m*3 13.1 C 19.3 km/h
857 28-10-2020 23:20:00 13.1 C 9.13 g/m*3 13.1 C 16.1 km/h
858 28-10-2020 23:25:00 13.1 C 9.13 g/m*3 13.1 C 12.9 km/h
859 28-10-2020 23:30:00 13.1 C 9.13 g/m*3 13.1 C 19.3 km/h
860 28-10-2020 23:35:00 12.9 C 9.13 g/m*3 12.9 C 11.3 km/h
861 28-10-2020 23:40:00 12.9 C 9.13 g/m*3 12.9 C 29 km/h
862 28-10-2020 23:45:00 12.8 C 9.07 g/m*3 12.8 C 14.5 km/h
863 28-10-2020 23:50:00 12.8 C 9.07 g/m*3 12.8 C 24.1 km/h
864 28-10-2020 23:55:00 12.7 C 9.13 g/m*3 12.7 C 19.3 km/h
865 29-10-2020 00:00:00 12.6 C 9.07 g/m*3 12.6 C 11.3 km/h
866 29-10-2020 00:05:00 12.6 C 9.07 g/m*3 12.6 C 20.9 km/h
867 29-10-2020 00:10:00 12.6 C 9.18 g/m*3 12.6 C 16.1 km/h
868 29-10-2020 00:15:00 12.5 C 9.13 g/m*3 12.5 C 14.5 km/h
869 29-10-2020 00:20:00 12.5 C 9.24 g/m*3 12.5 C 12.9 km/h
870 29-10-2020 00:25:00 12.4 C 9.18 g/m*3 12.4 C 16.1 km/h
871 29-10-2020 00:30:00 12.4 C 9.29 g/m*3 12.4 C 14.5 km/h
872 29-10-2020 00:35:00 12.4 C 9.29 g/m*3 12.4 C 12.9 km/h
873 29-10-2020 00:40:00 12.4 C 9.29 g/m*3 12.4 C 16.1 km/h
874 29-10-2020 00:45:00 12.4 C 9.4 g/m*3 12.4 C 22.5 km/h
875 29-10-2020 00:50:00 12.4 C 9.4 g/m*3 12.4 C 11.3 km/h
Sensor: Nr:Datum:Temp:Abs-Feuchte:Windchill:Wind:
Aussen-T/F 876 29-10-2020 00:55:00 12.4 C 9.4 g/m*3 12.4 C 11.3 km/h
877 29-10-2020 01:00:00 12.3 C 9.56 g/m*3 12.3 C 17.7 km/h
878 29-10-2020 01:05:00 11.9 C 9.32 g/m*3 11.9 C 24.1 km/h
879 29-10-2020 01:10:00 11.2 C 8.82 g/m*3 11.2 C 20.9 km/h
880 29-10-2020 01:15:00 10.7 C 8.64 g/m*3 9.04 C 12.9 km/h
881 29-10-2020 01:20:00 10.5 C 8.73 g/m*3 9.57 C 8.1 km/h
882 29-10-2020 01:25:00 10.3 C 8.71 g/m*3 9.72 C 6.4 km/h
883 29-10-2020 01:30:00 10.3 C 8.71 g/m*3 10.3 C 4.8 km/h
884 29-10-2020 01:35:00 10.2 C 8.76 g/m*3 8.92 C 9.7 km/h
885 29-10-2020 01:40:00 10.2 C 8.76 g/m*3 8.22 C 14.5 km/h
886 29-10-2020 01:45:00 10.1 C 8.61 g/m*3 8.1 C 14.5 km/h
887 29-10-2020 01:50:00 10 C 8.55 g/m*3 7.98 C 14.5 km/h
888 29-10-2020 01:55:00 9.9 C 8.5 g/m*3 8.56 C 9.7 km/h
889 29-10-2020 02:00:00 9.9 C 8.5 g/m*3 8.87 C 8.1 km/h
890 29-10-2020 02:05:00 9.9 C 8.5 g/m*3 8.56 C 9.7 km/h
891 29-10-2020 02:10:00 9.8 C 8.54 g/m*3 8.75 C 8.1 km/h
892 29-10-2020 02:15:00 9.8 C 8.54 g/m*3 8.75 C 8.1 km/h
893 29-10-2020 02:20:00 9.7 C 8.48 g/m*3 9.7 C 4.8 km/h
894 29-10-2020 02:25:00 9.7 C 8.48 g/m*3 9.02 C 6.4 km/h
895 29-10-2020 02:30:00 9.7 C 8.57 g/m*3 8.63 C 8.1 km/h
896 29-10-2020 02:35:00 9.8 C 8.63 g/m*3 9.14 C 6.4 km/h
897 29-10-2020 02:40:00 9.8 C 8.63 g/m*3 9.8 C 4.8 km/h
898 29-10-2020 02:45:00 9.8 C 8.63 g/m*3 9.8 C 3.2 km/h
899 29-10-2020 02:50:00 9.9 C 8.68 g/m*3 9.9 C 4.8 km/h
900 29-10-2020 02:55:00 9.9 C 8.78 g/m*3 8.87 C 8.1 km/h
Sensor: Nr:Datum:Temp:Abs-Feuchte:Windchill:Wind:
Aussen-T/F 901 29-10-2020 03:00:00 10 C 8.83 g/m*3 10 C 3.2 km/h
902 29-10-2020 03:05:00 10 C 8.83 g/m*3 10 C 4.8 km/h
903 29-10-2020 03:10:00 10.1 C 8.89 g/m*3 10.1 C 4.8 km/h
904 29-10-2020 03:15:00 10.1 C 8.89 g/m*3 9.1 C 8.1 km/h
905 29-10-2020 03:20:00 10.1 C 8.89 g/m*3 8.54 C 11.3 km/h
906 29-10-2020 03:25:00 10.1 C 8.79 g/m*3 8.54 C 11.3 km/h
907 29-10-2020 03:30:00 10.2 C 8.85 g/m*3 8.66 C 11.3 km/h
908 29-10-2020 03:35:00 10.3 C 8.81 g/m*3 8.55 C 12.9 km/h
909 29-10-2020 03:40:00 10.3 C 8.81 g/m*3 9.34 C 8.1 km/h
910 29-10-2020 03:45:00 10.3 C 8.81 g/m*3 8.78 C 11.3 km/h
911 29-10-2020 03:50:00 10.3 C 8.81 g/m*3 8.55 C 12.9 km/h
912 29-10-2020 03:55:00 10.3 C 8.81 g/m*3 8.78 C 11.3 km/h
913 29-10-2020 04:00:00 10.2 C 8.85 g/m*3 9.22 C 8.1 km/h
914 29-10-2020 04:05:00 10.2 C 8.76 g/m*3 9.22 C 8.1 km/h
915 29-10-2020 04:10:00 10.2 C 8.85 g/m*3 9.6 C 6.4 km/h
916 29-10-2020 04:15:00 10.2 C 8.85 g/m*3 10.2 C 4.8 km/h
917 29-10-2020 04:20:00 10.1 C 8.79 g/m*3 8.1 C 14.5 km/h
918 29-10-2020 04:25:00 10 C 8.74 g/m*3 8.99 C 8.1 km/h
919 29-10-2020 04:30:00 10 C 8.64 g/m*3 8.19 C 12.9 km/h
920 29-10-2020 04:35:00 10 C 8.64 g/m*3 8.68 C 9.7 km/h
921 29-10-2020 04:40:00 10 C 8.64 g/m*3 9.37 C 6.4 km/h
922 29-10-2020 04:45:00 10 C 8.64 g/m*3 9.37 C 6.4 km/h
923 29-10-2020 04:50:00 9.9 C 8.59 g/m*3 8.06 C 12.9 km/h
924 29-10-2020 04:55:00 9.9 C 8.59 g/m*3 8.87 C 8.1 km/h
925 29-10-2020 05:00:00 9.9 C 8.59 g/m*3 8.56 C 9.7 km/h
Sensor: Nr:Datum:Temp:Abs-Feuchte:Windchill:Wind:
Aussen-T/F 926 29-10-2020 05:05:00 9.9 C 8.59 g/m*3 7.85 C 14.5 km/h
927 29-10-2020 05:10:00 9.9 C 8.59 g/m*3 8.87 C 8.1 km/h
928 29-10-2020 05:15:00 9.8 C 8.54 g/m*3 8.45 C 9.7 km/h
929 29-10-2020 05:20:00 9.8 C 8.54 g/m*3 9.14 C 6.4 km/h
930 29-10-2020 05:25:00 9.8 C 8.54 g/m*3 7.73 C 14.5 km/h
931 29-10-2020 05:30:00 9.9 C 8.59 g/m*3 9.9 C 4.8 km/h
932 29-10-2020 05:35:00 9.9 C 8.59 g/m*3 8.87 C 8.1 km/h
933 29-10-2020 05:40:00 9.9 C 8.59 g/m*3 9.25 C 6.4 km/h
934 29-10-2020 05:45:00 9.8 C 8.54 g/m*3 8.18 C 11.3 km/h
935 29-10-2020 05:50:00 9.9 C 8.5 g/m*3 7.85 C 14.5 km/h
936 29-10-2020 05:55:00 10.1 C 8.61 g/m*3 8.54 C 11.3 km/h
937 29-10-2020 06:00:00 10.1 C 8.61 g/m*3 8.54 C 11.3 km/h
938 29-10-2020 06:05:00 10.1 C 8.51 g/m*3 8.54 C 11.3 km/h
939 29-10-2020 06:10:00 10.1 C 8.51 g/m*3 8.8 C 9.7 km/h
940 29-10-2020 06:15:00 10.1 C 8.51 g/m*3 8.54 C 11.3 km/h
941 29-10-2020 06:20:00 10.1 C 8.51 g/m*3 9.48 C 6.4 km/h
942 29-10-2020 06:25:00 10 C 8.46 g/m*3 8.42 C 11.3 km/h
943 29-10-2020 06:30:00 9.9 C 8.4 g/m*3 8.56 C 9.7 km/h
944 29-10-2020 06:35:00 9.9 C 8.4 g/m*3 8.3 C 11.3 km/h
945 29-10-2020 06:40:00 9.8 C 8.35 g/m*3 8.45 C 9.7 km/h
946 29-10-2020 06:45:00 9.8 C 8.26 g/m*3 7.94 C 12.9 km/h
947 29-10-2020 06:50:00 9.8 C 8.16 g/m*3 9.14 C 6.4 km/h
948 29-10-2020 06:55:00 9.8 C 8.16 g/m*3 9.14 C 6.4 km/h
949 29-10-2020 07:00:00 9.7 C 8.11 g/m*3 8.33 C 9.7 km/h
950 29-10-2020 07:05:00 9.7 C 8.11 g/m*3 8.33 C 9.7 km/h
Sensor: Nr:Datum:Temp:Abs-Feuchte:Windchill:Wind:
Aussen-T/F 951 29-10-2020 07:10:00 9.6 C 8.06 g/m*3 9.6 C 4.8 km/h
952 29-10-2020 07:15:00 9.5 C 7.92 g/m*3 8.79 C 6.4 km/h
953 29-10-2020 07:20:00 9.4 C 7.96 g/m*3 7.46 C 12.9 km/h
954 29-10-2020 07:25:00 9.3 C 7.91 g/m*3 9.3 C 4.8 km/h
955 29-10-2020 07:30:00 9.2 C 7.86 g/m*3 9.2 C 3.2 km/h
956 29-10-2020 07:35:00 9.1 C 7.9 g/m*3 9.1 C 4.8 km/h
957 29-10-2020 07:40:00 9 C 7.85 g/m*3 9 C 3.2 km/h
958 29-10-2020 07:45:00 8.8 C 7.75 g/m*3 8.8 C 4.8 km/h
959 29-10-2020 07:50:00 8.8 C 7.75 g/m*3 7.58 C 8.1 km/h
960 29-10-2020 07:55:00 8.8 C 7.83 g/m*3 8.8 C 4.8 km/h
961 29-10-2020 08:00:00 8.7 C 7.78 g/m*3 8.7 C 4.8 km/h
962 29-10-2020 08:05:00 8.7 C 7.78 g/m*3 7.87 C 6.4 km/h
963 29-10-2020 08:10:00 8.7 C 7.78 g/m*3 7.87 C 6.4 km/h
964 29-10-2020 08:15:00 8.8 C 7.83 g/m*3 8.8 C 4.8 km/h
965 29-10-2020 08:20:00 8.8 C 7.83 g/m*3 7.58 C 8.1 km/h
966 29-10-2020 08:25:00 8.9 C 7.88 g/m*3 6.85 C 12.9 km/h
967 29-10-2020 08:30:00 9.2 C 7.95 g/m*3 7.73 C 9.7 km/h
968 29-10-2020 08:35:00 9.3 C 8 g/m*3 8.56 C 6.4 km/h
969 29-10-2020 08:40:00 9.4 C 7.96 g/m*3 7.7 C 11.3 km/h
970 29-10-2020 08:45:00 9.4 C 7.96 g/m*3 8.68 C 6.4 km/h
971 29-10-2020 08:50:00 9.4 C 7.96 g/m*3 9.4 C 3.2 km/h
972 29-10-2020 08:55:00 9.4 C 7.96 g/m*3 8.28 C 8.1 km/h
973 29-10-2020 09:00:00 9.4 C 7.96 g/m*3 9.4 C 4.8 km/h
974 29-10-2020 09:05:00 9.3 C 7.91 g/m*3 8.16 C 8.1 km/h
975 29-10-2020 09:10:00 9.3 C 7.91 g/m*3 8.16 C 8.1 km/h
Sensor: Nr:Datum:Temp:Abs-Feuchte:Windchill:Wind:
Aussen-T/F 976 29-10-2020 09:15:00 9.4 C 7.87 g/m*3 7.97 C 9.7 km/h
977 29-10-2020 09:20:00 9.6 C 8.06 g/m*3 8.91 C 6.4 km/h
978 29-10-2020 09:25:00 9.7 C 8.11 g/m*3 9.02 C 6.4 km/h
979 29-10-2020 09:30:00 9.8 C 8.16 g/m*3 9.14 C 6.4 km/h
980 29-10-2020 09:35:00 9.8 C 8.16 g/m*3 8.75 C 8.1 km/h
981 29-10-2020 09:40:00 10 C 8.17 g/m*3 10 C 4.8 km/h
982 29-10-2020 09:45:00 10.1 C 8.32 g/m*3 10.1 C 3.2 km/h
983 29-10-2020 09:50:00 10.3 C 8.33 g/m*3 10.3 C 3.2 km/h
984 29-10-2020 09:55:00 10.4 C 8.38 g/m*3 10.4 C 4.8 km/h
985 29-10-2020 10:00:00 10.6 C 8.49 g/m*3 10.6 C 1.6 km/h
986 29-10-2020 10:05:00 10.7 C 8.55 g/m*3 10.7 C 4.8 km/h
987 29-10-2020 10:10:00 10.8 C 8.6 g/m*3 9.93 C 8.1 km/h
988 29-10-2020 10:15:00 10.9 C 8.45 g/m*3 10.41 C 6.4 km/h
989 29-10-2020 10:20:00 11.1 C 8.66 g/m*3 11.1 C 8.1 km/h
990 29-10-2020 10:25:00 11.2 C 8.62 g/m*3 11.2 C 3.2 km/h
991 29-10-2020 10:30:00 11.2 C 8.62 g/m*3 11.2 C 9.7 km/h
992 29-10-2020 10:35:00 11.3 C 8.67 g/m*3 11.3 C 3.2 km/h
993 29-10-2020 10:40:00 11.4 C 8.72 g/m*3 11.4 C 8.1 km/h
994 29-10-2020 10:45:00 11.5 C 8.68 g/m*3 11.5 C 8.1 km/h
995 29-10-2020 10:50:00 11.6 C 8.63 g/m*3 11.6 C 6.4 km/h
996 29-10-2020 10:55:00 11.7 C 8.79 g/m*3 11.7 C 6.4 km/h
997 29-10-2020 11:00:00 11.8 C 8.74 g/m*3 11.8 C 3.2 km/h
998 29-10-2020 11:05:00 11.8 C 8.63 g/m*3 11.8 C 8.1 km/h
999 29-10-2020 11:10:00 11.8 C 8.63 g/m*3 11.8 C 6.4 km/h
1000 29-10-2020 11:15:00 11.8 C 8.74 g/m*3 11.8 C 6.4 km/h
Sensor: Nr:Datum:Temp:Abs-Feuchte:Windchill:Wind:
Aussen-T/F 1001 29-10-2020 11:20:00 11.8 C 8.74 g/m*3 11.8 C 4.8 km/h
1002 29-10-2020 11:25:00 11.7 C 8.68 g/m*3 11.7 C 6.4 km/h
1003 29-10-2020 11:30:00 11.7 C 8.79 g/m*3 11.7 C 6.4 km/h
1004 29-10-2020 11:35:00 11.6 C 8.83 g/m*3 11.6 C 11.3 km/h
1005 29-10-2020 11:40:00 11.4 C 8.83 g/m*3 11.4 C 9.7 km/h
1006 29-10-2020 11:45:00 11.3 C 8.87 g/m*3 11.3 C 8.1 km/h
1007 29-10-2020 11:50:00 11.2 C 8.92 g/m*3 11.2 C 6.4 km/h
1008 29-10-2020 11:55:00 11.1 C 8.86 g/m*3 11.1 C 6.4 km/h
1009 29-10-2020 12:00:00 11 C 8.91 g/m*3 10.52 C 6.4 km/h
1010 29-10-2020 12:05:00 10.9 C 8.85 g/m*3 10.41 C 6.4 km/h
1011 29-10-2020 12:10:00 10.8 C 8.8 g/m*3 9.93 C 8.1 km/h
1012 29-10-2020 12:15:00 10.7 C 8.84 g/m*3 9.52 C 9.7 km/h
1013 29-10-2020 12:20:00 10.7 C 8.84 g/m*3 10.7 C 4.8 km/h
1014 29-10-2020 12:25:00 10.6 C 8.78 g/m*3 10.06 C 6.4 km/h
1015 29-10-2020 12:30:00 10.6 C 8.88 g/m*3 10.6 C 4.8 km/h
1016 29-10-2020 12:35:00 10.6 C 8.88 g/m*3 10.6 C 3.2 km/h
1017 29-10-2020 12:40:00 10.6 C 8.88 g/m*3 10.06 C 6.4 km/h
1018 29-10-2020 12:45:00 10.6 C 8.88 g/m*3 10.06 C 6.4 km/h
1019 29-10-2020 12:50:00 10.6 C 8.88 g/m*3 10.06 C 6.4 km/h
1020 29-10-2020 12:55:00 10.7 C 9.04 g/m*3 10.7 C 3.2 km/h
1021 29-10-2020 13:00:00 10.6 C 8.98 g/m*3 10.6 C 3.2 km/h
1022 29-10-2020 13:05:00 10.6 C 8.98 g/m*3 10.6 C 1.6 km/h
1023 29-10-2020 13:10:00 10.7 C 9.13 g/m*3 10.7 C 0 km/h
1024 29-10-2020 13:15:00 10.7 C 9.13 g/m*3 10.18 C 6.4 km/h
1025 29-10-2020 13:20:00 10.7 C 9.13 g/m*3 9.04 C 12.9 km/h
Sensor: Nr:Datum:Temp:Abs-Feuchte:Windchill:Wind:
Aussen-T/F 1026 29-10-2020 13:25:00 10.8 C 9.19 g/m*3 10.8 C 1.6 km/h
1027 29-10-2020 13:30:00 10.9 C 9.35 g/m*3 10.9 C 4.8 km/h
1028 29-10-2020 13:35:00 11.1 C 9.47 g/m*3 11.1 C 1.6 km/h
1029 29-10-2020 13:40:00 11.2 C 9.53 g/m*3 11.2 C 0 km/h
1030 29-10-2020 13:45:00 11.3 C 9.59 g/m*3 11.3 C 4.8 km/h
1031 29-10-2020 13:50:00 11.3 C 9.59 g/m*3 11.3 C 3.2 km/h
1032 29-10-2020 13:55:00 11.4 C 9.65 g/m*3 11.4 C 1.6 km/h
1033 29-10-2020 14:00:00 11.6 C 9.77 g/m*3 11.6 C 6.4 km/h
1034 29-10-2020 14:05:00 11.7 C 9.83 g/m*3 11.7 C 4.8 km/h
1035 29-10-2020 14:10:00 11.7 C 9.83 g/m*3 11.7 C 4.8 km/h
1036 29-10-2020 14:15:00 11.7 C 9.83 g/m*3 11.7 C 4.8 km/h
1037 29-10-2020 14:20:00 11.7 C 9.83 g/m*3 11.7 C 6.4 km/h
1038 29-10-2020 14:25:00 11.7 C 9.83 g/m*3 11.7 C 4.8 km/h
1039 29-10-2020 14:30:00 11.7 C 9.83 g/m*3 11.7 C 6.4 km/h
1040 29-10-2020 14:35:00 11.6 C 9.67 g/m*3 11.6 C 8.1 km/h
1041 29-10-2020 14:40:00 11.6 C 9.67 g/m*3 11.6 C 4.8 km/h
1042 29-10-2020 14:45:00 11.5 C 9.71 g/m*3 11.5 C 8.1 km/h
1043 29-10-2020 14:50:00 11.5 C 9.71 g/m*3 11.5 C 6.4 km/h
1044 29-10-2020 14:55:00 11.4 C 9.65 g/m*3 11.4 C 1.6 km/h
1045 29-10-2020 15:00:00 11.4 C 9.65 g/m*3 11.4 C 4.8 km/h
1046 29-10-2020 15:05:00 11.4 C 9.65 g/m*3 11.4 C 4.8 km/h
1047 29-10-2020 15:10:00 11.4 C 9.65 g/m*3 11.4 C 6.4 km/h
1048 29-10-2020 15:15:00 11.4 C 9.65 g/m*3 11.4 C 9.7 km/h
1049 29-10-2020 15:20:00 11.3 C 9.59 g/m*3 11.3 C 4.8 km/h
1050 29-10-2020 15:25:00 11.3 C 9.59 g/m*3 11.3 C 4.8 km/h
Sensor: Nr:Datum:Temp:Abs-Feuchte:Windchill:Wind:
Aussen-T/F 1051 29-10-2020 15:30:00 11.3 C 9.59 g/m*3 11.3 C 6.4 km/h
1052 29-10-2020 15:35:00 11.3 C 9.69 g/m*3 11.3 C 4.8 km/h
1053 29-10-2020 15:40:00 11.3 C 9.69 g/m*3 11.3 C 1.6 km/h
1054 29-10-2020 15:45:00 11.3 C 9.59 g/m*3 11.3 C 1.6 km/h
1055 29-10-2020 15:50:00 11.3 C 9.69 g/m*3 11.3 C 4.8 km/h
1056 29-10-2020 15:55:00 11.3 C 9.69 g/m*3 11.3 C 4.8 km/h
1057 29-10-2020 16:00:00 11.3 C 9.59 g/m*3 11.3 C 3.2 km/h
1058 29-10-2020 16:05:00 11.3 C 9.59 g/m*3 11.3 C 4.8 km/h
1059 29-10-2020 16:10:00 11.3 C 9.69 g/m*3 11.3 C 3.2 km/h
1060 29-10-2020 16:15:00 11.3 C 9.69 g/m*3 11.3 C 3.2 km/h
1061 29-10-2020 16:20:00 11.3 C 9.69 g/m*3 11.3 C 6.4 km/h
1062 29-10-2020 16:25:00 11.2 C 9.53 g/m*3 11.2 C 4.8 km/h
1063 29-10-2020 16:30:00 11.2 C 9.63 g/m*3 11.2 C 6.4 km/h
1064 29-10-2020 16:35:00 11.1 C 9.57 g/m*3 11.1 C 9.7 km/h
1065 29-10-2020 16:40:00 11 C 9.51 g/m*3 9.88 C 9.7 km/h
1066 29-10-2020 16:45:00 11 C 9.51 g/m*3 10.16 C 8.1 km/h
1067 29-10-2020 16:50:00 10.9 C 9.45 g/m*3 10.04 C 8.1 km/h
1068 29-10-2020 16:55:00 10.9 C 9.45 g/m*3 9.51 C 11.3 km/h
1069 29-10-2020 17:00:00 10.8 C 9.39 g/m*3 10.29 C 6.4 km/h
1070 29-10-2020 17:05:00 10.8 C 9.39 g/m*3 10.29 C 6.4 km/h
1071 29-10-2020 17:10:00 10.8 C 9.39 g/m*3 9.93 C 8.1 km/h
1072 29-10-2020 17:15:00 10.8 C 9.39 g/m*3 10.29 C 6.4 km/h
1073 29-10-2020 17:20:00 10.8 C 9.39 g/m*3 10.29 C 6.4 km/h
1074 29-10-2020 17:25:00 10.8 C 9.39 g/m*3 10.29 C 6.4 km/h
1075 29-10-2020 17:30:00 10.8 C 9.39 g/m*3 9.93 C 8.1 km/h
Sensor: Nr:Datum:Temp:Abs-Feuchte:Windchill:Wind:
Aussen-T/F 1076 29-10-2020 17:35:00 10.8 C 9.39 g/m*3 10.8 C 4.8 km/h
1077 29-10-2020 17:40:00 10.7 C 9.33 g/m*3 10.7 C 1.6 km/h
1078 29-10-2020 17:45:00 10.7 C 9.33 g/m*3 10.7 C 0 km/h
1079 29-10-2020 17:50:00 10.7 C 9.33 g/m*3 10.7 C 0 km/h
1080 29-10-2020 17:55:00 10.7 C 9.33 g/m*3 10.7 C 0 km/h
1081 29-10-2020 18:00:00 10.7 C 9.33 g/m*3 10.7 C 0 km/h
1082 29-10-2020 18:05:00 10.7 C 9.33 g/m*3 10.7 C 1.6 km/h
1083 29-10-2020 18:10:00 10.6 C 9.27 g/m*3 10.6 C 0 km/h
1084 29-10-2020 18:15:00 10.6 C 9.27 g/m*3 10.6 C 1.6 km/h
1085 29-10-2020 18:20:00 10.6 C 9.27 g/m*3 10.6 C 0 km/h
1086 29-10-2020 18:25:00 10.6 C 9.27 g/m*3 10.6 C 3.2 km/h
1087 29-10-2020 18:30:00 10.6 C 9.27 g/m*3 10.6 C 0 km/h
1088 29-10-2020 18:35:00 10.6 C 9.27 g/m*3 10.6 C 0 km/h
1089 29-10-2020 18:40:00 10.6 C 9.27 g/m*3 10.6 C 1.6 km/h
1090 29-10-2020 18:45:00 10.5 C 9.21 g/m*3 10.5 C 0 km/h
1091 29-10-2020 18:50:00 10.5 C 9.21 g/m*3 10.5 C 0 km/h
1092 29-10-2020 18:55:00 10.5 C 9.21 g/m*3 10.5 C 0 km/h
1093 29-10-2020 19:00:00 10.5 C 9.21 g/m*3 10.5 C 0 km/h
1094 29-10-2020 19:05:00 10.4 C 9.25 g/m*3 10.4 C 0 km/h
1095 29-10-2020 19:10:00 10.4 C 9.25 g/m*3 10.4 C 1.6 km/h
1096 29-10-2020 19:15:00 10.4 C 9.25 g/m*3 10.4 C 0 km/h
1097 29-10-2020 19:20:00 10.5 C 9.31 g/m*3 10.5 C 0 km/h
1098 29-10-2020 19:25:00 10.5 C 9.31 g/m*3 10.5 C 0 km/h
1099 29-10-2020 19:30:00 10.5 C 9.31 g/m*3 10.5 C 0 km/h
1100 29-10-2020 19:35:00 10.5 C 9.31 g/m*3 10.5 C 0 km/h
Sensor: Nr:Datum:Temp:Abs-Feuchte:Windchill:Wind:
Aussen-T/F 1101 29-10-2020 19:40:00 10.5 C 9.31 g/m*3 10.5 C 0 km/h
1102 29-10-2020 19:45:00 10.5 C 9.31 g/m*3 10.5 C 0 km/h
1103 29-10-2020 19:50:00 10.5 C 9.31 g/m*3 10.5 C 0 km/h
1104 29-10-2020 19:55:00 10.5 C 9.31 g/m*3 10.5 C 0 km/h
1105 29-10-2020 20:00:00 10.5 C 9.31 g/m*3 10.5 C 0 km/h
1106 29-10-2020 20:05:00 10.5 C 9.31 g/m*3 10.5 C 0 km/h
1107 29-10-2020 20:10:00 10.6 C 9.37 g/m*3 10.6 C 0 km/h
1108 29-10-2020 20:15:00 10.6 C 9.37 g/m*3 10.6 C 0 km/h
1109 29-10-2020 20:20:00 10.6 C 9.37 g/m*3 10.06 C 6.4 km/h
1110 29-10-2020 20:25:00 10.7 C 9.43 g/m*3 10.7 C 3.2 km/h
1111 29-10-2020 20:30:00 10.7 C 9.43 g/m*3 9.26 C 11.3 km/h
1112 29-10-2020 20:35:00 10.7 C 9.43 g/m*3 9.52 C 9.7 km/h
1113 29-10-2020 20:40:00 10.7 C 9.43 g/m*3 9.81 C 8.1 km/h
1114 29-10-2020 20:45:00 10.7 C 9.43 g/m*3 10.18 C 6.4 km/h
1115 29-10-2020 20:50:00 10.7 C 9.43 g/m*3 9.81 C 8.1 km/h
1116 29-10-2020 20:55:00 10.7 C 9.43 g/m*3 10.7 C 3.2 km/h
1117 29-10-2020 21:00:00 10.7 C 9.43 g/m*3 10.7 C 3.2 km/h
1118 29-10-2020 21:05:00 10.8 C 9.49 g/m*3 9.93 C 8.1 km/h
1119 29-10-2020 21:10:00 10.8 C 9.49 g/m*3 9.93 C 8.1 km/h
1120 29-10-2020 21:15:00 10.8 C 9.49 g/m*3 9.64 C 9.7 km/h
1121 29-10-2020 21:20:00 10.8 C 9.49 g/m*3 10.29 C 6.4 km/h
1122 29-10-2020 21:25:00 10.9 C 9.55 g/m*3 10.9 C 4.8 km/h
1123 29-10-2020 21:30:00 10.9 C 9.55 g/m*3 10.9 C 4.8 km/h
1124 29-10-2020 21:35:00 10.9 C 9.55 g/m*3 10.9 C 4.8 km/h
1125 29-10-2020 21:40:00 10.9 C 9.55 g/m*3 9.51 C 11.3 km/h
Sensor: Nr:Datum:Temp:Abs-Feuchte:Windchill:Wind:
Aussen-T/F 1126 29-10-2020 21:45:00 11 C 9.61 g/m*3 10.16 C 8.1 km/h
1127 29-10-2020 21:50:00 11 C 9.61 g/m*3 10.52 C 6.4 km/h
1128 29-10-2020 21:55:00 11.1 C 9.67 g/m*3 11.1 C 4.8 km/h
1129 29-10-2020 22:00:00 11.1 C 9.67 g/m*3 11.1 C 6.4 km/h
1130 29-10-2020 22:05:00 11.1 C 9.67 g/m*3 11.1 C 9.7 km/h
1131 29-10-2020 22:10:00 11.1 C 9.67 g/m*3 11.1 C 6.4 km/h
1132 29-10-2020 22:15:00 11.1 C 9.67 g/m*3 11.1 C 3.2 km/h
1133 29-10-2020 22:20:00 11.2 C 9.73 g/m*3 11.2 C 8.1 km/h
1134 29-10-2020 22:25:00 11.2 C 9.73 g/m*3 11.2 C 6.4 km/h
1135 29-10-2020 22:30:00 11.3 C 9.79 g/m*3 11.3 C 8.1 km/h
1136 29-10-2020 22:35:00 11.3 C 9.79 g/m*3 11.3 C 6.4 km/h
1137 29-10-2020 22:40:00 11.3 C 9.79 g/m*3 11.3 C 4.8 km/h
1138 29-10-2020 22:45:00 11.3 C 9.79 g/m*3 11.3 C 4.8 km/h
1139 29-10-2020 22:50:00 11.3 C 9.79 g/m*3 11.3 C 11.3 km/h
1140 29-10-2020 22:55:00 11.4 C 9.85 g/m*3 11.4 C 9.7 km/h
1141 29-10-2020 23:00:00 11.4 C 9.85 g/m*3 11.4 C 8.1 km/h
1142 29-10-2020 23:05:00 11.4 C 9.85 g/m*3 11.4 C 11.3 km/h
1143 29-10-2020 23:10:00 11.5 C 9.92 g/m*3 11.5 C 11.3 km/h
1144 29-10-2020 23:15:00 11.5 C 9.92 g/m*3 11.5 C 11.3 km/h
1145 29-10-2020 23:20:00 11.5 C 9.92 g/m*3 11.5 C 1.6 km/h
1146 29-10-2020 23:25:00 11.6 C 9.98 g/m*3 11.6 C 4.8 km/h
1147 29-10-2020 23:30:00 11.6 C 9.98 g/m*3 11.6 C 0 km/h
1148 29-10-2020 23:35:00 11.6 C 9.98 g/m*3 11.6 C 6.4 km/h
1149 29-10-2020 23:40:00 11.6 C 9.98 g/m*3 11.6 C 6.4 km/h
1150 29-10-2020 23:45:00 11.7 C 10.04 g/m*3 11.7 C 8.1 km/h
Sensor: Nr:Datum:Temp:Abs-Feuchte:Windchill:Wind:
Aussen-T/F 1151 29-10-2020 23:50:00 11.7 C 10.04 g/m*3 11.7 C 1.6 km/h
1152 29-10-2020 23:55:00 11.7 C 10.04 g/m*3 11.7 C 0 km/h
1153 30-10-2020 00:00:00 11.7 C 10.04 g/m*3 11.7 C 4.8 km/h
1154 30-10-2020 00:05:00 11.8 C 10.1 g/m*3 11.8 C 8.1 km/h
1155 30-10-2020 00:10:00 11.8 C 10.1 g/m*3 11.8 C 3.2 km/h
1156 30-10-2020 00:15:00 11.8 C 10.1 g/m*3 11.8 C 3.2 km/h
1157 30-10-2020 00:20:00 11.9 C 10.17 g/m*3 11.9 C 6.4 km/h
1158 30-10-2020 00:25:00 11.9 C 10.17 g/m*3 11.9 C 4.8 km/h
1159 30-10-2020 00:30:00 11.9 C 10.17 g/m*3 11.9 C 8.1 km/h
1160 30-10-2020 00:35:00 11.9 C 10.17 g/m*3 11.9 C 6.4 km/h
1161 30-10-2020 00:40:00 12 C 10.23 g/m*3 12 C 3.2 km/h
1162 30-10-2020 00:45:00 12 C 10.23 g/m*3 12 C 3.2 km/h
1163 30-10-2020 00:50:00 12 C 10.23 g/m*3 12 C 3.2 km/h
1164 30-10-2020 00:55:00 12 C 10.23 g/m*3 12 C 3.2 km/h
1165 30-10-2020 01:00:00 12 C 10.23 g/m*3 12 C 4.8 km/h
1166 30-10-2020 01:05:00 12.1 C 10.29 g/m*3 12.1 C 0 km/h
1167 30-10-2020 01:10:00 12.1 C 10.29 g/m*3 12.1 C 6.4 km/h
1168 30-10-2020 01:15:00 12.1 C 10.29 g/m*3 12.1 C 4.8 km/h
1169 30-10-2020 01:20:00 12.1 C 10.29 g/m*3 12.1 C 6.4 km/h
1170 30-10-2020 01:25:00 12.2 C 10.36 g/m*3 12.2 C 4.8 km/h
1171 30-10-2020 01:30:00 12.2 C 10.36 g/m*3 12.2 C 4.8 km/h
1172 30-10-2020 01:35:00 12.2 C 10.36 g/m*3 12.2 C 1.6 km/h
1173 30-10-2020 01:40:00 12.2 C 10.36 g/m*3 12.2 C 8.1 km/h
1174 30-10-2020 01:45:00 12.2 C 10.36 g/m*3 12.2 C 6.4 km/h
1175 30-10-2020 01:50:00 12.3 C 10.42 g/m*3 12.3 C 11.3 km/h
Sensor: Nr:Datum:Temp:Abs-Feuchte:Windchill:Wind:
Aussen-T/F 1176 30-10-2020 01:55:00 12.3 C 10.42 g/m*3 12.3 C 4.8 km/h
1177 30-10-2020 02:00:00 12.3 C 10.42 g/m*3 12.3 C 11.3 km/h
1178 30-10-2020 02:05:00 12.3 C 10.42 g/m*3 12.3 C 4.8 km/h
1179 30-10-2020 02:10:00 12.3 C 10.42 g/m*3 12.3 C 1.6 km/h
1180 30-10-2020 02:15:00 12.3 C 10.42 g/m*3 12.3 C 1.6 km/h
1181 30-10-2020 02:20:00 12.3 C 10.42 g/m*3 12.3 C 0 km/h
1182 30-10-2020 02:25:00 12.3 C 10.42 g/m*3 12.3 C 6.4 km/h
1183 30-10-2020 02:30:00 12.3 C 10.42 g/m*3 12.3 C 3.2 km/h
1184 30-10-2020 02:35:00 12.4 C 10.6 g/m*3 12.4 C 11.3 km/h
1185 30-10-2020 02:40:00 12.5 C 10.66 g/m*3 12.5 C 3.2 km/h
1186 30-10-2020 02:45:00 12.5 C 10.55 g/m*3 12.5 C 8.1 km/h
1187 30-10-2020 02:50:00 12.6 C 10.62 g/m*3 12.6 C 3.2 km/h
1188 30-10-2020 02:55:00 12.6 C 10.62 g/m*3 12.6 C 12.9 km/h
1189 30-10-2020 03:00:00 12.7 C 10.69 g/m*3 12.7 C 8.1 km/h
1190 30-10-2020 03:05:00 12.7 C 10.69 g/m*3 12.7 C 9.7 km/h
1191 30-10-2020 03:10:00 12.7 C 10.69 g/m*3 12.7 C 9.7 km/h
1192 30-10-2020 03:15:00 12.7 C 10.69 g/m*3 12.7 C 4.8 km/h
1193 30-10-2020 03:20:00 12.7 C 10.69 g/m*3 12.7 C 6.4 km/h
1194 30-10-2020 03:25:00 12.7 C 10.69 g/m*3 12.7 C 6.4 km/h
1195 30-10-2020 03:30:00 12.8 C 10.75 g/m*3 12.8 C 12.9 km/h
1196 30-10-2020 03:35:00 12.8 C 10.75 g/m*3 12.8 C 6.4 km/h
1197 30-10-2020 03:40:00 12.8 C 10.64 g/m*3 12.8 C 4.8 km/h
1198 30-10-2020 03:45:00 12.8 C 10.64 g/m*3 12.8 C 4.8 km/h
1199 30-10-2020 03:50:00 12.8 C 10.64 g/m*3 12.8 C 9.7 km/h
1200 30-10-2020 03:55:00 12.8 C 10.64 g/m*3 12.8 C 4.8 km/h
Sensor: Nr:Datum:Temp:Abs-Feuchte:Windchill:Wind:
Aussen-T/F 1201 30-10-2020 04:00:00 12.8 C 10.64 g/m*3 12.8 C 8.1 km/h
1202 30-10-2020 04:05:00 12.8 C 10.64 g/m*3 12.8 C 4.8 km/h
1203 30-10-2020 04:10:00 12.8 C 10.64 g/m*3 12.8 C 9.7 km/h
1204 30-10-2020 04:15:00 12.8 C 10.64 g/m*3 12.8 C 4.8 km/h
1205 30-10-2020 04:20:00 12.8 C 10.64 g/m*3 12.8 C 1.6 km/h
1206 30-10-2020 04:25:00 12.7 C 10.58 g/m*3 12.7 C 1.6 km/h
1207 30-10-2020 04:30:00 12.7 C 10.58 g/m*3 12.7 C 0 km/h
1208 30-10-2020 04:35:00 12.7 C 10.58 g/m*3 12.7 C 0 km/h
1209 30-10-2020 04:40:00 12.7 C 10.58 g/m*3 12.7 C 1.6 km/h
1210 30-10-2020 04:45:00 12.7 C 10.69 g/m*3 12.7 C 0 km/h
1211 30-10-2020 04:50:00 12.7 C 10.69 g/m*3 12.7 C 4.8 km/h
1212 30-10-2020 04:55:00 12.7 C 10.69 g/m*3 12.7 C 4.8 km/h
1213 30-10-2020 05:00:00 12.7 C 10.69 g/m*3 12.7 C 3.2 km/h
1214 30-10-2020 05:05:00 12.6 C 10.62 g/m*3 12.6 C 6.4 km/h
1215 30-10-2020 05:10:00 12.6 C 10.62 g/m*3 12.6 C 3.2 km/h
1216 30-10-2020 05:15:00 12.6 C 10.62 g/m*3 12.6 C 3.2 km/h
1217 30-10-2020 05:20:00 12.6 C 10.62 g/m*3 12.6 C 1.6 km/h
1218 30-10-2020 05:25:00 12.6 C 10.62 g/m*3 12.6 C 4.8 km/h
1219 30-10-2020 05:30:00 12.7 C 10.69 g/m*3 12.7 C 3.2 km/h
1220 30-10-2020 05:35:00 12.7 C 10.69 g/m*3 12.7 C 4.8 km/h
1221 30-10-2020 05:40:00 12.7 C 10.69 g/m*3 12.7 C 8.1 km/h
1222 30-10-2020 05:45:00 12.8 C 10.64 g/m*3 12.8 C 3.2 km/h
1223 30-10-2020 05:50:00 12.8 C 10.64 g/m*3 12.8 C 3.2 km/h
1224 30-10-2020 05:55:00 12.8 C 10.64 g/m*3 12.8 C 4.8 km/h
1225 30-10-2020 06:00:00 12.9 C 10.71 g/m*3 12.9 C 6.4 km/h
Sensor: Nr:Datum:Temp:Abs-Feuchte:Windchill:Wind:
Aussen-T/F 1226 30-10-2020 06:05:00 12.9 C 10.71 g/m*3 12.9 C 1.6 km/h
1227 30-10-2020 06:10:00 12.9 C 10.71 g/m*3 12.9 C 3.2 km/h
1228 30-10-2020 06:15:00 12.9 C 10.71 g/m*3 12.9 C 1.6 km/h
1229 30-10-2020 06:20:00 12.9 C 10.71 g/m*3 12.9 C 4.8 km/h
1230 30-10-2020 06:25:00 12.9 C 10.71 g/m*3 12.9 C 1.6 km/h
1231 30-10-2020 06:30:00 12.9 C 10.71 g/m*3 12.9 C 3.2 km/h
1232 30-10-2020 06:35:00 12.9 C 10.71 g/m*3 12.9 C 6.4 km/h
1233 30-10-2020 06:40:00 12.9 C 10.71 g/m*3 12.9 C 0 km/h
1234 30-10-2020 06:45:00 12.9 C 10.71 g/m*3 12.9 C 1.6 km/h
1235 30-10-2020 06:50:00 12.9 C 10.71 g/m*3 12.9 C 8.1 km/h
1236 30-10-2020 06:55:00 12.9 C 10.71 g/m*3 12.9 C 6.4 km/h
1237 30-10-2020 07:00:00 12.9 C 10.59 g/m*3 12.9 C 11.3 km/h
1238 30-10-2020 07:05:00 13 C 10.66 g/m*3 13 C 8.1 km/h
1239 30-10-2020 07:10:00 13 C 10.66 g/m*3 13 C 11.3 km/h
1240 30-10-2020 07:15:00 13 C 10.66 g/m*3 13 C 11.3 km/h
1241 30-10-2020 07:20:00 13.1 C 10.73 g/m*3 13.1 C 9.7 km/h
1242 30-10-2020 07:25:00 13.1 C 10.61 g/m*3 13.1 C 8.1 km/h
1243 30-10-2020 07:30:00 13.2 C 10.68 g/m*3 13.2 C 4.8 km/h
1244 30-10-2020 07:35:00 13.2 C 10.68 g/m*3 13.2 C 3.2 km/h
1245 30-10-2020 07:40:00 13.2 C 10.68 g/m*3 13.2 C 3.2 km/h
1246 30-10-2020 07:45:00 13.2 C 10.68 g/m*3 13.2 C 4.8 km/h
1247 30-10-2020 07:50:00 13.2 C 10.68 g/m*3 13.2 C 6.4 km/h
1248 30-10-2020 07:55:00 13.2 C 10.68 g/m*3 13.2 C 3.2 km/h
1249 30-10-2020 08:00:00 13.2 C 10.68 g/m*3 13.2 C 1.6 km/h
1250 30-10-2020 08:05:00 13.2 C 10.68 g/m*3 13.2 C 0 km/h
Sensor: Nr:Datum:Temp:Abs-Feuchte:Windchill:Wind:
Aussen-T/F 1251 30-10-2020 08:10:00 13.2 C 10.68 g/m*3 13.2 C 3.2 km/h
1252 30-10-2020 08:15:00 13.2 C 10.68 g/m*3 13.2 C 6.4 km/h
1253 30-10-2020 08:20:00 13.2 C 10.68 g/m*3 13.2 C 3.2 km/h
1254 30-10-2020 08:25:00 13.3 C 10.74 g/m*3 13.3 C 8.1 km/h
1255 30-10-2020 08:30:00 13.3 C 10.74 g/m*3 13.3 C 4.8 km/h
1256 30-10-2020 08:35:00 13.3 C 10.74 g/m*3 13.3 C 8.1 km/h
1257 30-10-2020 08:40:00 13.4 C 10.69 g/m*3 13.4 C 9.7 km/h
1258 30-10-2020 08:45:00 13.4 C 10.69 g/m*3 13.4 C 1.6 km/h
1259 30-10-2020 08:50:00 13.4 C 10.69 g/m*3 13.4 C 1.6 km/h
1260 30-10-2020 08:55:00 13.5 C 10.76 g/m*3 13.5 C 9.7 km/h
1261 30-10-2020 09:00:00 13.6 C 10.83 g/m*3 13.6 C 4.8 km/h
1262 30-10-2020 09:05:00 13.6 C 10.83 g/m*3 13.6 C 8.1 km/h
1263 30-10-2020 09:10:00 13.6 C 10.71 g/m*3 13.6 C 9.7 km/h
1264 30-10-2020 09:15:00 13.7 C 10.78 g/m*3 13.7 C 4.8 km/h
1265 30-10-2020 09:20:00 13.7 C 10.78 g/m*3 13.7 C 8.1 km/h
1266 30-10-2020 09:25:00 13.8 C 10.96 g/m*3 13.8 C 8.1 km/h
1267 30-10-2020 09:30:00 13.8 C 10.84 g/m*3 13.8 C 8.1 km/h
1268 30-10-2020 09:35:00 13.8 C 10.84 g/m*3 13.8 C 9.7 km/h
1269 30-10-2020 09:40:00 13.8 C 10.84 g/m*3 13.8 C 11.3 km/h
1270 30-10-2020 09:45:00 13.9 C 10.91 g/m*3 13.9 C 9.7 km/h
1271 30-10-2020 09:50:00 14.1 C 11.04 g/m*3 14.1 C 14.5 km/h
1272 30-10-2020 09:55:00 14.1 C 10.92 g/m*3 14.1 C 11.3 km/h
1273 30-10-2020 10:00:00 14.2 C 10.99 g/m*3 14.2 C 16.1 km/h
1274 30-10-2020 10:05:00 14.3 C 11.06 g/m*3 14.3 C 8.1 km/h
1275 30-10-2020 10:10:00 14.4 C 11.13 g/m*3 14.4 C 9.7 km/h
Sensor: Nr:Datum:Temp:Abs-Feuchte:Windchill:Wind:
Aussen-T/F 1276 30-10-2020 10:15:00 14.4 C 11 g/m*3 14.4 C 16.1 km/h
1277 30-10-2020 10:20:00 14.6 C 11.14 g/m*3 14.6 C 11.3 km/h
1278 30-10-2020 10:25:00 14.6 C 11.14 g/m*3 14.6 C 14.5 km/h
1279 30-10-2020 10:30:00 14.6 C 11.14 g/m*3 14.6 C 11.3 km/h
1280 30-10-2020 10:35:00 14.6 C 11.14 g/m*3 14.6 C 14.5 km/h
1281 30-10-2020 10:40:00 14.6 C 11.14 g/m*3 14.6 C 11.3 km/h
1282 30-10-2020 10:45:00 14.6 C 11.01 g/m*3 14.6 C 14.5 km/h
1283 30-10-2020 10:50:00 14.7 C 11.08 g/m*3 14.7 C 16.1 km/h
1284 30-10-2020 10:55:00 14.7 C 11.08 g/m*3 14.7 C 12.9 km/h
1285 30-10-2020 11:00:00 14.8 C 11.15 g/m*3 14.8 C 16.1 km/h
1286 30-10-2020 11:05:00 14.8 C 11.15 g/m*3 14.8 C 14.5 km/h
1287 30-10-2020 11:10:00 14.9 C 11.22 g/m*3 14.9 C 20.9 km/h
1288 30-10-2020 11:15:00 14.9 C 11.22 g/m*3 14.9 C 16.1 km/h
1289 30-10-2020 11:20:00 15.1 C 11.22 g/m*3 15.1 C 16.1 km/h
1290 30-10-2020 11:25:00 15.2 C 11.29 g/m*3 15.2 C 11.3 km/h
1291 30-10-2020 11:30:00 15.2 C 11.29 g/m*3 15.2 C 16.1 km/h
1292 30-10-2020 11:35:00 15.1 C 11.22 g/m*3 15.1 C 16.1 km/h
1293 30-10-2020 11:40:00 15.1 C 11.22 g/m*3 15.1 C 14.5 km/h
1294 30-10-2020 11:45:00 15.1 C 11.09 g/m*3 15.1 C 24.1 km/h
1295 30-10-2020 11:50:00 15.1 C 11.22 g/m*3 15.1 C 11.3 km/h
1296 30-10-2020 11:55:00 15.1 C 11.22 g/m*3 15.1 C 17.7 km/h
1297 30-10-2020 12:00:00 15 C 11.16 g/m*3 15 C 14.5 km/h
1298 30-10-2020 12:05:00 15.1 C 11.22 g/m*3 15.1 C 16.1 km/h
1299 30-10-2020 12:10:00 15.1 C 11.22 g/m*3 15.1 C 16.1 km/h
1300 30-10-2020 12:15:00 15.2 C 11.29 g/m*3 15.2 C 12.9 km/h
Sensor: Nr:Datum:Temp:Abs-Feuchte:Windchill:Wind:
Aussen-T/F 1301 30-10-2020 12:20:00 15.2 C 11.29 g/m*3 15.2 C 14.5 km/h
1302 30-10-2020 12:25:00 15.1 C 11.22 g/m*3 15.1 C 9.7 km/h
1303 30-10-2020 12:30:00 15.1 C 11.22 g/m*3 15.1 C 11.3 km/h
1304 30-10-2020 12:35:00 15.2 C 11.29 g/m*3 15.2 C 14.5 km/h
1305 30-10-2020 12:40:00 15.1 C 11.22 g/m*3 15.1 C 9.7 km/h
1306 30-10-2020 12:45:00 15.2 C 11.29 g/m*3 15.2 C 14.5 km/h
1307 30-10-2020 12:50:00 15.2 C 11.29 g/m*3 15.2 C 12.9 km/h
1308 30-10-2020 12:55:00 15.2 C 11.29 g/m*3 15.2 C 12.9 km/h
1309 30-10-2020 13:00:00 15.2 C 11.29 g/m*3 15.2 C 19.3 km/h
1310 30-10-2020 13:05:00 15.2 C 11.29 g/m*3 15.2 C 17.7 km/h
1311 30-10-2020 13:10:00 15.3 C 11.49 g/m*3 15.3 C 9.7 km/h
1312 30-10-2020 13:15:00 15.4 C 11.43 g/m*3 15.4 C 9.7 km/h
1313 30-10-2020 13:20:00 15.4 C 11.3 g/m*3 15.4 C 12.9 km/h
1314 30-10-2020 13:25:00 15.6 C 11.44 g/m*3 15.6 C 12.9 km/h
1315 30-10-2020 13:30:00 15.6 C 11.44 g/m*3 15.6 C 12.9 km/h
1316 30-10-2020 13:35:00 15.4 C 11.3 g/m*3 15.4 C 9.7 km/h
1317 30-10-2020 13:40:00 15.3 C 11.23 g/m*3 15.3 C 17.7 km/h
1318 30-10-2020 13:45:00 15.3 C 11.36 g/m*3 15.3 C 11.3 km/h
1319 30-10-2020 13:50:00 15.2 C 11.29 g/m*3 15.2 C 8.1 km/h
1320 30-10-2020 13:55:00 15.1 C 11.22 g/m*3 15.1 C 14.5 km/h
1321 30-10-2020 14:00:00 15.1 C 11.35 g/m*3 15.1 C 6.4 km/h
1322 30-10-2020 14:05:00 15.2 C 11.42 g/m*3 15.2 C 6.4 km/h
1323 30-10-2020 14:10:00 15.2 C 11.29 g/m*3 15.2 C 3.2 km/h
1324 30-10-2020 14:15:00 15.3 C 11.36 g/m*3 15.3 C 4.8 km/h
1325 30-10-2020 14:20:00 15.3 C 11.36 g/m*3 15.3 C 3.2 km/h
Sensor: Nr:Datum:Temp:Abs-Feuchte:Windchill:Wind:
Aussen-T/F 1326 30-10-2020 14:25:00 15.3 C 11.23 g/m*3 15.3 C 9.7 km/h
1327 30-10-2020 14:30:00 15.3 C 11.23 g/m*3 15.3 C 3.2 km/h
1328 30-10-2020 14:35:00 15.3 C 11.23 g/m*3 15.3 C 6.4 km/h
1329 30-10-2020 14:40:00 15.3 C 11.23 g/m*3 15.3 C 11.3 km/h
1330 30-10-2020 14:45:00 15.4 C 11.17 g/m*3 15.4 C 8.1 km/h
1331 30-10-2020 14:50:00 15.5 C 11.24 g/m*3 15.5 C 6.4 km/h
1332 30-10-2020 14:55:00 15.5 C 11.24 g/m*3 15.5 C 8.1 km/h
1333 30-10-2020 15:00:00 15.5 C 11.24 g/m*3 15.5 C 12.9 km/h
1334 30-10-2020 15:05:00 15.4 C 11.17 g/m*3 15.4 C 3.2 km/h
1335 30-10-2020 15:10:00 15.4 C 11.17 g/m*3 15.4 C 8.1 km/h
1336 30-10-2020 15:15:00 15.4 C 11.17 g/m*3 15.4 C 3.2 km/h
1337 30-10-2020 15:20:00 15.3 C 11.1 g/m*3 15.3 C 12.9 km/h
1338 30-10-2020 15:25:00 15.4 C 11.17 g/m*3 15.4 C 14.5 km/h
1339 30-10-2020 15:30:00 15.4 C 11.17 g/m*3 15.4 C 6.4 km/h
1340 30-10-2020 15:35:00 15.4 C 11.17 g/m*3 15.4 C 12.9 km/h
1341 30-10-2020 15:40:00 15.3 C 11.1 g/m*3 15.3 C 6.4 km/h
1342 30-10-2020 15:45:00 15.3 C 11.1 g/m*3 15.3 C 11.3 km/h
1343 30-10-2020 15:50:00 15.3 C 11.23 g/m*3 15.3 C 8.1 km/h
1344 30-10-2020 15:55:00 15.2 C 11.03 g/m*3 15.2 C 8.1 km/h
1345 30-10-2020 16:00:00 15.2 C 11.16 g/m*3 15.2 C 8.1 km/h
1346 30-10-2020 16:05:00 15.1 C 11.09 g/m*3 15.1 C 9.7 km/h
1347 30-10-2020 16:10:00 15.1 C 11.09 g/m*3 15.1 C 11.3 km/h
1348 30-10-2020 16:15:00 15.1 C 11.09 g/m*3 15.1 C 6.4 km/h
1349 30-10-2020 16:20:00 15 C 11.03 g/m*3 15 C 9.7 km/h
1350 30-10-2020 16:25:00 15 C 11.03 g/m*3 15 C 9.7 km/h
Sensor: Nr:Datum:Temp:Abs-Feuchte:Windchill:Wind:
Aussen-T/F 1351 30-10-2020 16:30:00 14.9 C 10.96 g/m*3 14.9 C 9.7 km/h
1352 30-10-2020 16:35:00 14.8 C 10.89 g/m*3 14.8 C 11.3 km/h
1353 30-10-2020 16:40:00 14.8 C 11.02 g/m*3 14.8 C 4.8 km/h
1354 30-10-2020 16:45:00 14.8 C 11.02 g/m*3 14.8 C 4.8 km/h
1355 30-10-2020 16:50:00 14.8 C 11.02 g/m*3 14.8 C 6.4 km/h
1356 30-10-2020 16:55:00 14.7 C 11.08 g/m*3 14.7 C 4.8 km/h
1357 30-10-2020 17:00:00 14.7 C 11.08 g/m*3 14.7 C 11.3 km/h
1358 30-10-2020 17:05:00 14.6 C 11.01 g/m*3 14.6 C 4.8 km/h
1359 30-10-2020 17:10:00 14.6 C 11.14 g/m*3 14.6 C 4.8 km/h
1360 30-10-2020 17:15:00 14.4 C 11 g/m*3 14.4 C 4.8 km/h
1361 30-10-2020 17:20:00 14.3 C 11.06 g/m*3 14.3 C 1.6 km/h
1362 30-10-2020 17:25:00 14.3 C 11.06 g/m*3 14.3 C 4.8 km/h
1363 30-10-2020 17:30:00 14.2 C 10.99 g/m*3 14.2 C 4.8 km/h
1364 30-10-2020 17:35:00 14.1 C 10.92 g/m*3 14.1 C 4.8 km/h
1365 30-10-2020 17:40:00 14.1 C 10.92 g/m*3 14.1 C 3.2 km/h
1366 30-10-2020 17:45:00 14.1 C 10.92 g/m*3 14.1 C 4.8 km/h
1367 30-10-2020 17:50:00 14.1 C 11.04 g/m*3 14.1 C 3.2 km/h
1368 30-10-2020 17:55:00 14 C 10.98 g/m*3 14 C 9.7 km/h
1369 30-10-2020 18:00:00 14.1 C 11.04 g/m*3 14.1 C 1.6 km/h
1370 30-10-2020 18:05:00 14.1 C 11.04 g/m*3 14.1 C 0 km/h
1371 30-10-2020 18:10:00 14 C 10.98 g/m*3 14 C 1.6 km/h
1372 30-10-2020 18:15:00 14 C 10.98 g/m*3 14 C 1.6 km/h
1373 30-10-2020 18:20:00 14 C 10.98 g/m*3 14 C 1.6 km/h
1374 30-10-2020 18:25:00 14 C 10.98 g/m*3 14 C 6.4 km/h
1375 30-10-2020 18:30:00 14 C 10.98 g/m*3 14 C 0 km/h
Sensor: Nr:Datum:Temp:Abs-Feuchte:Windchill:Wind:
Aussen-T/F 1376 30-10-2020 18:35:00 14 C 10.98 g/m*3 14 C 0 km/h
1377 30-10-2020 18:40:00 13.9 C 10.91 g/m*3 13.9 C 3.2 km/h
1378 30-10-2020 18:45:00 13.9 C 10.91 g/m*3 13.9 C 1.6 km/h
1379 30-10-2020 18:50:00 13.9 C 10.91 g/m*3 13.9 C 3.2 km/h
1380 30-10-2020 18:55:00 13.9 C 10.91 g/m*3 13.9 C 3.2 km/h
1381 30-10-2020 19:00:00 13.9 C 10.91 g/m*3 13.9 C 1.6 km/h
1382 30-10-2020 19:05:00 13.9 C 10.91 g/m*3 13.9 C 6.4 km/h
1383 30-10-2020 19:10:00 13.9 C 10.91 g/m*3 13.9 C 4.8 km/h
1384 30-10-2020 19:15:00 14 C 10.86 g/m*3 14 C 4.8 km/h
1385 30-10-2020 19:20:00 14.1 C 10.92 g/m*3 14.1 C 8.1 km/h
1386 30-10-2020 19:25:00 14.1 C 10.8 g/m*3 14.1 C 3.2 km/h
1387 30-10-2020 19:30:00 14.1 C 10.8 g/m*3 14.1 C 11.3 km/h
1388 30-10-2020 19:35:00 14.1 C 10.8 g/m*3 14.1 C 8.1 km/h
1389 30-10-2020 19:40:00 14.2 C 10.87 g/m*3 14.2 C 8.1 km/h
1390 30-10-2020 19:45:00 14.1 C 10.8 g/m*3 14.1 C 3.2 km/h
1391 30-10-2020 19:50:00 14.1 C 10.68 g/m*3 14.1 C 6.4 km/h
1392 30-10-2020 19:55:00 14.2 C 10.75 g/m*3 14.2 C 3.2 km/h
1393 30-10-2020 20:00:00 14.2 C 10.75 g/m*3 14.2 C 8.1 km/h
1394 30-10-2020 20:05:00 14.2 C 10.75 g/m*3 14.2 C 6.4 km/h
1395 30-10-2020 20:10:00 14.2 C 10.75 g/m*3 14.2 C 12.9 km/h
1396 30-10-2020 20:15:00 14.2 C 10.62 g/m*3 14.2 C 14.5 km/h
1397 30-10-2020 20:20:00 14.3 C 10.81 g/m*3 14.3 C 12.9 km/h
1398 30-10-2020 20:25:00 14.3 C 10.81 g/m*3 14.3 C 14.5 km/h
1399 30-10-2020 20:30:00 14.3 C 10.69 g/m*3 14.3 C 12.9 km/h
1400 30-10-2020 20:35:00 14.3 C 10.69 g/m*3 14.3 C 11.3 km/h
Sensor: Nr:Datum:Temp:Abs-Feuchte:Windchill:Wind:
Aussen-T/F 1401 30-10-2020 20:40:00 14.3 C 10.69 g/m*3 14.3 C 9.7 km/h
1402 30-10-2020 20:45:00 14.3 C 10.69 g/m*3 14.3 C 8.1 km/h
1403 30-10-2020 20:50:00 14.3 C 10.69 g/m*3 14.3 C 8.1 km/h
1404 30-10-2020 20:55:00 14.3 C 10.69 g/m*3 14.3 C 8.1 km/h
1405 30-10-2020 21:00:00 14.3 C 10.69 g/m*3 14.3 C 14.5 km/h
1406 30-10-2020 21:05:00 14.3 C 10.69 g/m*3 14.3 C 11.3 km/h
1407 30-10-2020 21:10:00 14.3 C 10.69 g/m*3 14.3 C 9.7 km/h
1408 30-10-2020 21:15:00 14.2 C 10.62 g/m*3 14.2 C 8.1 km/h
1409 30-10-2020 21:20:00 14.2 C 10.62 g/m*3 14.2 C 11.3 km/h
1410 30-10-2020 21:25:00 14.2 C 10.62 g/m*3 14.2 C 11.3 km/h
1411 30-10-2020 21:30:00 14.2 C 10.62 g/m*3 14.2 C 8.1 km/h
1412 30-10-2020 21:35:00 14.2 C 10.75 g/m*3 14.2 C 9.7 km/h
1413 30-10-2020 21:40:00 14.1 C 10.68 g/m*3 14.1 C 9.7 km/h
1414 30-10-2020 21:45:00 14.1 C 10.68 g/m*3 14.1 C 8.1 km/h
1415 30-10-2020 21:50:00 14 C 10.49 g/m*3 14 C 11.3 km/h
1416 30-10-2020 21:55:00 14 C 10.61 g/m*3 14 C 6.4 km/h
1417 30-10-2020 22:00:00 14 C 10.61 g/m*3 14 C 9.7 km/h
1418 30-10-2020 22:05:00 13.9 C 10.43 g/m*3 13.9 C 12.9 km/h
1419 30-10-2020 22:10:00 13.9 C 10.43 g/m*3 13.9 C 9.7 km/h
1420 30-10-2020 22:15:00 13.9 C 10.43 g/m*3 13.9 C 11.3 km/h
1421 30-10-2020 22:20:00 13.8 C 10.37 g/m*3 13.8 C 11.3 km/h
1422 30-10-2020 22:25:00 13.8 C 10.48 g/m*3 13.8 C 8.1 km/h
1423 30-10-2020 22:30:00 13.7 C 10.42 g/m*3 13.7 C 6.4 km/h
1424 30-10-2020 22:35:00 13.7 C 10.42 g/m*3 13.7 C 9.7 km/h
1425 30-10-2020 22:40:00 13.7 C 10.42 g/m*3 13.7 C 11.3 km/h
Sensor: Nr:Datum:Temp:Abs-Feuchte:Windchill:Wind:
Aussen-T/F 1426 30-10-2020 22:45:00 13.6 C 10.36 g/m*3 13.6 C 6.4 km/h
1427 30-10-2020 22:50:00 13.6 C 10.36 g/m*3 13.6 C 9.7 km/h
1428 30-10-2020 22:55:00 13.6 C 10.36 g/m*3 13.6 C 9.7 km/h
1429 30-10-2020 23:00:00 13.6 C 10.36 g/m*3 13.6 C 9.7 km/h
1430 30-10-2020 23:05:00 13.6 C 10.36 g/m*3 13.6 C 9.7 km/h
1431 30-10-2020 23:10:00 13.7 C 10.42 g/m*3 13.7 C 12.9 km/h
1432 30-10-2020 23:15:00 13.7 C 10.42 g/m*3 13.7 C 11.3 km/h
1433 30-10-2020 23:20:00 13.7 C 10.3 g/m*3 13.7 C 6.4 km/h
1434 30-10-2020 23:25:00 13.7 C 10.3 g/m*3 13.7 C 8.1 km/h
1435 30-10-2020 23:30:00 13.7 C 10.3 g/m*3 13.7 C 12.9 km/h
1436 30-10-2020 23:35:00 13.8 C 10.37 g/m*3 13.8 C 6.4 km/h
1437 30-10-2020 23:40:00 13.7 C 10.3 g/m*3 13.7 C 11.3 km/h
1438 30-10-2020 23:45:00 13.7 C 10.3 g/m*3 13.7 C 9.7 km/h
1439 30-10-2020 23:50:00 13.7 C 10.3 g/m*3 13.7 C 12.9 km/h
1440 30-10-2020 23:55:00 13.7 C 10.3 g/m*3 13.7 C 11.3 km/h
1441 31-10-2020 00:00:00 13.7 C 10.18 g/m*3 13.7 C 11.3 km/h
1442 31-10-2020 00:05:00 13.8 C 10.25 g/m*3 13.8 C 9.7 km/h
1443 31-10-2020 00:10:00 13.7 C 10.18 g/m*3 13.7 C 11.3 km/h
1444 31-10-2020 00:15:00 13.7 C 10.18 g/m*3 13.7 C 9.7 km/h
1445 31-10-2020 00:20:00 13.7 C 10.18 g/m*3 13.7 C 6.4 km/h
1446 31-10-2020 00:25:00 13.7 C 10.18 g/m*3 13.7 C 9.7 km/h
1447 31-10-2020 00:30:00 13.7 C 10.18 g/m*3 13.7 C 11.3 km/h
1448 31-10-2020 00:35:00 13.7 C 10.18 g/m*3 13.7 C 8.1 km/h
1449 31-10-2020 00:40:00 13.7 C 10.3 g/m*3 13.7 C 11.3 km/h
1450 31-10-2020 00:45:00 13.7 C 10.18 g/m*3 13.7 C 9.7 km/h
Sensor: Nr:Datum:Temp:Abs-Feuchte:Windchill:Wind:
Aussen-T/F 1451 31-10-2020 00:50:00 13.7 C 10.18 g/m*3 13.7 C 9.7 km/h
1452 31-10-2020 00:55:00 13.7 C 10.18 g/m*3 13.7 C 8.1 km/h
1453 31-10-2020 01:00:00 13.7 C 10.18 g/m*3 13.7 C 14.5 km/h
1454 31-10-2020 01:05:00 13.7 C 10.18 g/m*3 13.7 C 4.8 km/h
1455 31-10-2020 01:10:00 13.7 C 10.18 g/m*3 13.7 C 3.2 km/h
1456 31-10-2020 01:15:00 13.7 C 10.18 g/m*3 13.7 C 6.4 km/h
1457 31-10-2020 01:20:00 13.7 C 10.3 g/m*3 13.7 C 8.1 km/h
1458 31-10-2020 01:25:00 13.6 C 10.24 g/m*3 13.6 C 4.8 km/h
1459 31-10-2020 01:30:00 13.6 C 10.24 g/m*3 13.6 C 6.4 km/h
1460 31-10-2020 01:35:00 13.6 C 10.24 g/m*3 13.6 C 4.8 km/h
1461 31-10-2020 01:40:00 13.6 C 10.24 g/m*3 13.6 C 6.4 km/h
1462 31-10-2020 01:45:00 13.6 C 10.24 g/m*3 13.6 C 6.4 km/h
1463 31-10-2020 01:50:00 13.5 C 10.18 g/m*3 13.5 C 8.1 km/h
1464 31-10-2020 01:55:00 13.5 C 10.18 g/m*3 13.5 C 6.4 km/h
1465 31-10-2020 02:00:00 13.5 C 10.18 g/m*3 13.5 C 6.4 km/h
1466 31-10-2020 02:05:00 13.6 C 10.24 g/m*3 13.6 C 8.1 km/h
1467 31-10-2020 02:10:00 13.6 C 10.24 g/m*3 13.6 C 8.1 km/h
1468 31-10-2020 02:15:00 13.6 C 10.24 g/m*3 13.6 C 6.4 km/h
1469 31-10-2020 02:20:00 13.5 C 10.18 g/m*3 13.5 C 3.2 km/h
1470 31-10-2020 02:25:00 13.6 C 10.24 g/m*3 13.6 C 9.7 km/h
1471 31-10-2020 02:30:00 13.6 C 10.12 g/m*3 13.6 C 6.4 km/h
1472 31-10-2020 02:35:00 13.6 C 10.12 g/m*3 13.6 C 4.8 km/h
1473 31-10-2020 02:40:00 13.6 C 10.12 g/m*3 13.6 C 9.7 km/h
1474 31-10-2020 02:45:00 13.6 C 10.12 g/m*3 13.6 C 4.8 km/h
1475 31-10-2020 02:50:00 13.6 C 10.12 g/m*3 13.6 C 3.2 km/h
Sensor: Nr:Datum:Temp:Abs-Feuchte:Windchill:Wind:
Aussen-T/F 1476 31-10-2020 02:55:00 13.6 C 10.12 g/m*3 13.6 C 1.6 km/h
1477 31-10-2020 03:00:00 13.6 C 10.12 g/m*3 13.6 C 3.2 km/h
1478 31-10-2020 03:05:00 13.6 C 10.12 g/m*3 13.6 C 1.6 km/h
1479 31-10-2020 03:10:00 13.6 C 10.12 g/m*3 13.6 C 3.2 km/h
1480 31-10-2020 03:15:00 13.6 C 10.24 g/m*3 13.6 C 1.6 km/h
1481 31-10-2020 03:20:00 13.5 C 10.18 g/m*3 13.5 C 4.8 km/h
1482 31-10-2020 03:25:00 13.5 C 10.18 g/m*3 13.5 C 0 km/h
1483 31-10-2020 03:30:00 13.4 C 10.11 g/m*3 13.4 C 0 km/h
1484 31-10-2020 03:35:00 13.4 C 10.11 g/m*3 13.4 C 0 km/h
1485 31-10-2020 03:40:00 13.3 C 10.05 g/m*3 13.3 C 3.2 km/h
1486 31-10-2020 03:45:00 13.3 C 10.17 g/m*3 13.3 C 0 km/h
1487 31-10-2020 03:50:00 13.2 C 10.1 g/m*3 13.2 C 1.6 km/h
1488 31-10-2020 03:55:00 13.2 C 10.1 g/m*3 13.2 C 0 km/h
1489 31-10-2020 04:00:00 13.1 C 10.16 g/m*3 13.1 C 0 km/h
1490 31-10-2020 04:05:00 13 C 10.09 g/m*3 13 C 1.6 km/h
1491 31-10-2020 04:10:00 12.9 C 10.03 g/m*3 12.9 C 0 km/h
1492 31-10-2020 04:15:00 12.8 C 9.97 g/m*3 12.8 C 0 km/h
1493 31-10-2020 04:20:00 12.8 C 9.97 g/m*3 12.8 C 0 km/h
1494 31-10-2020 04:25:00 12.7 C 9.91 g/m*3 12.7 C 0 km/h
1495 31-10-2020 04:30:00 12.7 C 10.02 g/m*3 12.7 C 0 km/h
1496 31-10-2020 04:35:00 12.7 C 10.02 g/m*3 12.7 C 0 km/h
1497 31-10-2020 04:40:00 12.6 C 9.96 g/m*3 12.6 C 0 km/h
1498 31-10-2020 04:45:00 12.6 C 10.07 g/m*3 12.6 C 0 km/h
1499 31-10-2020 04:50:00 12.6 C 10.07 g/m*3 12.6 C 0 km/h
1500 31-10-2020 04:55:00 12.6 C 10.07 g/m*3 12.6 C 0 km/h
Sensor: Nr:Datum:Temp:Abs-Feuchte:Windchill:Wind:
Aussen-T/F 1501 31-10-2020 05:00:00 12.6 C 10.07 g/m*3 12.6 C 0 km/h
1502 31-10-2020 05:05:00 12.6 C 10.07 g/m*3 12.6 C 0 km/h
1503 31-10-2020 05:10:00 12.6 C 10.07 g/m*3 12.6 C 0 km/h
1504 31-10-2020 05:15:00 12.5 C 10 g/m*3 12.5 C 0 km/h
1505 31-10-2020 05:20:00 12.4 C 9.94 g/m*3 12.4 C 0 km/h
1506 31-10-2020 05:25:00 12.3 C 9.88 g/m*3 12.3 C 0 km/h
1507 31-10-2020 05:30:00 12.3 C 9.88 g/m*3 12.3 C 0 km/h
1508 31-10-2020 05:35:00 12.3 C 9.88 g/m*3 12.3 C 0 km/h
1509 31-10-2020 05:40:00 12.3 C 9.99 g/m*3 12.3 C 0 km/h
1510 31-10-2020 05:45:00 12.2 C 9.93 g/m*3 12.2 C 0 km/h
1511 31-10-2020 05:50:00 12.2 C 9.82 g/m*3 12.2 C 0 km/h
1512 31-10-2020 05:55:00 12.2 C 9.93 g/m*3 12.2 C 0 km/h
1513 31-10-2020 06:00:00 12.2 C 9.93 g/m*3 12.2 C 0 km/h
1514 31-10-2020 06:05:00 12.2 C 9.93 g/m*3 12.2 C 0 km/h
1515 31-10-2020 06:10:00 12.2 C 9.93 g/m*3 12.2 C 0 km/h
1516 31-10-2020 06:15:00 12.2 C 9.93 g/m*3 12.2 C 0 km/h
1517 31-10-2020 06:20:00 12.2 C 9.93 g/m*3 12.2 C 0 km/h
1518 31-10-2020 06:25:00 12.2 C 9.93 g/m*3 12.2 C 0 km/h
1519 31-10-2020 06:30:00 12.2 C 9.93 g/m*3 12.2 C 0 km/h
1520 31-10-2020 06:35:00 12.1 C 9.87 g/m*3 12.1 C 0 km/h
1521 31-10-2020 06:40:00 12.1 C 9.87 g/m*3 12.1 C 0 km/h
1522 31-10-2020 06:45:00 12.1 C 9.87 g/m*3 12.1 C 0 km/h
1523 31-10-2020 06:50:00 12.1 C 9.87 g/m*3 12.1 C 0 km/h
1524 31-10-2020 06:55:00 12.1 C 9.87 g/m*3 12.1 C 0 km/h
1525 31-10-2020 07:00:00 12.1 C 9.87 g/m*3 12.1 C 0 km/h
Sensor: Nr:Datum:Temp:Abs-Feuchte:Windchill:Wind:
Aussen-T/F 1526 31-10-2020 07:05:00 12 C 9.8 g/m*3 12 C 0 km/h
1527 31-10-2020 07:10:00 12 C 9.8 g/m*3 12 C 0 km/h
1528 31-10-2020 07:15:00 12 C 9.8 g/m*3 12 C 0 km/h
1529 31-10-2020 07:20:00 12 C 9.8 g/m*3 12 C 0 km/h
1530 31-10-2020 07:25:00 12 C 9.8 g/m*3 12 C 0 km/h
1531 31-10-2020 07:30:00 12 C 9.91 g/m*3 12 C 0 km/h
1532 31-10-2020 07:35:00 12 C 9.91 g/m*3 12 C 0 km/h
1533 31-10-2020 07:40:00 12.1 C 9.97 g/m*3 12.1 C 0 km/h
1534 31-10-2020 07:45:00 12.1 C 9.97 g/m*3 12.1 C 0 km/h
1535 31-10-2020 07:50:00 12.1 C 9.97 g/m*3 12.1 C 0 km/h
1536 31-10-2020 07:55:00 12.1 C 9.97 g/m*3 12.1 C 0 km/h
1537 31-10-2020 08:00:00 12.1 C 9.97 g/m*3 12.1 C 0 km/h
1538 31-10-2020 08:05:00 12.1 C 9.97 g/m*3 12.1 C 0 km/h
1539 31-10-2020 08:10:00 12.1 C 9.97 g/m*3 12.1 C 0 km/h
1540 31-10-2020 08:15:00 12.2 C 10.04 g/m*3 12.2 C 0 km/h
1541 31-10-2020 08:20:00 12.2 C 10.04 g/m*3 12.2 C 1.6 km/h
1542 31-10-2020 08:25:00 12.2 C 10.04 g/m*3 12.2 C 0 km/h
1543 31-10-2020 08:30:00 12.3 C 10.1 g/m*3 12.3 C 0 km/h
1544 31-10-2020 08:35:00 12.4 C 10.16 g/m*3 12.4 C 0 km/h
1545 31-10-2020 08:40:00 12.4 C 10.16 g/m*3 12.4 C 0 km/h
1546 31-10-2020 08:45:00 12.5 C 10.22 g/m*3 12.5 C 0 km/h
1547 31-10-2020 08:50:00 12.6 C 10.18 g/m*3 12.6 C 1.6 km/h
1548 31-10-2020 08:55:00 12.7 C 10.13 g/m*3 12.7 C 1.6 km/h
1549 31-10-2020 09:00:00 12.7 C 10.13 g/m*3 12.7 C 0 km/h
1550 31-10-2020 09:05:00 12.8 C 10.19 g/m*3 12.8 C 0 km/h
Sensor: Nr:Datum:Temp:Abs-Feuchte:Windchill:Wind:
Aussen-T/F 1551 31-10-2020 09:10:00 12.8 C 10.08 g/m*3 12.8 C 0 km/h
1552 31-10-2020 09:15:00 12.9 C 10.03 g/m*3 12.9 C 9.7 km/h
1553 31-10-2020 09:20:00 13.1 C 9.81 g/m*3 13.1 C 4.8 km/h
1554 31-10-2020 09:25:00 13.2 C 9.76 g/m*3 13.2 C 4.8 km/h
1555 31-10-2020 09:30:00 13.3 C 9.82 g/m*3 13.3 C 1.6 km/h
1556 31-10-2020 09:35:00 13.4 C 9.53 g/m*3 13.4 C 6.4 km/h
1557 31-10-2020 09:40:00 13.6 C 9.53 g/m*3 13.6 C 3.2 km/h
1558 31-10-2020 09:45:00 13.7 C 9.35 g/m*3 13.7 C 3.2 km/h
1559 31-10-2020 09:50:00 13.8 C 9.53 g/m*3 13.8 C 0 km/h
1560 31-10-2020 09:55:00 13.8 C 9.53 g/m*3 13.8 C 3.2 km/h
1561 31-10-2020 10:00:00 13.8 C 9.53 g/m*3 13.8 C 8.1 km/h
1562 31-10-2020 10:05:00 13.8 C 9.29 g/m*3 13.8 C 3.2 km/h
1563 31-10-2020 10:10:00 13.8 C 9.53 g/m*3 13.8 C 0 km/h
1564 31-10-2020 10:15:00 13.8 C 9.65 g/m*3 13.8 C 0 km/h
1565 31-10-2020 10:20:00 13.8 C 9.77 g/m*3 13.8 C 0 km/h
1566 31-10-2020 10:25:00 13.7 C 9.35 g/m*3 13.7 C 4.8 km/h
1567 31-10-2020 10:30:00 13.8 C 9.41 g/m*3 13.8 C 9.7 km/h
1568 31-10-2020 10:35:00 13.8 C 9.53 g/m*3 13.8 C 3.2 km/h
1569 31-10-2020 10:40:00 13.8 C 9.53 g/m*3 13.8 C 6.4 km/h
1570 31-10-2020 10:45:00 13.8 C 9.29 g/m*3 13.8 C 11.3 km/h
1571 31-10-2020 10:50:00 13.8 C 9.29 g/m*3 13.8 C 4.8 km/h
1572 31-10-2020 10:55:00 13.8 C 9.53 g/m*3 13.8 C 4.8 km/h
1573 31-10-2020 11:00:00 13.8 C 9.77 g/m*3 13.8 C 4.8 km/h
1574 31-10-2020 11:05:00 13.8 C 9.65 g/m*3 13.8 C 4.8 km/h
1575 31-10-2020 11:10:00 13.7 C 9.47 g/m*3 13.7 C 12.9 km/h
Sensor: Nr:Datum:Temp:Abs-Feuchte:Windchill:Wind:
Aussen-T/F 1576 31-10-2020 11:15:00 13.7 C 9.59 g/m*3 13.7 C 4.8 km/h
1577 31-10-2020 11:20:00 13.6 C 9.77 g/m*3 13.6 C 0 km/h
1578 31-10-2020 11:25:00 13.6 C 9.65 g/m*3 13.6 C 0 km/h
1579 31-10-2020 11:30:00 13.6 C 9.65 g/m*3 13.6 C 0 km/h
1580 31-10-2020 11:35:00 13.6 C 9.65 g/m*3 13.6 C 4.8 km/h
1581 31-10-2020 11:40:00 13.6 C 9.77 g/m*3 13.6 C 4.8 km/h
1582 31-10-2020 11:45:00 13.6 C 9.53 g/m*3 13.6 C 3.2 km/h
1583 31-10-2020 11:50:00 13.7 C 9.83 g/m*3 13.7 C 0 km/h
1584 31-10-2020 11:55:00 13.7 C 9.59 g/m*3 13.7 C 3.2 km/h
1585 31-10-2020 12:00:00 13.8 C 9.77 g/m*3 13.8 C 4.8 km/h
1586 31-10-2020 12:05:00 13.8 C 9.77 g/m*3 13.8 C 6.4 km/h
1587 31-10-2020 12:10:00 13.9 C 9.71 g/m*3 13.9 C 3.2 km/h
1588 31-10-2020 12:15:00 14 C 9.77 g/m*3 14 C 1.6 km/h
1589 31-10-2020 12:20:00 14.1 C 9.59 g/m*3 14.1 C 6.4 km/h
1590 31-10-2020 12:25:00 14.3 C 9.71 g/m*3 14.3 C 6.4 km/h
1591 31-10-2020 12:30:00 14.4 C 9.77 g/m*3 14.4 C 6.4 km/h
1592 31-10-2020 12:35:00 14.5 C 9.7 g/m*3 14.5 C 4.8 km/h
1593 31-10-2020 12:40:00 14.6 C 10.01 g/m*3 14.6 C 4.8 km/h
1594 31-10-2020 12:45:00 14.6 C 10.14 g/m*3 14.6 C 4.8 km/h
1595 31-10-2020 12:50:00 14.6 C 9.64 g/m*3 14.6 C 8.1 km/h
1596 31-10-2020 12:55:00 14.8 C 10.01 g/m*3 14.8 C 9.7 km/h
1597 31-10-2020 13:00:00 14.9 C 10.07 g/m*3 14.9 C 4.8 km/h
1598 31-10-2020 13:05:00 14.9 C 9.69 g/m*3 14.9 C 4.8 km/h
1599 31-10-2020 13:10:00 15.1 C 10.06 g/m*3 15.1 C 1.6 km/h
1600 31-10-2020 13:15:00 15.2 C 9.86 g/m*3 15.2 C 11.3 km/h
Sensor: Nr:Datum:Temp:Abs-Feuchte:Windchill:Wind:
Aussen-T/F 1601 31-10-2020 13:20:00 15.3 C 9.79 g/m*3 15.3 C 16.1 km/h
1602 31-10-2020 13:25:00 15.4 C 9.85 g/m*3 15.4 C 1.6 km/h
1603 31-10-2020 13:30:00 15.5 C 10.18 g/m*3 15.5 C 1.6 km/h
1604 31-10-2020 13:35:00 15.6 C 10.24 g/m*3 15.6 C 1.6 km/h
1605 31-10-2020 13:40:00 15.6 C 10.24 g/m*3 15.6 C 3.2 km/h
1606 31-10-2020 13:45:00 15.7 C 10.03 g/m*3 15.7 C 3.2 km/h
1607 31-10-2020 13:50:00 15.7 C 9.9 g/m*3 15.7 C 3.2 km/h
1608 31-10-2020 13:55:00 15.8 C 10.23 g/m*3 15.8 C 3.2 km/h
1609 31-10-2020 14:00:00 15.8 C 10.23 g/m*3 15.8 C 0 km/h
1610 31-10-2020 14:05:00 15.9 C 10.29 g/m*3 15.9 C 3.2 km/h
1611 31-10-2020 14:10:00 15.9 C 10.56 g/m*3 15.9 C 4.8 km/h
1612 31-10-2020 14:15:00 15.9 C 10.16 g/m*3 15.9 C 3.2 km/h
1613 31-10-2020 14:20:00 15.9 C 10.02 g/m*3 15.9 C 8.1 km/h
1614 31-10-2020 14:25:00 16 C 10.22 g/m*3 16 C 6.4 km/h
1615 31-10-2020 14:30:00 15.9 C 10.43 g/m*3 15.9 C 1.6 km/h
1616 31-10-2020 14:35:00 15.8 C 10.36 g/m*3 15.8 C 6.4 km/h
1617 31-10-2020 14:40:00 15.7 C 10.44 g/m*3 15.7 C 6.4 km/h
1618 31-10-2020 14:45:00 15.5 C 10.44 g/m*3 15.5 C 4.8 km/h
1619 31-10-2020 14:50:00 15.3 C 10.32 g/m*3 15.3 C 4.8 km/h
1620 31-10-2020 14:55:00 15.2 C 10.38 g/m*3 15.2 C 4.8 km/h
1621 31-10-2020 15:00:00 15.1 C 10.32 g/m*3 15.1 C 1.6 km/h
1622 31-10-2020 15:05:00 15 C 10.39 g/m*3 15 C 4.8 km/h
1623 31-10-2020 15:10:00 14.8 C 10.13 g/m*3 14.8 C 4.8 km/h
1624 31-10-2020 15:15:00 14.8 C 10.26 g/m*3 14.8 C 3.2 km/h
1625 31-10-2020 15:20:00 14.8 C 10.26 g/m*3 14.8 C 8.1 km/h
Sensor: Nr:Datum:Temp:Abs-Feuchte:Windchill:Wind:
Aussen-T/F 1626 31-10-2020 15:25:00 14.8 C 10.39 g/m*3 14.8 C 4.8 km/h
1627 31-10-2020 15:30:00 14.7 C 10.32 g/m*3 14.7 C 4.8 km/h
1628 31-10-2020 15:35:00 14.6 C 10.39 g/m*3 14.6 C 4.8 km/h
1629 31-10-2020 15:40:00 14.5 C 10.32 g/m*3 14.5 C 4.8 km/h
1630 31-10-2020 15:45:00 14.3 C 10.2 g/m*3 14.3 C 3.2 km/h
1631 31-10-2020 15:50:00 14.2 C 10.26 g/m*3 14.2 C 4.8 km/h
1632 31-10-2020 15:55:00 14.1 C 10.19 g/m*3 14.1 C 6.4 km/h
1633 31-10-2020 16:00:00 13.9 C 10.19 g/m*3 13.9 C 4.8 km/h
1634 31-10-2020 16:05:00 13.8 C 10.13 g/m*3 13.8 C 4.8 km/h
1635 31-10-2020 16:10:00 13.7 C 10.07 g/m*3 13.7 C 3.2 km/h
1636 31-10-2020 16:15:00 13.5 C 10.06 g/m*3 13.5 C 3.2 km/h
1637 31-10-2020 16:20:00 13.5 C 10.06 g/m*3 13.5 C 8.1 km/h
1638 31-10-2020 16:25:00 13.4 C 10.11 g/m*3 13.4 C 4.8 km/h
1639 31-10-2020 16:30:00 13.4 C 10.11 g/m*3 13.4 C 4.8 km/h
1640 31-10-2020 16:35:00 13.4 C 10.11 g/m*3 13.4 C 4.8 km/h
1641 31-10-2020 16:40:00 13.4 C 10.11 g/m*3 13.4 C 3.2 km/h
1642 31-10-2020 16:45:00 13.3 C 10.05 g/m*3 13.3 C 0 km/h
1643 31-10-2020 16:50:00 13.2 C 9.99 g/m*3 13.2 C 4.8 km/h
1644 31-10-2020 16:55:00 13.1 C 9.93 g/m*3 13.1 C 6.4 km/h
1645 31-10-2020 17:00:00 13 C 9.87 g/m*3 13 C 4.8 km/h
1646 31-10-2020 17:05:00 12.9 C 9.92 g/m*3 12.9 C 4.8 km/h
1647 31-10-2020 17:10:00 12.7 C 9.8 g/m*3 12.7 C 3.2 km/h
1648 31-10-2020 17:15:00 12.6 C 9.74 g/m*3 12.6 C 6.4 km/h
1649 31-10-2020 17:20:00 12.4 C 9.62 g/m*3 12.4 C 4.8 km/h
1650 31-10-2020 17:25:00 12.3 C 9.56 g/m*3 12.3 C 4.8 km/h
Sensor: Nr:Datum:Temp:Abs-Feuchte:Windchill:Wind:
Aussen-T/F 1651 31-10-2020 17:30:00 12.2 C 9.5 g/m*3 12.2 C 6.4 km/h
1652 31-10-2020 17:35:00 12 C 9.48 g/m*3 12 C 4.8 km/h
1653 31-10-2020 17:40:00 11.9 C 9.43 g/m*3 11.9 C 3.2 km/h
1654 31-10-2020 17:45:00 11.8 C 9.37 g/m*3 11.8 C 4.8 km/h
1655 31-10-2020 17:50:00 11.7 C 9.41 g/m*3 11.7 C 6.4 km/h
1656 31-10-2020 17:55:00 11.7 C 9.41 g/m*3 11.7 C 4.8 km/h
1657 31-10-2020 18:00:00 11.6 C 9.35 g/m*3 11.6 C 4.8 km/h
1658 31-10-2020 18:05:00 11.5 C 9.3 g/m*3 11.5 C 4.8 km/h
1659 31-10-2020 18:10:00 11.4 C 9.34 g/m*3 11.4 C 4.8 km/h
1660 31-10-2020 18:15:00 11.4 C 9.34 g/m*3 11.4 C 4.8 km/h
1661 31-10-2020 18:20:00 11.3 C 9.28 g/m*3 11.3 C 3.2 km/h
1662 31-10-2020 18:25:00 11.3 C 9.28 g/m*3 11.3 C 6.4 km/h
1663 31-10-2020 18:30:00 11.2 C 9.22 g/m*3 11.2 C 6.4 km/h
1664 31-10-2020 18:35:00 11.2 C 9.33 g/m*3 11.2 C 0 km/h
1665 31-10-2020 18:40:00 11.2 C 9.33 g/m*3 11.2 C 1.6 km/h
1666 31-10-2020 18:45:00 11.1 C 9.27 g/m*3 11.1 C 3.2 km/h
1667 31-10-2020 18:50:00 11.1 C 9.27 g/m*3 11.1 C 4.8 km/h
1668 31-10-2020 18:55:00 11.1 C 9.27 g/m*3 11.1 C 6.4 km/h
1669 31-10-2020 19:00:00 11.2 C 9.33 g/m*3 11.2 C 4.8 km/h
1670 31-10-2020 19:05:00 11.2 C 9.33 g/m*3 11.2 C 6.4 km/h
1671 31-10-2020 19:10:00 11.2 C 9.33 g/m*3 11.2 C 6.4 km/h
1672 31-10-2020 19:15:00 11.3 C 9.38 g/m*3 11.3 C 6.4 km/h
1673 31-10-2020 19:20:00 11.3 C 9.38 g/m*3 11.3 C 3.2 km/h
1674 31-10-2020 19:25:00 11.3 C 9.38 g/m*3 11.3 C 6.4 km/h
1675 31-10-2020 19:30:00 11.4 C 9.44 g/m*3 11.4 C 3.2 km/h
Sensor: Nr:Datum:Temp:Abs-Feuchte:Windchill:Wind:
Aussen-T/F 1676 31-10-2020 19:35:00 11.4 C 9.44 g/m*3 11.4 C 1.6 km/h
1677 31-10-2020 19:40:00 11.5 C 9.5 g/m*3 11.5 C 0 km/h
1678 31-10-2020 19:45:00 11.6 C 9.56 g/m*3 11.6 C 0 km/h
1679 31-10-2020 19:50:00 11.7 C 9.62 g/m*3 11.7 C 0 km/h
1680 31-10-2020 19:55:00 11.7 C 9.62 g/m*3 11.7 C 0 km/h
1681 31-10-2020 20:00:00 11.8 C 9.68 g/m*3 11.8 C 0 km/h
1682 31-10-2020 20:05:00 11.8 C 9.58 g/m*3 11.8 C 0 km/h
1683 31-10-2020 20:10:00 11.8 C 9.58 g/m*3 11.8 C 0 km/h
1684 31-10-2020 20:15:00 11.9 C 9.74 g/m*3 11.9 C 4.8 km/h
1685 31-10-2020 20:20:00 11.9 C 9.64 g/m*3 11.9 C 1.6 km/h
1686 31-10-2020 20:25:00 11.9 C 9.64 g/m*3 11.9 C 4.8 km/h
1687 31-10-2020 20:30:00 12 C 9.7 g/m*3 12 C 1.6 km/h
1688 31-10-2020 20:35:00 12.1 C 9.76 g/m*3 12.1 C 0 km/h
1689 31-10-2020 20:40:00 12.1 C 9.76 g/m*3 12.1 C 0 km/h
1690 31-10-2020 20:45:00 12.1 C 9.76 g/m*3 12.1 C 1.6 km/h
1691 31-10-2020 20:50:00 12.2 C 9.82 g/m*3 12.2 C 1.6 km/h
1692 31-10-2020 20:55:00 12.2 C 9.82 g/m*3 12.2 C 3.2 km/h
1693 31-10-2020 21:00:00 12.2 C 9.82 g/m*3 12.2 C 0 km/h
1694 31-10-2020 21:05:00 12.3 C 9.88 g/m*3 12.3 C 0 km/h
1695 31-10-2020 21:10:00 12.3 C 9.88 g/m*3 12.3 C 4.8 km/h
1696 31-10-2020 21:15:00 12.3 C 9.77 g/m*3 12.3 C 3.2 km/h
1697 31-10-2020 21:20:00 12.3 C 9.77 g/m*3 12.3 C 0 km/h
1698 31-10-2020 21:25:00 12.4 C 9.83 g/m*3 12.4 C 1.6 km/h
1699 31-10-2020 21:30:00 12.5 C 9.89 g/m*3 12.5 C 0 km/h
1700 31-10-2020 21:35:00 12.6 C 9.96 g/m*3 12.6 C 0 km/h
Sensor: Nr:Datum:Temp:Abs-Feuchte:Windchill:Wind:
Aussen-T/F 1701 31-10-2020 21:40:00 12.7 C 10.02 g/m*3 12.7 C 0 km/h
1702 31-10-2020 21:45:00 12.8 C 10.19 g/m*3 12.8 C 1.6 km/h
1703 31-10-2020 21:50:00 12.9 C 10.26 g/m*3 12.9 C 0 km/h
1704 31-10-2020 21:55:00 12.9 C 10.26 g/m*3 12.9 C 3.2 km/h
1705 31-10-2020 22:00:00 12.8 C 10.3 g/m*3 12.8 C 3.2 km/h
1706 31-10-2020 22:05:00 12.8 C 10.3 g/m*3 12.8 C 4.8 km/h
1707 31-10-2020 22:10:00 12.8 C 10.3 g/m*3 12.8 C 1.6 km/h
1708 31-10-2020 22:15:00 12.7 C 10.24 g/m*3 12.7 C 3.2 km/h
1709 31-10-2020 22:20:00 12.7 C 10.24 g/m*3 12.7 C 0 km/h
1710 31-10-2020 22:25:00 12.6 C 10.29 g/m*3 12.6 C 0 km/h
1711 31-10-2020 22:30:00 12.6 C 10.29 g/m*3 12.6 C 0 km/h
1712 31-10-2020 22:35:00 12.6 C 10.29 g/m*3 12.6 C 1.6 km/h
1713 31-10-2020 22:40:00 12.6 C 10.4 g/m*3 12.6 C 0 km/h
1714 31-10-2020 22:45:00 12.7 C 10.46 g/m*3 12.7 C 1.6 km/h
1715 31-10-2020 22:50:00 12.7 C 10.46 g/m*3 12.7 C 3.2 km/h
1716 31-10-2020 22:55:00 12.8 C 10.53 g/m*3 12.8 C 1.6 km/h
1717 31-10-2020 23:00:00 12.8 C 10.53 g/m*3 12.8 C 1.6 km/h
1718 31-10-2020 23:05:00 12.8 C 10.53 g/m*3 12.8 C 4.8 km/h
1719 31-10-2020 23:10:00 12.9 C 10.59 g/m*3 12.9 C 8.1 km/h
1720 31-10-2020 23:15:00 13 C 10.66 g/m*3 13 C 6.4 km/h
1721 31-10-2020 23:20:00 13 C 10.66 g/m*3 13 C 9.7 km/h
1722 31-10-2020 23:25:00 13.1 C 10.73 g/m*3 13.1 C 8.1 km/h
1723 31-10-2020 23:30:00 13.1 C 10.73 g/m*3 13.1 C 6.4 km/h
1724 31-10-2020 23:35:00 13.2 C 10.79 g/m*3 13.2 C 6.4 km/h
1725 31-10-2020 23:40:00 13.2 C 10.79 g/m*3 13.2 C 1.6 km/h
Sensor: Nr:Datum:Temp:Abs-Feuchte:Windchill:Wind:
Aussen-T/F 1726 31-10-2020 23:45:00 13.2 C 10.79 g/m*3 13.2 C 6.4 km/h
1727 31-10-2020 23:50:00 13.2 C 10.91 g/m*3 13.2 C 6.4 km/h
1728 31-10-2020 23:55:00 13.2 C 10.91 g/m*3 13.2 C 6.4 km/h
1729 01-11-2020 00:00:00 13.1 C 10.84 g/m*3 13.1 C 4.8 km/h
1730 01-11-2020 00:05:00 13.1 C 10.84 g/m*3 13.1 C 1.6 km/h
1731 01-11-2020 00:10:00 13.1 C 10.84 g/m*3 13.1 C 1.6 km/h
1732 01-11-2020 00:15:00 13.1 C 10.84 g/m*3 13.1 C 1.6 km/h
1733 01-11-2020 00:20:00 13.1 C 10.84 g/m*3 13.1 C 1.6 km/h
1734 01-11-2020 00:25:00 13.1 C 10.84 g/m*3 13.1 C 3.2 km/h
1735 01-11-2020 00:30:00 13.1 C 10.84 g/m*3 13.1 C 3.2 km/h
1736 01-11-2020 00:35:00 13.1 C 10.84 g/m*3 13.1 C 3.2 km/h
1737 01-11-2020 00:40:00 13.1 C 10.84 g/m*3 13.1 C 0 km/h
1738 01-11-2020 00:45:00 13.1 C 10.84 g/m*3 13.1 C 1.6 km/h
1739 01-11-2020 00:50:00 13.1 C 10.84 g/m*3 13.1 C 4.8 km/h
1740 01-11-2020 00:55:00 13.1 C 10.84 g/m*3 13.1 C 0 km/h
1741 01-11-2020 01:00:00 13.1 C 10.84 g/m*3 13.1 C 1.6 km/h
1742 01-11-2020 01:05:00 13.1 C 10.84 g/m*3 13.1 C 0 km/h
1743 01-11-2020 01:10:00 13.1 C 10.84 g/m*3 13.1 C 1.6 km/h
1744 01-11-2020 01:15:00 13.1 C 10.84 g/m*3 13.1 C 0 km/h
1745 01-11-2020 01:20:00 13.1 C 10.84 g/m*3 13.1 C 3.2 km/h
1746 01-11-2020 01:25:00 13.1 C 10.84 g/m*3 13.1 C 0 km/h
1747 01-11-2020 01:30:00 13.1 C 10.84 g/m*3 13.1 C 1.6 km/h
1748 01-11-2020 01:35:00 13.1 C 10.95 g/m*3 13.1 C 1.6 km/h
1749 01-11-2020 01:40:00 13.2 C 11.02 g/m*3 13.2 C 0 km/h
1750 01-11-2020 01:45:00 13.2 C 11.02 g/m*3 13.2 C 0 km/h
Sensor: Nr:Datum:Temp:Abs-Feuchte:Windchill:Wind:
Aussen-T/F 1751 01-11-2020 01:50:00 13.2 C 11.02 g/m*3 13.2 C 1.6 km/h
1752 01-11-2020 01:55:00 13.2 C 11.02 g/m*3 13.2 C 0 km/h
1753 01-11-2020 02:00:00 13.2 C 11.02 g/m*3 13.2 C 0 km/h
1754 01-11-2020 02:05:00 13.2 C 11.02 g/m*3 13.2 C 3.2 km/h
1755 01-11-2020 02:10:00 13.2 C 11.02 g/m*3 13.2 C 4.8 km/h
1756 01-11-2020 02:15:00 13.2 C 11.02 g/m*3 13.2 C 4.8 km/h
1757 01-11-2020 02:20:00 13.2 C 11.02 g/m*3 13.2 C 1.6 km/h
1758 01-11-2020 02:25:00 13.2 C 11.02 g/m*3 13.2 C 0 km/h
1759 01-11-2020 02:30:00 13.2 C 11.02 g/m*3 13.2 C 0 km/h
1760 01-11-2020 02:35:00 13.2 C 11.02 g/m*3 13.2 C 0 km/h
1761 01-11-2020 02:40:00 13.2 C 11.02 g/m*3 13.2 C 0 km/h
1762 01-11-2020 02:45:00 13.1 C 10.95 g/m*3 13.1 C 0 km/h
1763 01-11-2020 02:50:00 13.1 C 10.95 g/m*3 13.1 C 0 km/h
1764 01-11-2020 02:55:00 13.1 C 10.95 g/m*3 13.1 C 0 km/h
1765 01-11-2020 03:00:00 13.1 C 10.95 g/m*3 13.1 C 0 km/h
1766 01-11-2020 03:05:00 13.1 C 10.95 g/m*3 13.1 C 0 km/h
1767 01-11-2020 03:10:00 13.1 C 10.95 g/m*3 13.1 C 0 km/h
1768 01-11-2020 03:15:00 13.1 C 10.95 g/m*3 13.1 C 0 km/h
1769 01-11-2020 03:20:00 13.1 C 10.95 g/m*3 13.1 C 0 km/h
1770 01-11-2020 03:25:00 13.1 C 10.95 g/m*3 13.1 C 0 km/h
1771 01-11-2020 03:30:00 13.1 C 10.95 g/m*3 13.1 C 0 km/h
1772 01-11-2020 03:35:00 13.1 C 10.95 g/m*3 13.1 C 0 km/h
1773 01-11-2020 03:40:00 13.1 C 10.95 g/m*3 13.1 C 0 km/h
1774 01-11-2020 03:45:00 13.1 C 10.95 g/m*3 13.1 C 0 km/h
1775 01-11-2020 03:50:00 13.1 C 10.95 g/m*3 13.1 C 0 km/h
Sensor: Nr:Datum:Temp:Abs-Feuchte:Windchill:Wind:
Aussen-T/F 1776 01-11-2020 03:55:00 13.1 C 10.95 g/m*3 13.1 C 0 km/h
1777 01-11-2020 04:00:00 13.1 C 10.95 g/m*3 13.1 C 0 km/h
1778 01-11-2020 04:05:00 13.1 C 10.95 g/m*3 13.1 C 0 km/h
1779 01-11-2020 04:10:00 13 C 10.89 g/m*3 13 C 0 km/h
1780 01-11-2020 04:15:00 13 C 10.89 g/m*3 13 C 0 km/h
1781 01-11-2020 04:20:00 13.1 C 10.95 g/m*3 13.1 C 0 km/h
1782 01-11-2020 04:25:00 13 C 10.89 g/m*3 13 C 0 km/h
1783 01-11-2020 04:30:00 13 C 10.89 g/m*3 13 C 0 km/h
1784 01-11-2020 04:35:00 13 C 10.89 g/m*3 13 C 0 km/h
1785 01-11-2020 04:40:00 13 C 10.89 g/m*3 13 C 0 km/h
1786 01-11-2020 04:45:00 13.1 C 10.95 g/m*3 13.1 C 0 km/h
1787 01-11-2020 04:50:00 13.1 C 10.95 g/m*3 13.1 C 0 km/h
1788 01-11-2020 04:55:00 13 C 10.89 g/m*3 13 C 0 km/h
1789 01-11-2020 05:00:00 12.9 C 10.82 g/m*3 12.9 C 0 km/h
1790 01-11-2020 05:05:00 12.9 C 10.82 g/m*3 12.9 C 0 km/h
1791 01-11-2020 05:10:00 12.8 C 10.75 g/m*3 12.8 C 0 km/h
1792 01-11-2020 05:15:00 12.8 C 10.75 g/m*3 12.8 C 0 km/h
1793 01-11-2020 05:20:00 12.8 C 10.75 g/m*3 12.8 C 0 km/h
1794 01-11-2020 05:25:00 12.8 C 10.75 g/m*3 12.8 C 0 km/h
1795 01-11-2020 05:30:00 12.8 C 10.75 g/m*3 12.8 C 0 km/h
1796 01-11-2020 05:35:00 12.8 C 10.75 g/m*3 12.8 C 0 km/h
1797 01-11-2020 05:40:00 12.7 C 10.69 g/m*3 12.7 C 0 km/h
1798 01-11-2020 05:45:00 12.7 C 10.69 g/m*3 12.7 C 0 km/h
1799 01-11-2020 05:50:00 12.6 C 10.62 g/m*3 12.6 C 0 km/h
1800 01-11-2020 05:55:00 12.6 C 10.62 g/m*3 12.6 C 0 km/h
Sensor: Nr:Datum:Temp:Abs-Feuchte:Windchill:Wind:
Aussen-T/F 1801 01-11-2020 06:00:00 12.6 C 10.62 g/m*3 12.6 C 0 km/h
1802 01-11-2020 06:05:00 12.6 C 10.62 g/m*3 12.6 C 0 km/h
1803 01-11-2020 06:10:00 12.6 C 10.62 g/m*3 12.6 C 0 km/h
1804 01-11-2020 06:15:00 12.6 C 10.62 g/m*3 12.6 C 0 km/h
1805 01-11-2020 06:20:00 12.6 C 10.62 g/m*3 12.6 C 0 km/h
1806 01-11-2020 06:25:00 12.5 C 10.55 g/m*3 12.5 C 0 km/h
1807 01-11-2020 06:30:00 12.5 C 10.55 g/m*3 12.5 C 0 km/h
1808 01-11-2020 06:35:00 12.5 C 10.66 g/m*3 12.5 C 0 km/h
1809 01-11-2020 06:40:00 12.5 C 10.66 g/m*3 12.5 C 0 km/h
1810 01-11-2020 06:45:00 12.4 C 10.6 g/m*3 12.4 C 0 km/h
1811 01-11-2020 06:50:00 12.4 C 10.6 g/m*3 12.4 C 0 km/h
1812 01-11-2020 06:55:00 12.4 C 10.6 g/m*3 12.4 C 0 km/h
1813 01-11-2020 07:00:00 12.4 C 10.6 g/m*3 12.4 C 0 km/h
1814 01-11-2020 07:05:00 12.4 C 10.6 g/m*3 12.4 C 0 km/h
1815 01-11-2020 07:10:00 12.4 C 10.49 g/m*3 12.4 C 0 km/h
1816 01-11-2020 07:15:00 12.4 C 10.6 g/m*3 12.4 C 0 km/h
1817 01-11-2020 07:20:00 12.5 C 10.66 g/m*3 12.5 C 0 km/h
1818 01-11-2020 07:25:00 12.5 C 10.66 g/m*3 12.5 C 0 km/h
1819 01-11-2020 07:30:00 12.6 C 10.73 g/m*3 12.6 C 0 km/h
1820 01-11-2020 07:35:00 12.6 C 10.73 g/m*3 12.6 C 0 km/h
1821 01-11-2020 07:40:00 12.6 C 10.73 g/m*3 12.6 C 0 km/h
1822 01-11-2020 07:45:00 12.7 C 10.8 g/m*3 12.7 C 0 km/h
1823 01-11-2020 07:50:00 12.7 C 10.8 g/m*3 12.7 C 0 km/h
1824 01-11-2020 07:55:00 12.8 C 10.87 g/m*3 12.8 C 0 km/h
1825 01-11-2020 08:00:00 12.8 C 10.87 g/m*3 12.8 C 0 km/h
Sensor: Nr:Datum:Temp:Abs-Feuchte:Windchill:Wind:
Aussen-T/F 1826 01-11-2020 08:05:00 12.8 C 10.87 g/m*3 12.8 C 0 km/h
1827 01-11-2020 08:10:00 12.9 C 10.93 g/m*3 12.9 C 0 km/h
1828 01-11-2020 08:15:00 12.9 C 10.93 g/m*3 12.9 C 0 km/h
1829 01-11-2020 08:20:00 13 C 11 g/m*3 13 C 0 km/h
1830 01-11-2020 08:25:00 13.1 C 11.07 g/m*3 13.1 C 0 km/h
1831 01-11-2020 08:30:00 13.2 C 11.14 g/m*3 13.2 C 0 km/h
1832 01-11-2020 08:35:00 13.2 C 11.14 g/m*3 13.2 C 0 km/h
1833 01-11-2020 08:40:00 13.3 C 11.21 g/m*3 13.3 C 0 km/h
1834 01-11-2020 08:45:00 13.3 C 11.21 g/m*3 13.3 C 0 km/h
1835 01-11-2020 08:50:00 13.4 C 11.28 g/m*3 13.4 C 0 km/h
1836 01-11-2020 08:55:00 13.4 C 11.28 g/m*3 13.4 C 0 km/h
1837 01-11-2020 09:00:00 13.5 C 11.35 g/m*3 13.5 C 0 km/h
1838 01-11-2020 09:05:00 13.6 C 11.42 g/m*3 13.6 C 0 km/h
1839 01-11-2020 09:10:00 13.7 C 11.49 g/m*3 13.7 C 0 km/h
1840 01-11-2020 09:15:00 13.7 C 11.49 g/m*3 13.7 C 0 km/h
1841 01-11-2020 09:20:00 13.7 C 11.49 g/m*3 13.7 C 0 km/h
1842 01-11-2020 09:25:00 13.8 C 11.56 g/m*3 13.8 C 0 km/h
1843 01-11-2020 09:30:00 13.8 C 11.56 g/m*3 13.8 C 0 km/h
1844 01-11-2020 09:35:00 13.8 C 11.56 g/m*3 13.8 C 6.4 km/h
1845 01-11-2020 09:40:00 14 C 11.7 g/m*3 14 C 9.7 km/h
1846 01-11-2020 09:45:00 14.2 C 11.84 g/m*3 14.2 C 3.2 km/h
1847 01-11-2020 09:50:00 14.3 C 12.04 g/m*3 14.3 C 6.4 km/h
1848 01-11-2020 09:55:00 14.4 C 11.99 g/m*3 14.4 C 1.6 km/h
1849 01-11-2020 10:00:00 14.6 C 12.14 g/m*3 14.6 C 9.7 km/h
1850 01-11-2020 10:05:00 14.6 C 12.14 g/m*3 14.6 C 6.4 km/h
Sensor: Nr:Datum:Temp:Abs-Feuchte:Windchill:Wind:
Aussen-T/F 1851 01-11-2020 10:10:00 14.6 C 12.14 g/m*3 14.6 C 12.9 km/h
1852 01-11-2020 10:15:00 14.7 C 12.21 g/m*3 14.7 C 9.7 km/h
1853 01-11-2020 10:20:00 14.8 C 12.16 g/m*3 14.8 C 8.1 km/h
1854 01-11-2020 10:25:00 14.9 C 12.24 g/m*3 14.9 C 12.9 km/h
1855 01-11-2020 10:30:00 15.1 C 12.26 g/m*3 15.1 C 12.9 km/h
1856 01-11-2020 10:35:00 15.2 C 12.2 g/m*3 15.2 C 11.3 km/h
1857 01-11-2020 10:40:00 15.3 C 12.14 g/m*3 15.3 C 11.3 km/h
1858 01-11-2020 10:45:00 15.5 C 12.16 g/m*3 15.5 C 14.5 km/h
1859 01-11-2020 10:50:00 15.6 C 12.23 g/m*3 15.6 C 8.1 km/h
1860 01-11-2020 10:55:00 15.7 C 12.18 g/m*3 15.7 C 11.3 km/h
1861 01-11-2020 11:00:00 15.7 C 12.04 g/m*3 15.7 C 9.7 km/h
1862 01-11-2020 11:05:00 15.8 C 12.25 g/m*3 15.8 C 3.2 km/h
1863 01-11-2020 11:10:00 16 C 12.4 g/m*3 16 C 3.2 km/h
1864 01-11-2020 11:15:00 16.1 C 12.34 g/m*3 16.1 C 11.3 km/h
1865 01-11-2020 11:20:00 16.2 C 12.41 g/m*3 16.2 C 3.2 km/h
1866 01-11-2020 11:25:00 16.3 C 12.49 g/m*3 16.3 C 1.6 km/h
1867 01-11-2020 11:30:00 16.4 C 12.42 g/m*3 16.4 C 4.8 km/h
1868 01-11-2020 11:35:00 16.6 C 12.43 g/m*3 16.6 C 8.1 km/h
1869 01-11-2020 11:40:00 16.7 C 12.51 g/m*3 16.7 C 3.2 km/h
1870 01-11-2020 11:45:00 16.7 C 12.36 g/m*3 16.7 C 0 km/h
1871 01-11-2020 11:50:00 16.8 C 12.44 g/m*3 16.8 C 6.4 km/h
1872 01-11-2020 11:55:00 16.9 C 12.51 g/m*3 16.9 C 0 km/h
1873 01-11-2020 12:00:00 16.9 C 12.51 g/m*3 16.9 C 1.6 km/h
1874 01-11-2020 12:05:00 16.9 C 12.51 g/m*3 16.9 C 11.3 km/h
1875 01-11-2020 12:10:00 16.8 C 12.3 g/m*3 16.8 C 4.8 km/h
Sensor: Nr:Datum:Temp:Abs-Feuchte:Windchill:Wind:
Aussen-T/F 1876 01-11-2020 12:15:00 16.7 C 12.36 g/m*3 16.7 C 1.6 km/h
1877 01-11-2020 12:20:00 16.7 C 12.22 g/m*3 16.7 C 9.7 km/h
1878 01-11-2020 12:25:00 16.7 C 12.36 g/m*3 16.7 C 1.6 km/h
1879 01-11-2020 12:30:00 16.7 C 12.51 g/m*3 16.7 C 3.2 km/h
1880 01-11-2020 12:35:00 16.7 C 12.36 g/m*3 16.7 C 1.6 km/h
1881 01-11-2020 12:40:00 16.8 C 12.58 g/m*3 16.8 C 1.6 km/h
1882 01-11-2020 12:45:00 16.8 C 12.58 g/m*3 16.8 C 1.6 km/h
1883 01-11-2020 12:50:00 16.8 C 12.58 g/m*3 16.8 C 1.6 km/h
1884 01-11-2020 12:55:00 16.8 C 12.44 g/m*3 16.8 C 1.6 km/h
1885 01-11-2020 13:00:00 16.8 C 12.44 g/m*3 16.8 C 4.8 km/h
1886 01-11-2020 13:05:00 16.9 C 12.51 g/m*3 16.9 C 9.7 km/h
1887 01-11-2020 13:10:00 16.9 C 12.66 g/m*3 16.9 C 6.4 km/h
1888 01-11-2020 13:15:00 16.9 C 12.51 g/m*3 16.9 C 9.7 km/h
1889 01-11-2020 13:20:00 16.9 C 12.51 g/m*3 16.9 C 9.7 km/h
1890 01-11-2020 13:25:00 16.9 C 12.66 g/m*3 16.9 C 8.1 km/h
1891 01-11-2020 13:30:00 16.9 C 12.66 g/m*3 16.9 C 8.1 km/h
1892 01-11-2020 13:35:00 16.9 C 12.66 g/m*3 16.9 C 6.4 km/h
1893 01-11-2020 13:40:00 17 C 12.59 g/m*3 17 C 4.8 km/h
1894 01-11-2020 13:45:00 17 C 12.73 g/m*3 17 C 8.1 km/h
1895 01-11-2020 13:50:00 17.1 C 12.66 g/m*3 17.1 C 12.9 km/h
1896 01-11-2020 13:55:00 17.1 C 12.66 g/m*3 17.1 C 14.5 km/h
1897 01-11-2020 14:00:00 17.1 C 12.81 g/m*3 17.1 C 12.9 km/h
1898 01-11-2020 14:05:00 16.9 C 12.66 g/m*3 16.9 C 12.9 km/h
1899 01-11-2020 14:10:00 16.9 C 12.8 g/m*3 16.9 C 11.3 km/h
1900 01-11-2020 14:15:00 16.8 C 12.72 g/m*3 16.8 C 9.7 km/h
Sensor: Nr:Datum:Temp:Abs-Feuchte:Windchill:Wind:
Aussen-T/F 1901 01-11-2020 14:20:00 16.8 C 12.72 g/m*3 16.8 C 8.1 km/h
1902 01-11-2020 14:25:00 16.8 C 12.72 g/m*3 16.8 C 8.1 km/h
1903 01-11-2020 14:30:00 16.8 C 12.72 g/m*3 16.8 C 11.3 km/h
1904 01-11-2020 14:35:00 16.8 C 12.72 g/m*3 16.8 C 9.7 km/h
1905 01-11-2020 14:40:00 16.7 C 12.51 g/m*3 16.7 C 14.5 km/h
1906 01-11-2020 14:45:00 16.8 C 12.58 g/m*3 16.8 C 17.7 km/h
1907 01-11-2020 14:50:00 16.8 C 12.58 g/m*3 16.8 C 17.7 km/h
1908 01-11-2020 14:55:00 16.8 C 12.58 g/m*3 16.8 C 12.9 km/h
1909 01-11-2020 15:00:00 16.8 C 12.58 g/m*3 16.8 C 12.9 km/h
1910 01-11-2020 15:05:00 16.8 C 12.58 g/m*3 16.8 C 9.7 km/h
1911 01-11-2020 15:10:00 16.7 C 12.51 g/m*3 16.7 C 14.5 km/h
1912 01-11-2020 15:15:00 16.7 C 12.51 g/m*3 16.7 C 20.9 km/h
1913 01-11-2020 15:20:00 16.7 C 12.51 g/m*3 16.7 C 17.7 km/h
1914 01-11-2020 15:25:00 16.7 C 12.51 g/m*3 16.7 C 14.5 km/h
1915 01-11-2020 15:30:00 16.7 C 12.51 g/m*3 16.7 C 17.7 km/h
1916 01-11-2020 15:35:00 16.7 C 12.51 g/m*3 16.7 C 17.7 km/h
1917 01-11-2020 15:40:00 16.7 C 12.51 g/m*3 16.7 C 22.5 km/h
1918 01-11-2020 15:45:00 16.7 C 12.36 g/m*3 16.7 C 16.1 km/h
1919 01-11-2020 15:50:00 16.7 C 12.36 g/m*3 16.7 C 22.5 km/h
1920 01-11-2020 15:55:00 16.7 C 12.36 g/m*3 16.7 C 14.5 km/h
1921 01-11-2020 16:00:00 16.7 C 12.51 g/m*3 16.7 C 16.1 km/h
1922 01-11-2020 16:05:00 16.7 C 12.51 g/m*3 16.7 C 17.7 km/h
1923 01-11-2020 16:10:00 16.7 C 12.51 g/m*3 16.7 C 22.5 km/h
1924 01-11-2020 16:15:00 16.7 C 12.36 g/m*3 16.7 C 12.9 km/h
1925 01-11-2020 16:20:00 16.8 C 12.44 g/m*3 16.8 C 9.7 km/h
Sensor: Nr:Datum:Temp:Abs-Feuchte:Windchill:Wind:
Aussen-T/F 1926 01-11-2020 16:25:00 16.8 C 12.44 g/m*3 16.8 C 17.7 km/h
1927 01-11-2020 16:30:00 16.8 C 12.44 g/m*3 16.8 C 14.5 km/h
1928 01-11-2020 16:35:00 16.8 C 12.44 g/m*3 16.8 C 11.3 km/h
1929 01-11-2020 16:40:00 16.8 C 12.58 g/m*3 16.8 C 9.7 km/h
1930 01-11-2020 16:45:00 16.7 C 12.51 g/m*3 16.7 C 14.5 km/h
1931 01-11-2020 16:50:00 16.7 C 12.51 g/m*3 16.7 C 9.7 km/h
1932 01-11-2020 16:55:00 16.7 C 12.51 g/m*3 16.7 C 16.1 km/h
1933 01-11-2020 17:00:00 16.7 C 12.51 g/m*3 16.7 C 11.3 km/h
1934 01-11-2020 17:05:00 16.7 C 12.51 g/m*3 16.7 C 11.3 km/h
1935 01-11-2020 17:10:00 16.6 C 12.43 g/m*3 16.6 C 14.5 km/h
1936 01-11-2020 17:15:00 16.6 C 12.43 g/m*3 16.6 C 11.3 km/h
1937 01-11-2020 17:20:00 16.6 C 12.43 g/m*3 16.6 C 8.1 km/h
1938 01-11-2020 17:25:00 16.6 C 12.57 g/m*3 16.6 C 9.7 km/h
1939 01-11-2020 17:30:00 16.6 C 12.57 g/m*3 16.6 C 8.1 km/h
1940 01-11-2020 17:35:00 16.6 C 12.57 g/m*3 16.6 C 11.3 km/h
1941 01-11-2020 17:40:00 16.5 C 12.5 g/m*3 16.5 C 9.7 km/h
1942 01-11-2020 17:45:00 16.5 C 12.5 g/m*3 16.5 C 11.3 km/h
1943 01-11-2020 17:50:00 16.6 C 12.57 g/m*3 16.6 C 12.9 km/h
1944 01-11-2020 17:55:00 16.6 C 12.57 g/m*3 16.6 C 6.4 km/h
1945 01-11-2020 18:00:00 16.6 C 12.57 g/m*3 16.6 C 4.8 km/h
1946 01-11-2020 18:05:00 16.6 C 12.57 g/m*3 16.6 C 9.7 km/h
1947 01-11-2020 18:10:00 16.6 C 12.57 g/m*3 16.6 C 6.4 km/h
1948 01-11-2020 18:15:00 16.7 C 12.65 g/m*3 16.7 C 9.7 km/h
1949 01-11-2020 18:20:00 16.7 C 12.65 g/m*3 16.7 C 11.3 km/h
1950 01-11-2020 18:25:00 16.7 C 12.65 g/m*3 16.7 C 8.1 km/h
Sensor: Nr:Datum:Temp:Abs-Feuchte:Windchill:Wind:
Aussen-T/F 1951 01-11-2020 18:30:00 16.7 C 12.65 g/m*3 16.7 C 4.8 km/h
1952 01-11-2020 18:35:00 16.8 C 12.58 g/m*3 16.8 C 9.7 km/h
1953 01-11-2020 18:40:00 16.8 C 12.58 g/m*3 16.8 C 11.3 km/h
1954 01-11-2020 18:45:00 16.8 C 12.58 g/m*3 16.8 C 11.3 km/h
1955 01-11-2020 18:50:00 16.8 C 12.58 g/m*3 16.8 C 12.9 km/h
1956 01-11-2020 18:55:00 16.8 C 12.58 g/m*3 16.8 C 8.1 km/h
1957 01-11-2020 19:00:00 16.8 C 12.58 g/m*3 16.8 C 8.1 km/h
1958 01-11-2020 19:05:00 16.8 C 12.58 g/m*3 16.8 C 12.9 km/h
1959 01-11-2020 19:10:00 16.8 C 12.58 g/m*3 16.8 C 14.5 km/h
1960 01-11-2020 19:15:00 16.8 C 12.58 g/m*3 16.8 C 11.3 km/h
1961 01-11-2020 19:20:00 16.9 C 12.66 g/m*3 16.9 C 12.9 km/h
1962 01-11-2020 19:25:00 16.9 C 12.66 g/m*3 16.9 C 11.3 km/h
1963 01-11-2020 19:30:00 16.9 C 12.66 g/m*3 16.9 C 12.9 km/h
1964 01-11-2020 19:35:00 16.9 C 12.66 g/m*3 16.9 C 8.1 km/h
1965 01-11-2020 19:40:00 16.9 C 12.66 g/m*3 16.9 C 11.3 km/h
1966 01-11-2020 19:45:00 16.9 C 12.66 g/m*3 16.9 C 9.7 km/h
1967 01-11-2020 19:50:00 16.9 C 12.66 g/m*3 16.9 C 4.8 km/h
1968 01-11-2020 19:55:00 16.9 C 12.66 g/m*3 16.9 C 14.5 km/h
1969 01-11-2020 20:00:00 16.9 C 12.66 g/m*3 16.9 C 17.7 km/h
1970 01-11-2020 20:05:00 16.9 C 12.66 g/m*3 16.9 C 4.8 km/h
1971 01-11-2020 20:10:00 16.9 C 12.66 g/m*3 16.9 C 14.5 km/h
1972 01-11-2020 20:15:00 17 C 12.73 g/m*3 17 C 16.1 km/h
1973 01-11-2020 20:20:00 17 C 12.73 g/m*3 17 C 14.5 km/h
1974 01-11-2020 20:25:00 17 C 12.73 g/m*3 17 C 17.7 km/h
1975 01-11-2020 20:30:00 17 C 12.73 g/m*3 17 C 14.5 km/h
Sensor: Nr:Datum:Temp:Abs-Feuchte:Windchill:Wind:
Aussen-T/F 1976 01-11-2020 20:35:00 17 C 12.73 g/m*3 17 C 12.9 km/h
1977 01-11-2020 20:40:00 17 C 12.73 g/m*3 17 C 11.3 km/h
1978 01-11-2020 20:45:00 17 C 12.73 g/m*3 17 C 6.4 km/h
1979 01-11-2020 20:50:00 17 C 12.73 g/m*3 17 C 8.1 km/h
1980 01-11-2020 20:55:00 17 C 12.73 g/m*3 17 C 11.3 km/h
1981 01-11-2020 21:00:00 17.1 C 12.81 g/m*3 17.1 C 16.1 km/h
1982 01-11-2020 21:05:00 17.1 C 12.81 g/m*3 17.1 C 9.7 km/h
1983 01-11-2020 21:10:00 17.1 C 12.81 g/m*3 17.1 C 16.1 km/h
1984 01-11-2020 21:15:00 17.1 C 12.81 g/m*3 17.1 C 8.1 km/h
1985 01-11-2020 21:20:00 17.1 C 12.81 g/m*3 17.1 C 4.8 km/h
1986 01-11-2020 21:25:00 17.1 C 12.81 g/m*3 17.1 C 16.1 km/h
1987 01-11-2020 21:30:00 17.1 C 12.81 g/m*3 17.1 C 9.7 km/h
1988 01-11-2020 21:35:00 17.1 C 12.66 g/m*3 17.1 C 12.9 km/h
1989 01-11-2020 21:40:00 17.1 C 12.66 g/m*3 17.1 C 16.1 km/h
1990 01-11-2020 21:45:00 17.2 C 12.74 g/m*3 17.2 C 17.7 km/h
1991 01-11-2020 21:50:00 17.2 C 12.74 g/m*3 17.2 C 14.5 km/h
1992 01-11-2020 21:55:00 17.2 C 12.74 g/m*3 17.2 C 12.9 km/h
1993 01-11-2020 22:00:00 17.2 C 12.74 g/m*3 17.2 C 11.3 km/h
1994 01-11-2020 22:05:00 17.2 C 12.89 g/m*3 17.2 C 12.9 km/h
1995 01-11-2020 22:10:00 17.2 C 12.89 g/m*3 17.2 C 9.7 km/h
1996 01-11-2020 22:15:00 17.2 C 12.89 g/m*3 17.2 C 8.1 km/h
1997 01-11-2020 22:20:00 17.1 C 12.81 g/m*3 17.1 C 8.1 km/h
1998 01-11-2020 22:25:00 17.1 C 12.81 g/m*3 17.1 C 6.4 km/h
1999 01-11-2020 22:30:00 17.1 C 12.81 g/m*3 17.1 C 9.7 km/h
2000 01-11-2020 22:35:00 17.2 C 12.89 g/m*3 17.2 C 9.7 km/h
Sensor: Nr:Datum:Temp:Abs-Feuchte:Windchill:Wind:
Aussen-T/F 2001 01-11-2020 22:40:00 17.2 C 12.89 g/m*3 17.2 C 3.2 km/h
2002 01-11-2020 22:45:00 17.2 C 12.89 g/m*3 17.2 C 8.1 km/h
2003 01-11-2020 22:50:00 17.2 C 12.89 g/m*3 17.2 C 3.2 km/h
2004 01-11-2020 22:55:00 17.2 C 12.89 g/m*3 17.2 C 6.4 km/h
2005 01-11-2020 23:00:00 17.2 C 12.89 g/m*3 17.2 C 8.1 km/h
2006 01-11-2020 23:05:00 17.3 C 12.96 g/m*3 17.3 C 3.2 km/h
2007 01-11-2020 23:10:00 17.3 C 12.96 g/m*3 17.3 C 8.1 km/h
2008 01-11-2020 23:15:00 17.2 C 12.89 g/m*3 17.2 C 3.2 km/h
2009 01-11-2020 23:20:00 17.2 C 12.89 g/m*3 17.2 C 3.2 km/h
2010 01-11-2020 23:25:00 17.2 C 12.89 g/m*3 17.2 C 3.2 km/h
2011 01-11-2020 23:30:00 17.2 C 12.89 g/m*3 17.2 C 4.8 km/h
2012 01-11-2020 23:35:00 17.3 C 12.96 g/m*3 17.3 C 4.8 km/h
2013 01-11-2020 23:40:00 17.3 C 12.96 g/m*3 17.3 C 6.4 km/h
2014 01-11-2020 23:45:00 17.3 C 12.96 g/m*3 17.3 C 1.6 km/h
2015 01-11-2020 23:50:00 17.3 C 12.96 g/m*3 17.3 C 6.4 km/h
2016 01-11-2020 23:55:00 17.3 C 12.96 g/m*3 17.3 C 3.2 km/h

Legende:
   Min
   Max


Maximal/Minimal-Werte vom 14.04.2020 - 16.05.2020

Sensor Min Max Avg
Temp
(Aussen-T/F)
-0.1 °C
15-04-2020  06:55:00
26.2 °C
17-04-2020  18:05:00
11.98 °C

Die Daten stammen von einer Davis Vantage Pro 2 Wetter-Station und werden unter Linux mit der Software wview2wettercgi und aufbereitet. Alle Angaben erfolgen ohne Gewähr für ihre Vollständigkeit oder Richtigkeit.
Kontakt: Rainer Krienke krienke@uni-koblenz.de . Meine Webseiten an der Uni Koblenz oder privat.
Version: $Revision: 0.78 $